[[{"header":{"parameterUnit":"m.s-1","parameterCategory":1,"la1":31.0,"la2":29.5877,"lo1":-88.7671,"lo2":-86.6584,"dy":0.0162,"dx":0.0185,"nx":115,"ny":88,"refTime":"2023-09-19T06:00:00:Z","depth":0,"parameterNumber":2,"parameterNumberName":"U-component_of_WINDS"},"data":[0.0,0.0,0.0,0.0,0.0,0.0,0.0,0.0,0.0,0.0,0.0,0.0,0.0,0.0,0.0,0.0,0.0,0.0,0.0,0.0,0.0,0.0,0.0,0.0,0.0,0.0,0.0,0.0,0.0,0.0,0.0,0.0,0.0,0.0,0.0,0.0,0.0,0.0,0.0,0.0,0.0,0.0,0.0,0.0,0.0,0.0,0.0,0.0,0.0,0.0,0.0,0.0,0.0,0.0,0.0,0.0,0.0,0.0,0.0,0.0,0.0,0.0,0.0,0.0,0.0,0.0,0.0,0.0,0.0,0.0,0.0,0.0,0.0,0.0,0.0,0.0,0.0,0.0,0.0,0.0,0.0,0.0,0.0,0.0,0.0,0.0,0.0,0.0,0.0,0.0,0.0,0.0,0.0,0.0,0.0,0.0,0.0,0.0,0.0,0.0,0.0,0.0,0.0,0.0,0.0,0.0,0.0,0.0,0.0,0.0,0.0,0.0,0.0,0.0,0.0,0.0,0.0,0.0,0.0,0.0,0.0,0.0,0.0,0.0,0.0,0.0,0.0,0.0,0.0,0.0,0.0,0.0,0.0,0.0,0.0,0.0,0.0,0.0,0.0,0.0,0.0,0.0,0.0,0.0,0.0,0.0,0.0,0.0,0.0,0.0,0.0,0.0,0.0,0.0,0.0,0.0,0.0,0.0,0.0,0.0,0.0,0.0,0.0,0.0,0.0,0.0,0.0,0.0,0.0,0.0,0.0,0.0,0.0,0.0,0.0,0.0,0.0,0.0,0.0,0.0,0.0,0.0,0.0,0.0,0.0,0.0,0.0,0.0,0.0,0.0,0.0,0.0,0.0,0.0,0.0,0.0,0.0,0.0,0.0,0.0,0.0,0.0,0.0,0.0,0.0,0.0,0.0,0.0,0.0,0.0,0.0,0.0,0.0,0.0,0.0,0.0,0.0,0.0,0.0,0.0,0.0,0.0,0.0,0.0,0.0,0.0,0.0,0.0,0.0,0.0,0.0,0.0,0.0,0.0,0.0,0.0,0.0,0.0,0.0,0.0,0.0,0.0,0.0,0.0,0.0,0.0,0.0,0.0,0.0,0.0,0.0,0.0,0.0,0.0,0.0,0.0,0.0,0.0,0.0,0.0,0.0,0.0,0.0,0.0,0.0,0.0,0.0,0.0,0.0,0.0,0.0,0.0,0.0,0.0,0.0,0.0,0.0,0.0,0.0,0.0,0.0,0.0,0.0,0.0,0.0,0.0,0.0,0.0,0.0,0.0,0.0,0.0,0.0,0.0,0.0,0.0,0.0,0.0,0.0,0.0,0.0,0.0,0.0,0.0,0.0,0.0,0.0,0.0,0.0,0.0,0.0,0.0,0.0,0.0,0.0,0.0,0.0,0.0,0.0,0.0,0.0,0.0,0.0,0.0,0.0,0.0,0.0,0.0,0.0,0.0,0.0,0.0,0.0,0.0,0.0,0.0,0.0,0.0,0.0,0.0,0.0,0.0,0.0,0.0,0.0,0.0,0.0,0.0,0.0,0.0,0.0,0.0,0.0,0.0,0.0,0.0,0.0,0.0,0.0,0.0,0.0,0.0,0.0,0.0,0.0,0.0,0.0,0.0,0.0,0.0,0.0,0.0,0.0,0.0,0.0,0.0,0.0,0.0,0.0,0.0,0.0,0.0,0.0,0.0,0.0,0.0,0.0,0.0,0.0,0.0,0.0,0.0,0.0,0.0,0.0,0.0,0.0,0.0,0.0,0.0,0.0,0.0,0.0,0.0,0.0,0.0,0.0,0.0,0.0,0.0,0.0,0.0,0.0,0.0,0.0,0.0,0.0,0.0,0.0,0.0,0.0,0.0,0.0,0.0,0.0,0.0,0.0,0.0,0.0,0.0,0.0,0.0,0.0,0.0,0.0,0.0,0.0,0.0,0.0,0.0,0.0,0.0,0.0,0.0,0.0,0.0,0.0,0.0,0.0,0.0,0.0,0.0,0.0,0.0,0.0,0.0,0.0,0.0,0.0,0.0,0.0,0.0,0.0,0.0,0.0,0.0,0.0,0.0,0.0,0.0,0.0,0.0,0.0,0.0,0.0,0.0,0.0,0.0,0.0,0.0,0.0,0.0,0.0,0.0,0.0,0.0,0.0,0.0,0.0,0.0,0.0,0.0,0.0,0.0,0.0,0.0,0.0,0.0,0.0,0.0,0.0,0.0,0.0,0.0,0.0,0.0,0.0,0.0,0.0,0.0,0.0,0.0,0.0,0.0,0.0,0.0,0.0,0.0,0.0,0.0,0.0,0.0,0.0,0.0,0.0,0.0,0.0,0.0,0.0,0.0,0.0,0.0,0.0,0.0,0.0,0.0,0.0,0.0,0.0,0.0,0.0,0.0,0.0,0.0,0.0,0.0,0.0,0.0,0.0,0.0,0.0,0.0,0.0,0.0,0.0,0.0,0.0,0.0,0.0,0.0,0.0,0.0,0.0,0.0,0.0,0.0,0.0,0.0,0.0,0.0,0.0,0.0,0.0,0.0,0.0,0.0,0.0,0.0,0.0,0.0,0.0,0.0,0.0,0.0,0.0,0.0,0.0,0.0,0.0,0.0,0.0,0.0,0.0,0.0,0.0,0.0,0.0,0.0,0.0,0.0,0.0,0.0,0.0,0.0,0.0,0.0,0.0,0.0,0.0,0.0,0.0,0.0,0.0,0.0,0.0,0.0,0.0,0.0,0.0,0.0,0.0,0.0,0.0,0.0,0.0,0.0,0.0,0.0,0.0,0.0,0.0,0.0,0.0,0.0,0.0,0.0,0.0,0.0,0.0,0.0,0.0,0.0,0.0,0.0,0.0,0.0,0.0,0.0,0.0,0.0,0.0,0.0,0.0,0.0,0.0,0.0,0.0,0.0,0.0,0.0,0.0,0.0,0.0,0.0,0.0,0.0,0.0,0.0,0.0,0.0,0.0,0.0,0.0,0.0,0.0,0.0,0.0,0.0,0.0,0.0,0.0,0.0,0.0,0.0,0.0,0.0,0.0,0.0,0.0,0.0,0.0,0.0,0.0,0.0,0.0,0.0,0.0,0.0,0.0,0.0,0.0,0.0,0.0,0.0,0.0,0.0,0.0,0.0,0.0,0.0,0.0,0.0,0.0,0.0,0.0,0.0,0.0,0.0,0.0,0.0,0.0,0.0,0.0,0.0,0.0,0.0,0.0,0.0,0.0,0.0,0.0,0.0,0.0,0.0,0.0,0.0,0.0,0.0,0.0,0.0,0.0,0.0,0.0,0.0,0.0,0.0,0.0,0.0,0.0,0.0,0.0,0.0,0.0,0.0,0.0,0.0,0.0,0.0,0.0,0.0,0.0,0.0,0.0,0.0,0.0,0.0,0.0,0.0,0.0,0.0,0.0,0.0,0.0,0.0,0.0,0.0,0.0,0.0,0.0,0.0,0.0,0.0,0.0,0.0,0.0,0.0,0.0,0.0,0.0,0.0,0.0,0.0,0.0,0.0,0.0,0.0,0.0,0.0,0.0,0.0,0.0,0.0,0.0,0.0,0.0,0.0,0.0,0.0,0.0,0.0,0.0,0.0,0.0,0.0,0.0,0.0,0.0,0.0,0.0,0.0,0.0,0.0,0.0,0.0,0.0,0.0,0.0,0.0,0.0,0.0,0.0,0.0,0.0,0.0,0.0,0.0,0.0,0.0,0.0,0.0,0.0,0.0,0.0,0.0,0.0,0.0,0.0,0.0,0.0,0.0,0.0,0.0,0.0,0.0,0.0,0.0,0.0,0.0,0.0,0.0,0.0,0.0,0.0,0.0,0.0,0.0,0.0,0.0,0.0,0.0,0.0,0.0,0.0,0.0,0.0,0.0,0.0,0.0,0.0,0.0,0.0,0.0,0.0,0.0,0.0,0.0,0.0,0.0,0.0,0.0,0.0,0.0,0.0,0.0,0.0,0.0,0.0,0.0,0.0,0.0,0.0,0.0,0.0,0.0,0.0,0.0,0.0,0.0,0.0,0.0,0.0,0.0,0.0,0.0,0.0,0.0,0.0,0.0,0.0,0.0,0.0,0.0,0.0,0.0,0.0,0.0,0.0,0.0,0.0,0.0,0.0,0.0,0.0,0.0,0.0,0.0,0.0,0.0,0.0,0.0,0.0,0.0,0.0,0.0,0.0,0.0,0.0,0.0,0.0,0.0,0.0,0.0,0.0,0.0,0.0,0.0,0.0,0.0,0.0,0.0,0.0,0.0,0.0,0.0,0.0,0.0,1.8061,0.0,0.0,0.0,0.0,0.0,0.0,0.0,0.0,0.0,0.0,0.0,0.0,0.0,0.0,0.0,0.0,0.0,0.0,0.0,0.0,0.0,0.0,0.0,0.0,0.0,0.0,0.0,0.0,0.0,0.0,0.0,0.0,0.0,0.0,0.0,0.0,0.0,0.0,0.0,0.0,0.0,0.0,0.0,0.0,0.0,0.0,0.0,0.0,0.0,0.0,0.0,0.0,0.0,0.0,0.0,0.0,0.0,0.0,0.0,0.0,0.0,0.0,0.0,0.0,0.0,0.0,0.0,0.0,0.0,0.0,0.0,0.0,0.0,0.0,0.0,0.0,0.0,0.0,0.0,0.0,0.0,0.0,0.0,0.0,0.0,0.0,0.0,0.0,0.0,0.0,0.0,0.0,0.0,0.0,0.0,0.0,0.0,0.0,0.0,0.0,0.0,0.0,0.0,0.0,0.0,0.0,0.0,0.0,0.0,0.0,1.9668,1.9014,1.9281,1.9095,1.8344,0.0,0.0,0.0,0.0,0.0,0.0,0.0,0.0,0.0,0.0,0.0,0.0,0.0,0.0,0.0,0.0,0.0,0.0,0.0,0.0,0.0,0.0,0.0,0.0,0.0,0.0,0.0,0.0,0.0,0.0,0.0,0.0,0.0,0.0,0.0,0.0,0.0,0.0,0.0,0.0,0.0,0.0,0.0,0.0,0.0,0.0,0.0,0.0,0.0,0.0,0.0,0.0,0.0,0.0,0.0,0.0,0.0,0.0,0.0,0.0,0.0,0.0,0.0,0.0,0.0,0.0,0.0,0.0,0.0,0.0,0.0,0.0,0.0,0.0,0.0,0.0,0.0,0.0,0.0,0.0,0.0,0.0,0.0,0.0,0.0,0.0,0.0,0.0,0.0,0.0,0.0,0.0,0.0,0.0,0.0,0.0,0.0,0.0,0.0,0.0,0.0,0.0,0.0,0.0,0.0,0.0,0.0,0.0,0.0,0.0,0.0,0.0,1.9746,1.9475,1.8646,0.0,0.0,0.0,0.0,0.0,0.0,0.0,0.0,0.0,0.0,0.0,0.0,0.0,0.0,0.0,0.0,0.0,0.0,0.0,0.0,0.0,0.0,0.0,0.0,0.0,0.0,0.0,0.0,0.0,0.0,0.0,0.0,0.0,0.0,0.0,0.0,0.0,0.0,0.0,0.0,0.0,0.0,0.0,0.0,0.0,0.0,0.0,0.0,0.0,0.0,0.0,0.0,0.0,0.0,0.0,0.0,0.0,0.0,0.0,0.0,0.0,0.0,0.0,0.0,0.0,0.0,0.0,0.0,0.0,0.0,0.0,0.0,0.0,0.0,0.0,0.0,0.0,0.0,0.0,0.0,0.0,0.0,0.0,0.0,0.0,0.0,0.0,0.0,0.0,0.0,0.0,0.0,0.0,0.0,0.0,0.0,0.0,0.0,0.0,0.0,0.0,0.0,0.0,0.0,0.0,0.0,0.0,0.0,0.0,0.0,1.9559,1.9835,1.9855,0.0,1.8676,0.0,0.0,0.0,0.0,0.0,0.0,0.0,0.0,0.0,0.0,0.0,0.0,0.0,0.0,0.0,0.0,0.0,0.0,0.0,0.0,0.0,0.0,0.0,0.0,0.0,0.0,0.0,0.0,0.0,0.0,0.0,0.0,0.0,0.0,0.0,0.0,0.0,0.0,0.0,0.0,0.0,0.0,0.0,0.0,0.0,0.0,0.0,0.0,0.0,0.0,0.0,0.0,0.0,0.0,0.0,0.0,0.0,0.0,0.0,0.0,0.0,0.0,0.0,0.0,0.0,0.0,0.0,0.0,0.0,0.0,0.0,0.0,0.0,0.0,0.0,0.0,0.0,0.0,0.0,0.0,0.0,0.0,0.0,0.0,0.0,0.0,0.0,0.0,0.0,0.0,0.0,0.0,0.0,0.0,0.0,0.0,0.0,0.0,0.0,0.0,0.0,0.0,0.0,0.0,0.0,0.0,0.0,0.0,0.0,0.0,1.8607,1.8753,1.8536,1.8712,0.0,0.0,0.0,0.0,0.0,0.0,0.0,0.0,0.0,0.0,0.0,0.0,0.0,0.0,0.0,0.0,0.0,0.0,0.0,0.0,0.0,0.0,0.0,0.0,0.0,0.0,0.0,0.0,0.0,0.0,0.0,0.0,0.0,0.0,0.0,0.0,0.0,0.0,0.0,0.0,0.0,0.0,0.0,0.0,0.0,0.0,0.0,0.0,0.0,0.0,0.0,0.0,0.0,0.0,0.0,0.0,0.0,0.0,0.0,0.0,0.0,0.0,0.0,0.0,0.0,0.0,0.0,0.0,0.0,0.0,0.0,0.0,0.0,0.0,0.0,0.0,0.0,0.0,0.0,0.0,0.0,0.0,0.0,0.0,0.0,0.0,0.0,0.0,0.0,0.0,0.0,0.0,0.0,0.0,0.0,0.0,0.0,0.0,0.0,0.0,0.0,0.0,0.0,0.0,0.0,0.0,0.0,0.0,0.0,0.0,1.8078,1.7755,1.798,1.7692,1.806,1.9174,0.0,0.0,0.0,0.0,0.0,0.0,0.0,0.0,0.0,0.0,0.0,0.0,0.0,0.0,0.0,0.0,0.0,0.0,0.0,0.0,0.0,0.0,0.0,0.0,0.0,0.0,0.0,0.0,0.0,0.0,0.0,0.0,0.0,0.0,0.0,0.0,0.0,0.0,0.0,0.0,0.0,0.0,0.0,0.0,0.0,0.0,0.0,0.0,0.0,0.0,0.0,0.0,0.0,0.0,0.0,0.0,0.0,0.0,0.0,0.0,0.0,0.0,0.0,0.0,0.0,0.0,0.0,0.0,0.0,0.0,0.0,0.0,0.0,0.0,0.0,0.0,0.0,0.0,0.0,0.0,0.0,0.0,0.0,0.0,0.0,0.0,0.0,0.0,0.0,0.0,0.0,0.0,0.0,0.0,0.0,0.0,0.0,0.0,0.0,0.0,0.0,0.0,0.0,0.0,0.0,0.0,0.0,0.0,1.7997,1.7229,1.7139,1.7957,1.798,1.7817,0.0,0.0,0.0,0.0,0.0,0.0,0.0,0.0,0.0,0.0,0.0,0.0,0.0,0.0,0.0,0.0,0.0,0.0,0.0,0.0,0.0,0.0,0.0,0.0,0.0,0.0,0.0,0.0,0.0,0.0,0.0,0.0,0.0,0.0,0.0,0.0,0.0,0.0,0.0,0.0,0.0,0.0,0.0,0.0,0.0,0.0,0.0,0.0,0.0,0.0,0.0,0.0,0.0,0.0,0.0,0.0,0.0,0.0,0.0,0.0,0.0,0.0,0.0,0.0,0.0,0.0,0.0,0.0,0.0,0.0,0.0,0.0,0.0,0.0,0.0,0.0,0.0,0.0,0.0,0.0,0.0,0.0,0.0,0.0,0.0,0.0,0.0,0.0,0.0,0.0,0.0,0.0,0.0,0.0,0.0,0.0,0.0,0.0,0.0,0.0,0.0,0.0,0.0,0.0,0.0,0.0,0.0,0.0,0.0,1.7107,1.6304,1.627,1.7107,1.6632,1.6773,0.0,0.0,0.0,0.0,0.0,0.0,0.0,0.0,0.0,0.0,0.0,0.0,0.0,0.0,0.0,0.0,0.0,0.0,0.0,0.0,0.0,0.0,0.0,0.0,0.0,0.0,0.0,0.0,0.0,0.0,0.0,0.0,0.0,0.0,0.0,0.0,0.0,0.0,0.0,0.0,0.0,0.0,0.0,0.0,0.0,0.0,0.0,0.0,0.0,0.0,0.0,0.0,0.0,0.0,0.0,0.0,0.0,0.0,0.0,0.0,0.0,0.0,0.0,0.0,0.0,0.0,0.0,0.0,0.0,0.0,0.0,0.0,0.0,0.0,0.0,0.0,0.0,0.0,0.0,0.0,0.0,0.0,0.0,0.0,0.0,0.0,0.0,0.0,0.0,0.0,0.0,0.0,0.0,0.0,0.0,0.0,0.0,0.0,0.0,0.0,0.0,0.0,0.0,0.0,0.0,0.0,0.0,0.0,0.0,1.6263,0.0,1.5707,1.6337,1.5741,1.5989,0.0,0.0,0.0,0.0,0.0,0.0,0.0,0.0,0.0,0.0,0.0,0.0,0.0,0.0,0.0,0.0,0.0,0.0,0.0,0.0,0.0,0.0,0.0,0.0,0.0,0.0,0.0,0.0,0.0,0.0,0.0,0.0,0.0,0.0,0.0,0.0,0.0,0.0,0.0,0.0,0.0,0.0,0.0,0.0,0.0,0.0,0.0,0.0,0.0,0.0,0.0,0.0,0.0,0.0,0.0,0.0,0.0,0.0,0.0,0.0,0.0,0.0,0.0,0.0,0.0,0.0,0.0,0.0,0.0,0.0,0.0,0.0,0.0,0.0,0.0,0.0,0.0,0.0,0.0,0.0,0.0,0.0,0.0,0.0,0.0,0.0,0.0,0.0,0.0,0.0,0.0,0.0,0.0,0.0,0.0,0.0,0.0,0.0,0.0,0.0,0.0,0.0,0.0,0.0,0.0,0.0,0.0,0.0,1.5382,1.5431,1.534,1.5374,1.5692,1.5458,1.5465,0.0,0.0,0.0,0.0,0.0,0.0,0.0,0.0,0.0,0.0,0.0,0.0,0.0,0.0,0.0,0.0,0.0,0.0,0.0,0.0,0.0,0.0,0.0,0.0,0.0,0.0,0.0,0.0,0.0,0.0,0.0,0.0,0.0,0.0,0.0,0.0,0.0,0.0,0.0,0.0,0.0,0.0,0.0,0.0,0.0,0.0,0.0,0.0,0.0,0.0,0.0,0.0,0.0,0.0,0.0,0.0,0.0,0.0,0.0,0.0,0.0,0.0,0.0,0.0,0.0,0.0,0.0,0.0,0.0,0.0,0.0,0.0,0.0,0.0,0.0,0.0,0.0,0.0,0.0,0.0,0.0,0.0,0.0,0.0,0.0,0.0,0.0,0.0,0.0,0.0,0.0,0.0,0.0,0.0,0.0,0.0,0.0,0.0,0.0,0.0,0.0,0.0,0.0,0.0,0.0,0.0,0.0,0.0,0.0,1.5347,1.4174,1.3873,1.4559,1.4517,1.4524,0.0,0.0,0.0,0.0,0.0,0.0,0.0,0.0,0.0,0.0,0.0,0.0,0.0,0.0,0.0,0.0,0.0,0.0,0.0,0.0,0.0,0.0,0.0,0.0,0.0,0.0,0.0,0.0,0.0,0.0,0.0,0.0,0.0,0.0,0.0,0.0,0.0,0.0,0.0,0.0,0.0,0.0,0.0,0.0,0.0,0.0,0.0,0.0,0.0,0.0,0.0,0.0,0.0,0.0,0.0,0.0,0.0,0.0,0.0,0.0,0.0,0.0,0.0,0.0,0.0,0.0,0.0,0.0,0.0,0.0,0.0,0.0,0.0,0.0,0.0,0.0,0.0,0.0,0.0,0.0,0.0,0.0,0.0,0.0,0.0,0.0,0.0,0.0,0.0,0.0,0.0,0.0,0.0,0.0,0.0,0.0,0.0,0.0,0.0,0.0,0.0,0.0,0.0,0.0,0.0,0.0,0.0,0.0,0.0,1.4265,1.3281,1.3021,1.3669,1.3922,1.4139,1.423,0.0,0.0,0.0,0.0,0.0,0.0,0.0,0.0,0.0,0.0,0.0,0.0,0.0,0.0,0.0,0.0,0.0,0.0,0.0,0.0,0.0,0.0,0.0,0.0,0.0,0.0,0.0,0.0,0.0,0.0,0.0,0.0,0.0,0.0,0.0,0.0,0.0,0.0,0.0,0.0,0.0,0.0,0.0,0.0,0.0,0.0,0.0,0.0,0.0,0.0,0.0,0.0,0.0,0.0,0.0,0.0,0.0,0.0,0.0,0.0,0.0,0.0,0.0,0.0,0.0,0.0,0.0,0.0,0.0,0.0,0.0,0.0,0.0,0.0,0.0,0.0,0.0,0.0,0.0,0.0,0.0,0.0,0.0,0.0,0.0,0.0,0.0,0.0,0.0,0.0,0.0,0.0,0.0,0.0,0.0,0.0,0.0,0.0,0.0,0.0,0.0,0.0,0.0,0.0,0.0,0.0,0.0,0.0,1.251,1.2547,1.2632,1.2887,1.362,1.4139,0.0,0.0,0.0,0.0,0.0,0.0,0.0,0.0,0.0,0.0,0.0,0.0,0.0,0.0,0.0,0.0,0.0,0.0,0.0,0.0,0.0,0.0,0.0,0.0,0.0,0.0,0.0,0.0,0.0,0.0,0.0,0.0,0.0,0.0,0.0,0.0,0.0,0.0,0.0,0.0,0.0,0.0,0.0,0.0,0.0,0.0,0.0,0.0,0.0,0.0,0.0,0.0,0.0,0.0,0.0,0.0,0.0,0.0,0.0,0.0,0.0,0.0,0.0,0.0,0.0,0.0,0.0,0.0,0.0,0.0,0.0,0.0,0.0,0.0,0.0,0.0,0.0,0.0,0.0,0.0,0.0,0.0,0.0,0.0,0.0,0.0,0.0,0.0,0.0,0.0,0.0,0.0,0.0,0.0,0.0,0.0,0.0,0.0,0.0,0.0,0.0,0.0,0.0,0.0,0.0,0.0,0.0,0.0,0.0,1.0419,1.0593,1.1063,1.1703,1.2595,1.3105,0.0,0.0,0.0,0.0,0.0,0.0,0.0,0.0,0.0,0.0,0.0,0.0,0.0,0.0,0.0,0.0,0.0,0.0,0.0,0.0,0.0,0.0,0.0,0.0,0.0,0.0,0.0,0.0,0.0,0.0,0.0,0.0,0.0,0.0,0.0,0.0,0.0,0.0,0.0,0.0,0.0,0.0,0.0,0.0,0.0,0.0,0.0,0.0,0.0,0.0,0.0,0.0,0.0,0.0,0.0,0.0,0.0,0.0,0.0,0.0,0.0,0.0,0.0,0.0,0.0,0.0,0.0,0.0,0.0,0.0,0.0,0.0,0.0,0.0,0.0,0.0,0.0,0.0,0.0,0.0,0.0,0.0,0.0,0.0,0.0,0.0,0.0,0.0,0.0,0.0,0.0,0.0,0.0,0.0,0.0,0.0,0.0,0.0,0.0,0.0,0.0,0.0,0.0,0.0,0.0,0.0,0.0,0.0,0.8269,0.8273,0.8623,0.9192,0.9971,1.1354,1.2132,0.0,0.0,0.0,0.0,0.0,0.0,0.0,0.0,0.0,0.0,0.0,0.0,0.0,0.0,0.0,0.0,0.0,0.0,0.0,0.0,0.0,0.0,0.0,0.0,0.0,0.0,0.0,0.0,0.0,0.0,0.0,0.0,0.0,0.0,0.0,0.0,0.0,0.0,0.0,0.0,0.0,0.0,0.0,0.0,0.0,0.0,0.0,0.0,0.0,0.0,0.0,0.0,0.0,0.0,0.0,0.0,0.0,0.0,0.0,0.0,0.0,0.0,0.0,0.0,0.0,0.0,0.0,0.0,0.0,0.0,0.0,0.0,0.0,0.0,0.0,0.0,0.0,0.0,0.0,0.0,0.0,0.0,0.0,0.0,0.0,0.0,0.0,0.0,0.0,0.0,0.0,0.0,0.0,0.0,0.0,0.0,0.0,0.0,0.0,0.0,0.0,0.0,0.0,0.0,0.0,0.0,0.0,0.0,0.6369,0.6372,0.6814,0.7386,0.8089,1.0101,1.1235,0.0,0.0,0.0,0.0,0.0,0.0,0.0,0.0,0.0,0.0,0.0,0.0,0.0,0.0,0.0,0.0,0.0,0.0,0.0,0.0,0.0,0.0,0.0,0.0,0.0,0.0,0.0,0.0,0.0,0.0,0.0,0.0,0.0,0.0,0.0,0.0,0.0,0.0,0.0,0.0,0.0,0.0,0.0,0.0,0.0,0.0,0.0,0.0,0.0,0.0,0.0,0.0,0.0,0.0,0.0,0.0,0.0,0.0,0.0,0.0,0.0,0.0,0.0,0.0,0.0,0.0,0.0,0.0,0.0,0.0,0.0,0.0,0.0,0.0,0.0,0.0,0.0,0.0,0.0,0.0,0.0,0.0,0.0,0.0,0.0,0.0,0.0,0.0,0.0,0.0,0.0,0.0,0.0,0.0,0.0,0.0,0.0,0.0,0.0,0.0,0.0,0.0,0.0,0.0,0.0,0.0,0.0,0.0,0.6157,0.6157,0.6416,0.6814,0.7346,0.9396,1.075,0.0,0.0,0.0,0.0,0.0,0.0,0.0,0.0,0.0,0.0,0.0,0.0,0.0,0.0,0.0,0.0,0.0,0.0,0.0,0.0,0.0,0.0,0.0,0.0,0.0,0.0,0.0,0.0,0.0,0.0,0.0,0.0,0.0,0.0,0.0,0.0,0.0,0.0,0.0,0.0,0.0,0.0,0.0,0.0,0.0,0.0,0.0,0.0,2.7728,0.0,0.0,0.0,0.0,0.0,0.0,0.0,0.0,0.0,0.0,0.0,0.0,0.0,0.0,0.0,0.0,0.0,0.0,0.0,0.0,0.0,0.0,0.0,0.0,0.0,0.0,0.0,0.0,0.0,0.0,0.0,0.0,0.0,0.0,0.0,0.0,0.0,0.0,0.0,0.0,0.0,0.0,0.0,0.0,0.0,0.0,0.0,0.0,0.0,0.0,0.0,0.0,0.0,0.0,0.0,0.0,0.0,0.0,0.0,0.4607,0.4607,0.4917,0.5356,0.593,0.7291,0.8694,0.0,0.0,0.0,0.0,0.0,0.0,0.0,0.0,0.0,0.0,0.0,0.0,0.0,0.0,0.0,0.0,0.0,0.0,0.0,0.0,0.0,0.0,0.0,0.0,0.0,0.0,0.0,0.0,0.0,0.0,0.0,0.0,0.0,0.0,0.0,0.0,0.0,0.0,0.0,0.0,0.0,0.0,0.0,0.0,0.0,0.0,0.0,0.0,0.0,0.0,0.0,0.0,0.0,0.0,0.0,0.0,0.0,0.0,0.0,0.0,0.0,0.0,0.0,0.0,0.0,0.0,0.0,0.0,0.0,0.0,0.0,0.0,0.0,0.0,0.0,0.0,0.0,0.0,0.0,0.0,0.0,0.0,0.0,0.0,0.0,0.0,0.0,0.0,0.0,0.0,0.0,0.0,0.0,0.0,0.0,0.0,0.0,0.0,0.0,0.0,0.0,0.0,0.0,0.0,0.0,0.0,0.0,0.2694,0.2694,0.256,0.296,0.3539,0.4247,0.4734,0.6062,0.836,0.0,0.0,0.0,0.0,0.0,0.0,0.0,0.0,0.0,0.0,0.0,0.0,0.0,0.0,0.0,0.0,0.0,0.0,0.0,0.0,0.0,0.0,0.0,0.0,0.0,0.0,0.0,0.0,0.0,0.0,0.0,0.0,0.0,0.0,0.0,0.0,0.0,0.0,2.5491,2.6225,0.0,0.0,0.0,0.0,0.0,0.0,0.0,0.0,2.9082,0.0,0.0,0.0,0.0,0.0,0.0,0.0,0.0,0.0,0.0,0.0,0.0,0.0,0.0,0.0,0.0,0.0,0.0,0.0,0.0,0.0,0.0,0.0,0.0,0.0,0.0,0.0,0.0,0.0,0.0,0.0,0.0,0.0,0.0,0.0,0.0,0.0,0.0,0.0,0.0,0.0,0.0,0.0,0.0,0.0,0.0,0.0,0.0,0.0,0.0,0.0,0.0,0.0,0.0,0.0,0.0,0.166,0.1885,0.166,0.1076,0.1121,0.1703,0.2774,0.2908,0.4109,0.6419,0.0,0.0,0.0,0.0,0.0,0.0,0.0,0.0,0.0,0.0,0.0,0.0,0.0,0.0,0.0,0.0,0.0,0.0,0.0,0.0,0.0,0.0,0.0,0.0,0.0,0.0,0.0,0.0,0.0,0.0,0.0,0.0,0.0,0.0,0.0,0.0,0.0,0.0,0.0,2.6736,2.7188,0.0,0.0,0.0,0.0,0.0,0.0,0.0,0.0,2.9316,0.0,0.0,0.0,0.0,0.0,0.0,0.0,0.0,0.0,0.0,0.0,0.0,0.0,0.0,0.0,0.0,0.0,0.0,0.0,0.0,0.0,0.0,0.0,0.0,0.0,0.0,0.0,0.0,0.0,0.0,0.0,0.0,0.0,0.0,0.0,0.0,0.0,0.0,0.0,0.0,0.0,0.0,0.0,0.0,0.0,0.0,0.0,0.0,0.0,0.0,0.0,0.0,0.0,0.0,0.0,0.0358,0.0448,0.0448,0.0358,0.0313,0.0717,0.1523,0.1927,0.2776,0.0,0.0,0.0,0.0,0.0,0.0,0.0,0.0,0.0,0.0,0.0,0.0,0.0,0.0,0.0,0.0,0.0,0.0,0.0,0.0,0.0,0.0,0.0,0.0,0.0,0.0,0.0,0.0,0.0,0.0,0.0,0.0,0.0,0.0,0.0,0.0,0.0,0.0,0.0,0.0,2.6615,2.7345,2.7689,0.0,0.0,0.0,0.0,0.0,0.0,2.904,2.9118,0.0,0.0,0.0,0.0,0.0,0.0,0.0,0.0,0.0,0.0,0.0,0.0,0.0,0.0,0.0,0.0,0.0,0.0,0.0,0.0,0.0,0.0,0.0,0.0,0.0,0.0,0.0,0.0,0.0,0.0,0.0,0.0,0.0,0.0,0.0,0.0,0.0,0.0,0.0,0.0,0.0,0.0,0.0,0.0,0.0,0.0,0.0,0.0,0.0,0.0,0.0,0.0,0.0,0.0,0.0,-0.0984,-0.0939,-0.0805,-0.0581,-0.0581,-0.0269,0.0314,0.0897,0.1614,0.0,0.0,0.0,0.0,0.0,0.0,0.0,0.0,0.0,0.0,0.0,0.0,0.0,0.0,0.0,0.0,0.0,0.0,0.0,0.0,0.0,0.0,0.0,0.0,0.0,0.0,0.0,0.0,0.0,0.0,0.0,0.0,0.0,0.0,0.0,0.0,0.0,0.0,0.0,0.0,0.0,2.7475,2.8021,2.8614,0.0,0.0,0.0,0.0,2.8791,2.8803,0.0,0.0,0.0,0.0,0.0,0.0,0.0,0.0,0.0,0.0,0.0,0.0,0.0,0.0,0.0,0.0,0.0,0.0,0.0,0.0,0.0,0.0,0.0,0.0,0.0,0.0,0.0,0.0,0.0,0.0,0.0,0.0,0.0,0.0,0.0,0.0,0.0,0.0,0.0,0.0,0.0,0.0,0.0,0.0,0.0,0.0,0.0,0.0,0.0,0.0,0.0,0.0,0.0,0.0,0.0,0.0,-0.2013,-0.1789,-0.1969,-0.2551,-0.2552,-0.2015,-0.0942,-0.0807,0.0269,0.0,0.0,0.0,0.0,0.0,0.0,0.0,0.0,0.0,0.0,0.0,0.0,0.0,0.0,0.0,0.0,0.0,0.0,0.0,0.0,0.0,0.0,0.0,0.0,0.0,0.0,0.0,0.0,0.0,0.0,0.0,0.0,0.0,0.0,0.0,0.0,0.0,0.0,0.0,0.0,0.0,2.7864,2.8382,2.8514,2.8618,0.0,0.0,0.0,2.8764,2.8803,0.0,0.0,0.0,0.0,0.0,0.0,0.0,0.0,0.0,0.0,0.0,0.0,0.0,0.0,0.0,0.0,0.0,0.0,0.0,0.0,0.0,0.0,0.0,0.0,0.0,0.0,0.0,0.0,0.0,0.0,0.0,0.0,0.0,0.0,0.0,0.0,0.0,0.0,0.0,0.0,0.0,0.0,0.0,0.0,0.0,0.0,0.0,0.0,0.0,0.0,0.0,0.0,0.0,0.0,0.0,-0.3089,-0.3357,-0.3267,-0.3224,-0.3315,-0.3315,-0.2913,-0.2106,-0.1702,-0.0671,0.0,0.0,0.0,0.0,0.0,0.0,0.0,0.0,0.0,0.0,0.0,0.0,0.0,0.0,0.0,0.0,0.0,0.0,0.0,0.0,0.0,0.0,0.0,0.0,0.0,0.0,0.0,0.0,0.0,0.0,0.0,0.0,0.0,0.0,0.0,0.0,0.0,0.0,0.0,0.0,0.0,0.0,2.7915,2.7857,0.0,0.0,0.0,2.8402,2.8219,0.0,0.0,0.0,0.0,0.0,0.0,0.0,0.0,0.0,0.0,0.0,0.0,0.0,0.0,0.0,0.0,0.0,0.0,0.0,0.0,0.0,0.0,0.0,0.0,0.0,0.0,0.0,0.0,0.0,0.0,0.0,0.0,0.0,0.0,0.0,0.0,0.0,0.0,0.0,0.0,0.0,0.0,0.0,0.0,0.0,0.0,0.0,0.0,0.0,0.0,0.0,0.0,0.0,0.0,0.0,0.0,0.0,-0.4512,-0.4557,-0.439,-0.4051,-0.4051,-0.3768,-0.3205,-0.2661,0.0,0.0,0.0,0.0,0.0,0.0,0.0,0.0,0.0,0.0,0.0,0.0,0.0,0.0,0.0,0.0,0.0,0.0,0.0,0.0,0.0,0.0,0.0,0.0,0.0,0.0,0.0,1.9628,0.0,0.0,0.0,0.0,0.0,0.0,0.0,0.0,0.0,0.0,0.0,0.0,0.0,0.0,2.5581,2.7017,2.7119,2.7185,0.0,0.0,2.8366,2.7981,2.8258,2.8578,0.0,0.0,0.0,0.0,0.0,0.0,0.0,0.0,0.0,0.0,0.0,0.0,0.0,0.0,0.0,0.0,0.0,0.0,0.0,0.0,0.0,0.0,0.0,0.0,0.0,0.0,0.0,0.0,0.0,0.0,0.0,0.0,0.0,0.0,0.0,0.0,0.0,0.0,0.0,0.0,0.0,0.0,0.0,0.0,0.0,0.0,0.0,0.0,0.0,0.0,0.0,0.0,0.0,0.0,0.0,-0.511,-0.5115,-0.5159,-0.5256,-0.5263,-0.4884,-0.4058,-0.3963,-0.2831,0.0,0.0,0.0,0.0,0.0,0.0,0.0,0.0,0.0,0.0,0.0,0.0,0.0,0.0,0.0,0.0,0.0,0.0,0.0,0.0,0.0,0.0,0.0,0.0,0.0,0.0,0.0,0.0,0.0,0.0,0.0,0.0,0.0,0.0,0.0,0.0,0.0,0.0,0.0,0.0,0.0,2.4106,2.5635,2.6219,2.6818,0.0,0.0,2.8498,2.8462,2.8486,2.859,2.8764,0.0,0.0,0.0,0.0,0.0,0.0,0.0,0.0,0.0,0.0,0.0,0.0,0.0,0.0,0.0,0.0,0.0,0.0,0.0,0.0,0.0,0.0,0.0,0.0,0.0,0.0,0.0,0.0,0.0,0.0,0.0,0.0,0.0,0.0,0.0,0.0,0.0,0.0,0.0,0.0,0.0,0.0,0.0,0.0,0.0,0.0,0.0,0.0,0.0,0.0,0.0,0.0,0.0,-0.5163,-0.5314,-0.5317,-0.5336,-0.5422,-0.5424,-0.5216,-0.4893,-0.4891,-0.3958,0.0,0.0,0.0,0.0,0.0,0.0,0.0,0.0,0.0,0.0,0.0,0.0,0.0,0.0,0.0,0.0,0.0,0.0,0.0,0.0,0.0,0.0,0.0,0.0,0.0,0.0,0.0,0.0,1.8477,1.8275,1.7969,0.0,0.0,0.0,0.0,0.0,0.0,0.0,0.0,0.0,0.0,2.3859,2.5324,2.6044,0.0,0.0,2.8134,2.839,2.8077,2.8306,2.855,2.8618,2.8618,0.0,0.0,0.0,0.0,0.0,0.0,0.0,0.0,0.0,0.0,0.0,0.0,0.0,0.0,0.0,0.0,0.0,0.0,0.0,0.0,0.0,0.0,0.0,0.0,0.0,0.0,0.0,0.0,0.0,0.0,0.0,0.0,0.0,0.0,0.0,0.0,0.0,0.0,0.0,0.0,0.0,0.0,0.0,0.0,0.0,0.0,0.0,0.0,0.0,0.0,0.0,0.0,-0.5551,-0.5663,-0.5663,-0.5679,-0.5709,-0.5709,-0.5646,-0.5568,-0.5568,-0.4847,0.0,0.0,0.0,0.0,0.0,0.0,0.0,0.0,0.0,0.0,0.0,0.0,0.0,0.0,0.0,0.0,0.0,0.0,0.0,0.0,0.0,0.0,0.0,0.0,0.0,0.0,0.0,0.0,1.7597,1.7688,1.7688,0.0,0.0,0.0,0.0,0.0,0.0,0.0,0.0,0.0,0.0,2.2913,2.4415,2.5273,2.6166,2.7355,2.7965,2.8219,2.7978,2.827,2.851,2.851,0.0,0.0,0.0,0.0,0.0,0.0,0.0,0.0,0.0,0.0,0.0,0.0,0.0,0.0,0.0,0.0,0.0,0.0,0.0,0.0,0.0,0.0,0.0,0.0,0.0,0.0,0.0,0.0,0.0,0.0,-1.4089,0.0,0.0,0.0,0.0,0.0,0.0,0.0,0.0,0.0,0.0,0.0,0.0,0.0,0.0,0.0,0.0,0.0,0.0,0.0,0.0,0.0,0.0,0.0,-0.6311,-0.6265,-0.6317,-0.6368,-0.6379,-0.622,-0.5922,-0.5871,-0.5232,-0.3894,0.0,0.0,0.0,0.0,0.0,0.0,0.0,0.0,0.0,0.0,0.0,0.0,0.0,0.0,0.0,0.0,0.0,0.0,0.0,0.0,0.0,0.0,0.0,0.0,0.0,0.0,1.626,1.7301,1.8072,0.0,0.0,0.0,0.0,0.0,0.0,0.0,0.0,0.0,0.0,2.0421,2.092,2.2647,2.3659,2.5028,2.6834,2.758,2.8042,2.8395,2.8459,2.851,0.0,0.0,0.0,0.0,0.0,0.0,0.0,0.0,0.0,0.0,0.0,0.0,0.0,0.0,0.0,0.0,0.0,0.0,0.0,0.0,0.0,0.0,0.0,0.0,0.0,0.0,0.0,-1.6476,-1.5058,0.0,0.0,0.0,0.0,0.0,0.0,0.0,0.0,0.0,0.0,0.0,-0.7897,-0.7254,0.0,0.0,0.0,0.0,0.0,0.0,0.0,0.0,0.0,0.0,0.0,0.0,-0.6794,-0.6869,-0.6877,-0.6895,-0.6933,-0.6939,-0.6816,-0.6531,-0.6481,-0.5483,-0.3296,0.0,0.0,0.0,0.0,0.0,0.0,0.0,0.0,0.0,0.0,0.0,0.0,0.0,0.0,0.0,0.0,0.0,0.0,0.0,0.0,0.0,0.0,0.0,0.0,0.0,1.5785,0.0,0.0,0.0,0.0,0.0,0.0,0.0,0.0,0.0,0.0,0.0,1.9482,2.004,2.0614,2.1448,2.2624,2.4059,2.5381,0.0,0.0,0.0,0.0,0.0,0.0,0.0,0.0,0.0,0.0,0.0,0.0,0.0,0.0,2.9665,3.0532,3.1659,3.2613,3.3122,0.0,0.0,0.0,0.0,0.0,0.0,0.0,0.0,0.0,0.0,0.0,0.0,0.0,0.0,0.0,0.0,-1.4873,0.0,0.0,0.0,0.0,0.0,0.0,0.0,0.0,-0.9309,-0.8469,-0.7778,-0.7171,-0.6894,0.0,-0.6894,-0.6749,0.0,0.0,0.0,0.0,0.0,0.0,0.0,0.0,-0.6407,-0.6132,-0.6437,-0.6637,-0.6639,-0.7036,-0.6939,-0.6392,-0.6039,-0.4841,-0.2794,-0.1818,-0.0797,0.0,0.0,0.0,0.0,0.0,0.0,0.0,0.0,0.0,0.0,0.0,0.0,0.0,0.0,0.0,0.0,0.0,0.0,0.0,0.0,0.0,0.0,0.0,1.4814,0.0,0.0,0.0,0.0,0.0,0.0,0.0,0.0,0.0,1.8803,1.911,1.9412,1.9643,2.063,2.1683,2.2774,0.0,0.0,0.0,0.0,0.0,0.0,0.0,2.8002,2.8243,2.8391,2.851,2.851,2.851,2.855,2.8697,0.0,0.0,2.9935,3.0895,3.1806,3.2577,3.3302,3.3946,3.4317,3.4748,3.498,0.0,0.0,0.0,0.0,0.0,0.0,0.0,0.0,-1.6217,-1.6304,0.0,-1.5092,0.0,0.0,0.0,0.0,0.0,-1.0902,0.0,0.0,-0.7611,-0.6951,-0.6954,-0.6957,-0.6954,-0.6951,-0.6957,-0.7048,-0.7227,-0.7042,0.0,0.0,0.0,0.0,0.0,0.0,-0.5085,-0.4131,-0.5083,-0.5584,-0.5636,-0.6584,-0.6634,-0.5584,-0.4533,-0.35,-0.2456,-0.2304,-0.1734,-0.0464,-0.0185,0.0,0.0,0.0,0.0,0.0,0.0,0.0,0.0,0.0,0.0,0.0,0.0,0.0,0.0,0.0,0.0,0.0,0.0,0.0,0.0,1.3167,0.0,0.0,0.0,0.0,0.0,0.0,0.0,0.0,0.0,0.0,1.8053,1.8769,1.9295,1.9354,0.0,0.0,0.0,0.0,2.4478,2.6174,2.6445,2.6652,2.7103,2.7534,2.7841,2.7893,0.0,0.0,2.851,2.851,2.851,2.851,2.8657,2.8843,2.904,2.9909,3.0833,3.1709,3.2605,3.343,3.4225,3.4545,3.4704,-2.2926,0.0,0.0,0.0,0.0,-1.8726,-1.7522,-1.6217,-1.594,-1.5568,-1.514,-1.458,0.0,0.0,0.0,0.0,0.0,0.0,-1.0364,-0.9312,-0.8972,-0.844,-0.7664,-0.7668,-0.7668,-0.7668,-0.7668,-0.7713,-0.7762,-0.7717,-0.7664,-0.7513,0.0,0.0,0.0,0.0,-0.4876,-0.4628,-0.4878,-0.5027,-0.5027,-0.5327,-0.5227,-0.473,-0.3527,-0.2716,-0.2402,-0.168,-0.1074,-0.0724,-0.0619,0.0,0.0,0.0,0.0,0.0,0.0,0.0,0.0,0.0,0.0,0.0,0.0,0.0,0.0,0.0,0.0,0.0,0.0,0.0,1.2733,1.3275,1.3881,0.0,0.0,0.0,0.0,0.0,0.0,0.0,0.0,0.0,1.7837,1.8633,1.9391,0.0,0.0,2.1686,2.277,2.3879,2.4754,2.5274,0.0,0.0,0.0,2.6816,2.7126,2.78,2.8231,2.851,2.851,2.851,2.851,2.851,2.855,2.8618,2.8697,2.9118,3.0203,3.1905,3.234,3.2886,3.4655,3.5131,3.527,-2.1995,-2.1504,-2.0943,-2.0238,-1.9381,-1.8253,-1.6926,-1.554,-1.5382,-1.4956,-1.4298,-1.4298,-1.4298,-1.425,-1.3173,0.0,0.0,0.0,-0.9998,-0.897,-0.8973,-0.8627,-0.8038,-0.7988,-0.7988,-0.7988,-0.7988,-0.7988,-0.7988,-0.7988,-0.7747,-0.7266,0.0,0.0,-0.5729,-0.4678,-0.3974,-0.3574,-0.3976,-0.4175,-0.4175,-0.4175,-0.4076,-0.3927,-0.2723,-0.207,-0.207,-0.1449,-0.1089,-0.0982,-0.0971,-0.0143,0.0,0.0,0.0,0.0,0.0,0.0,0.0,0.0,0.0,0.0,0.0,1.0236,0.0,0.0,0.0,0.0,1.2391,1.2619,1.2443,1.296,0.0,0.0,0.0,0.0,0.0,0.0,0.0,1.7387,1.7337,1.7458,1.7954,1.8591,1.9192,1.9762,2.0501,2.1429,2.2746,0.0,2.4456,2.5211,2.5644,2.5979,2.6207,2.6404,2.6816,2.776,2.8243,2.8471,2.851,2.851,2.851,2.851,2.851,2.8657,2.9118,2.9223,2.9793,3.1796,3.2204,3.2914,3.4957,3.5581,3.5923,-2.1482,-2.1386,-2.1289,-2.0459,-1.9156,-1.7858,-1.6481,-1.5152,-1.4861,-1.4611,-1.4358,-1.434,-1.422,-1.4004,-1.3022,0.0,-1.0877,-0.9903,-0.8973,-0.7988,-0.7988,-0.7988,-0.7988,-0.7988,-0.7988,-0.7988,-0.7988,-0.7988,-0.7988,-0.7988,-0.7441,-0.6437,-0.6284,-0.5732,-0.4674,-0.3624,-0.2572,-0.1617,-0.2572,-0.3073,-0.3123,-0.3123,-0.3175,-0.3224,-0.2221,-0.1718,-0.1718,-0.1667,-0.1553,-0.133,-0.1279,-0.0341,0.148,0.0,0.0,0.0,0.0,0.0,0.0,0.0,0.0,0.0,0.0,0.0,0.0,0.0,0.0,0.0,1.2272,0.0,1.1929,1.2314,0.0,0.0,0.0,1.435,1.5985,1.5533,1.5821,1.7553,0.0,0.0,1.8253,0.0,1.8846,1.8974,1.9754,2.0997,2.2877,2.3173,2.3844,2.5591,2.5895,2.5895,2.5937,2.6249,2.6775,2.7679,2.8191,2.8431,2.8471,2.851,2.851,2.851,2.851,2.8895,3.0012,2.9805,2.9998,3.1458,3.2253,3.3275,3.5195,3.6025,3.6591,-2.3005,-2.2153,-2.1344,-1.9922,-1.8114,-1.7018,-1.6101,-1.5388,-1.5332,-1.5158,-1.4902,-1.4708,-1.3656,-1.1907,-1.1658,-1.0534,-0.8775,-0.8482,-0.8237,-0.7988,-0.7988,-0.7988,-0.7988,-0.7988,-0.7988,-0.7988,-0.7988,-0.7988,-0.7988,-0.7988,-0.7437,-0.6387,-0.5577,-0.4626,-0.3574,-0.2521,-0.1869,-0.1617,-0.1869,-0.217,-0.2572,-0.2572,-0.2773,-0.3179,-0.2978,-0.2827,-0.2827,-0.2423,-0.2165,-0.2106,-0.1705,-0.1045,0.0,0.063,0.0,0.0,0.0,0.0,0.0,0.0,0.0,0.0,0.0,0.85,0.8882,0.0,1.0348,0.0,1.0794,1.0832,1.0702,1.1574,0.0,0.0,1.3492,1.4261,1.4892,1.5229,1.5931,1.7198,1.7266,1.7591,1.8577,1.8726,1.8796,1.8854,1.9844,2.1186,2.2833,2.3574,2.436,2.5591,2.5895,2.5895,2.5937,2.6207,2.6693,2.7278,2.7736,2.8163,2.8431,2.851,2.851,2.855,2.8895,2.9275,2.9625,3.0199,3.1254,3.2516,3.3046,3.3924,3.6302,3.6968,3.7244,-2.2047,-2.0928,-1.9849,-1.867,-1.749,-1.6757,-1.6151,-1.5673,-1.5543,-1.5348,-1.5044,-1.4313,-1.327,-1.1993,-1.0967,-0.985,-0.8726,-0.8233,-0.7988,-0.7988,-0.7988,-0.7988,-0.7988,-0.7988,-0.7988,-0.7988,-0.7988,-0.7988,-0.7988,-0.7537,-0.6736,-0.5679,-0.4626,-0.3574,-0.2521,-0.1869,-0.1566,-0.1566,-0.1566,-0.1768,-0.2019,-0.2019,-0.2322,-0.2826,-0.2625,-0.2575,-0.2826,-0.2322,-0.207,-0.2019,-0.1768,-0.1106,0.0,0.0443,0.1317,0.0,0.0,0.0,0.0,0.0,0.0,0.0,0.0,0.0,0.0,0.0,0.8877,0.0,0.9789,1.0328,1.0157,1.1266,1.2143,1.2512,1.3106,1.3835,1.4657,1.504,1.5836,1.7255,1.743,1.7773,1.8665,1.8781,1.8781,1.8827,1.984,2.1123,2.2463,2.312,2.3953,2.5591,2.5895,2.5895,2.5895,2.626,2.664,2.7092,2.7574,2.8042,2.8431,2.851,2.859,2.8843,2.9184,2.97,3.0419,3.1113,3.2196,3.395,3.4538,3.5227,3.6909,3.752,3.7839,-2.0261,-1.9124,-1.8199,-1.7529,-1.7107,-1.6853,-1.6386,-1.5906,-1.571,-1.5434,-1.5086,-1.3741,-1.3054,-1.2762,-1.0573,-0.9509,-0.9316,-0.8428,-0.7988,-0.7988,-0.7988,-0.7988,-0.7988,-0.7988,-0.7988,-0.7988,-0.7988,-0.7988,-0.7988,-0.6939,-0.5882,-0.4774,-0.3723,-0.2672,-0.1617,-0.1566,-0.1566,-0.1566,-0.1566,-0.1617,-0.1667,-0.1718,-0.1969,-0.2472,-0.207,-0.202,-0.2472,-0.1969,-0.1718,-0.1717,-0.1667,-0.0908,0.0554,0.0695,0.1426,0.0,0.3623,0.0,0.0,0.0,0.0,0.0,0.0,0.0,0.0,0.7238,0.7282,0.6879,0.8963,1.0196,0.9885,1.1096,1.2145,1.2585,1.2728,1.3331,1.4703,1.4928,1.5578,1.7336,1.7544,1.7831,1.8689,1.8781,1.8781,1.9004,1.9886,2.1078,2.2224,2.2663,2.3554,2.5591,2.5895,2.5895,2.5937,2.6177,2.6558,2.7103,2.7482,2.7962,2.8443,2.851,2.8697,2.9236,2.9532,3.0226,3.1807,3.2234,3.3288,3.5505,3.6037,3.6415,3.7255,3.7825,3.8188,-2.0261,-1.9176,-1.8968,-1.8094,-1.6783,-1.6732,-1.6501,-1.6243,-1.6141,-1.5888,-1.5357,-1.4004,-1.2866,-1.1764,-1.0281,-0.9118,-0.8283,-0.8088,-0.7988,-0.7988,-0.7988,-0.7988,-0.7988,-0.7988,-0.7988,-0.7988,-0.7988,-0.7988,-0.7988,-0.6939,-0.5832,-0.4774,-0.3725,-0.2672,-0.1667,0.0,0.0,0.0,-0.1566,-0.1818,-0.222,-0.227,-0.2522,-0.3029,-0.2978,0.0,-0.3029,-0.2522,-0.227,-0.222,-0.1818,0.0,0.0,0.0,0.0,0.0,0.0,0.0,0.0,0.0,0.0,0.0,0.5571,0.6059,0.6945,0.7127,0.7177,0.7227,0.813,0.8981,0.9536,1.0675,1.1698,1.239,1.2791,1.3403,1.4326,1.4458,1.5048,1.6615,1.6817,1.7326,1.8589,1.8781,1.8966,1.9363,2.0113,2.1221,2.2726,2.3391,2.4307,2.5633,2.5895,2.5895,2.5895,2.5979,2.6332,2.6992,2.7237,2.7644,2.8299,2.851,2.8697,2.9314,3.0198,3.1087,3.1976,3.3232,3.4566,3.5885,3.6497,3.708,3.7841,3.8115,3.8202,-1.9332,0.0,-1.8199,-1.7523,0.0,-1.653,-1.6371,-1.6111,-1.6111,-1.5978,-1.5557,-1.361,-1.2413,-1.1674,-0.973,-0.8528,-0.7988,-0.7988,-0.7988,-0.7988,-0.7988,-0.7988,-0.7988,-0.7988,-0.7988,-0.7988,-0.7988,-0.7736,-0.7185,-0.6132,-0.5079,-0.4024,-0.2923,-0.212,-0.1617,-0.1566,-0.1566,-0.1566,-0.1566,-0.1718,-0.1969,-0.2019,-0.2271,-0.2775,0.0,0.0,0.0,0.0,0.0,0.0,0.0,0.0,0.0,0.0,0.0,0.3324,0.4242,0.4864,0.5109,0.5363,0.5628,0.5871,0.5871,0.6064,0.6567,0.6599,0.6788,0.7265,0.803,0.8788,0.9592,1.0626,1.1635,1.2464,1.2809,1.3295,1.4178,1.4627,1.5296,1.6393,1.6911,1.7606,1.8643,1.8781,1.9004,1.9592,2.0737,2.1836,2.2911,2.3651,2.4531,2.5675,2.5895,2.5895,2.5895,2.5895,2.6177,2.6981,2.7174,2.7551,2.8351,2.8736,2.904,2.9456,3.0624,3.1836,3.2487,3.379,3.5159,3.6227,3.6806,3.725,3.8014,3.8202,3.8202,-1.8153,-1.712,-1.7126,-1.6808,-1.6271,-1.6271,-1.6158,-1.5885,0.0,0.0,0.0,-1.282,-1.17,-1.1517,-0.9125,-0.7988,-0.7988,-0.7988,-0.7988,-0.7988,-0.7988,-0.7988,-0.7988,-0.7988,-0.7988,-0.7988,-0.7988,-0.7437,-0.6387,-0.5327,-0.4275,-0.3173,-0.212,-0.1566,-0.1566,-0.1566,-0.1566,-0.1566,-0.1566,-0.1566,-0.1566,-0.1566,-0.1818,-0.222,-0.1818,-0.1818,-0.2221,-0.1818,-0.1516,-0.1364,-0.0758,0.0101,0.1108,0.2216,0.3222,0.4232,0.5083,0.5636,0.5734,0.6137,0.6387,0.6387,0.6387,0.6306,0.6159,0.6149,0.648,0.7289,0.8158,0.8954,0.9738,1.0648,1.1634,1.2662,1.2807,1.3195,1.4148,1.4819,1.5486,1.644,1.7091,1.7831,1.8643,1.892,1.9142,1.982,2.1177,2.2673,2.3304,2.4059,2.484,2.5728,2.5895,2.5895,2.5979,2.6021,2.6343,2.7196,2.7348,2.7603,2.8339,2.9,2.9456,2.9788,3.1126,3.2369,3.3198,3.4244,3.5403,3.6738,3.6978,3.725,3.7976,3.8318,3.842,-1.7213,-1.6783,-1.6789,-1.6583,-1.6271,-1.6271,-1.6158,-1.5832,-1.4863,-1.4439,-1.4239,-1.1615,-1.0452,-1.0383,-0.8722,-0.7988,-0.7988,-0.7988,-0.7988,0.0,-0.7988,-0.7988,-0.7988,-0.7988,-0.7988,-0.7988,-0.7988,-0.7437,-0.6384,-0.5327,-0.4275,-0.3175,-0.212,-0.1566,-0.1566,-0.1566,-0.1566,-0.1566,-0.1566,-0.1566,-0.1566,-0.1566,-0.1617,-0.1718,-0.1617,-0.1617,-0.1718,-0.1617,-0.1263,-0.0606,-0.0455,0.0504,0.2367,0.2719,0.3574,0.5183,0.5534,0.5784,0.6234,0.6337,0.6387,0.6387,0.6387,0.6371,0.6341,0.6388,0.6682,0.7473,0.8273,0.9087,0.9932,1.0739,1.1634,1.2613,1.2807,1.3195,1.4202,1.4436,1.5057,1.6447,1.6676,1.7333,1.8635,1.9188,1.9646,2.0238,2.1418,2.2692,2.4274,2.5242,2.5633,2.5853,2.5895,2.6063,2.629,2.6404,2.6787,2.7679,2.7771,2.7968,2.857,2.915,2.9824,3.0776,3.198,3.3158,3.4203,3.5061,3.5879,3.6822,3.7031,3.7289,3.8066,3.8638,3.903,-1.6743,-1.6477,-1.6471,-1.6318,-1.6111,-1.6111,-1.5678,-1.4863,-1.3722,-1.3619,-1.3901,-1.1353,-1.0192,-1.0059,-0.8672,-0.7988,-0.7988,-0.7988,-0.7988,-0.7988,-0.7988,-0.7988,-0.7988,-0.7988,-0.7988,-0.7988,-0.7988,-0.7135,-0.5629,-0.5024,-0.3974,-0.2421,-0.1818,-0.1566,-0.1566,-0.1566,-0.1566,-0.1566,-0.1566,-0.1566,-0.1566,-0.1566,-0.1566,-0.1566,-0.1212,-0.096,-0.096,-0.0505,0.0,0.0655,0.1109,0.1913,0.3169,0.3924,0.468,0.5536,0.5887,0.6134,0.6387,0.6387,0.6387,0.6387,0.6387,0.6387,0.6387,0.6387,0.6734,0.7531,0.8326,0.9122,0.9916,1.0998,1.1932,1.271,1.3007,1.3485,1.4202,1.4675,1.5343,1.6447,1.6951,1.7699,1.9096,1.9463,1.9911,2.0645,2.1952,2.3574,2.5168,2.5675,2.5906,2.5895,2.5895,2.6093,2.6404,2.6487,2.6899,2.776,2.8116,2.8571,2.9265,2.992,3.0603,3.1533,3.2645,3.3555,3.43,3.5316,3.6201,3.6797,3.7187,3.7558,3.8153,3.8971,3.9755,-1.6477,-1.6217,-1.6217,-1.6111,-1.5885,-1.5885,-1.525,-1.411,-1.2911,-1.2797,-1.3014,-1.0879,-0.9812,-0.9641,-0.8503,-0.7988,-0.7988,-0.7988,-0.7988,-0.7988,-0.7988,-0.7988,-0.7988,-0.7988,-0.7988,-0.7939,-0.7686,-0.6578,-0.4872,-0.4422,-0.3323,-0.1616,-0.1415,-0.1415,-0.1415,-0.1415,-0.1415,-0.1415,-0.1415,-0.1465,-0.1566,-0.1566,-0.1516,-0.1313,-0.0758,-0.0252,0.005,0.0655,0.1309,0.2012,0.2667,0.3271,0.4024,0.5029,0.5646,0.5818,0.6226,0.6438,0.6516,0.6468,0.6468,0.6518,0.6518,0.6521,0.6468,0.6521,0.6693,0.7347,0.8326,0.927,0.9965,1.1292,1.237,1.291,1.3298,1.3678,1.425,1.4962,1.5724,1.6487,1.7232,1.8156,1.9225,1.9691,2.0147,2.1132,2.2702,2.4231,2.52,2.5644,2.5917,2.6142,2.614,2.6326,2.6681,2.6998,2.7449,2.8227,2.8716,2.9289,3.0069,3.0704,3.1439,3.2203,3.3249,3.4153,3.45,3.5424,3.6494,3.7031,3.738,3.7787,3.8625,3.9581,4.0408,-1.6158,-1.5945,-1.5945,-1.5945,-1.5832,-1.5891,-1.519,-1.4002,-1.2906,-1.1869,-1.0895,-0.9352,-0.8623,-0.8432,-0.8123,-0.8002,-0.7998,-0.7992,-0.7992,-0.7988,-0.7988,-0.7988,-0.7988,-0.7988,-0.7988,-0.7786,-0.6783,-0.5627,-0.432,-0.3218,-0.2065,-0.101,-0.0909,-0.0909,-0.0909,-0.0859,-0.0859,-0.0859,-0.0859,-0.1111,-0.1566,-0.1566,-0.1263,-0.0505,-0.0404,0.0202,0.1359,0.1509,0.2113,0.3268,0.3473,0.4126,0.5236,0.5539,0.5884,0.6441,0.6551,0.6649,0.6752,0.6771,0.6757,0.6768,0.6755,0.6752,0.6749,0.6755,0.6668,0.6947,0.8372,0.9521,0.9756,1.1526,1.2856,1.3298,1.3491,1.3732,1.4292,1.4962,1.5724,1.6487,1.7365,1.8195,1.9409,2.0011,2.0645,2.1678,2.2887,2.3973,2.4466,2.5349,2.6261,2.6819,2.6769,2.6922,2.7622,2.8166,2.8662,2.9553,2.987,3.0085,3.0443,3.1235,3.2109,3.2931,3.3819,3.49,3.5678,3.6391,3.6693,3.7293,3.7686,3.8083,3.9493,4.0423,4.0945,-1.5858,-1.5885,-1.5885,-1.5512,-1.4917,-1.4863,-1.3835,-1.2091,-1.1378,-1.0451,-0.9273,-0.8448,-0.8262,-0.852,-0.837,-0.8258,-0.8177,-0.8177,-0.8026,-0.7802,-0.7743,-0.7693,-0.754,-0.754,-0.7235,-0.6578,-0.6024,-0.4872,-0.3268,-0.2016,-0.1211,-0.0859,-0.0808,-0.0808,-0.0808,-0.0808,-0.0808,-0.0808,-0.0808,-0.0606,-0.0252,-0.0202,-0.005,0.0404,0.136,0.2164,0.277,0.3304,0.399,0.481,0.4961,0.5406,0.6238,0.629,0.6417,0.667,0.6728,0.6747,0.6798,0.6804,0.6804,0.6804,0.6957,0.7037,0.6914,0.7113,0.7135,0.7133,0.86,0.9967,1.0757,1.2257,1.3292,1.3539,1.3775,1.4202,1.4867,1.5622,1.6386,1.7185,1.8203,1.9088,1.992,2.0645,2.1579,2.2633,2.3531,2.4016,2.485,2.5786,2.6515,2.718,2.7513,2.8065,2.8684,2.8942,2.9408,2.9947,3.0362,3.0616,3.119,3.1782,3.2718,3.3744,3.4579,3.5397,3.6136,3.6825,3.7293,3.7706,3.8309,3.8895,3.9905,4.0626,4.1134,-1.5656,-1.5814,-1.5506,-1.4643,-1.3619,-1.3506,-1.2304,-1.0562,-1.0178,-0.9352,-0.8234,-0.7952,-0.8061,-0.8419,-0.8305,-0.8216,-0.8133,-0.8123,-0.7914,-0.7617,-0.7607,-0.7301,-0.6836,-0.6799,-0.6226,-0.5258,-0.4732,-0.362,-0.1813,-0.1009,-0.0556,-0.0606,-0.0606,-0.0608,-0.056,-0.0611,-0.0561,-0.0513,-0.0308,0.0307,0.1075,0.1688,0.1887,0.1777,0.294,0.3808,0.424,0.492,0.553,0.6049,0.6178,0.6381,0.6748,0.6804,0.6817,0.6853,0.6885,0.6899,0.6899,0.7006,0.6992,0.7015,0.7219,0.7326,0.7223,0.7398,0.7795,0.8421,0.9388,1.0538,1.1311,1.2797,1.3678,1.3732,1.4112,1.458,1.5289,1.6197,1.7037,1.787,1.8942,1.9965,2.0464,2.1186,2.2078,2.3169,2.3627,2.4274,2.555,2.632,2.7056,2.7756,2.8574,2.9164,2.9554,2.978,2.9974,3.0426,3.0946,3.1331,3.2005,3.2573,3.3232,3.4201,3.5047,3.579,3.6468,3.7148,3.7663,3.7959,3.8597,3.9494,4.0017,4.0757,4.1453,-1.565,-1.5654,-1.4352,-1.3166,-1.2091,-1.1746,-1.0988,-0.9743,-0.9743,-0.9078,-0.8082,-0.7971,-0.7977,-0.8011,-0.7779,-0.7651,-0.7641,-0.7694,-0.7629,-0.7555,-0.7506,-0.6934,-0.5867,-0.5827,-0.5208,-0.3967,-0.2953,-0.1668,-0.0253,0.0,-0.005,0.0,0.0,0.0,0.0,0.0,-0.0052,0.0106,0.1005,0.1694,0.2064,0.3861,0.4405,0.3782,0.3771,0.4527,0.5652,0.5891,0.6215,0.6743,0.6756,0.6762,0.6812,0.6812,0.6866,0.7024,0.7122,0.7182,0.723,0.7378,0.7503,0.7416,0.7582,0.771,0.7565,0.7599,0.8464,1.0521,1.0637,1.0929,1.1208,1.298,1.416,1.4202,1.425,1.4627,1.5384,1.6553,1.7529,1.838,1.95,2.0419,2.0907,2.1419,2.2043,2.2828,2.343,2.4284,2.555,2.6607,2.7714,2.8889,2.9675,3.0126,3.0213,3.0442,3.0973,3.124,3.1412,3.1772,3.2519,3.3202,3.3882,3.4675,3.5615,3.635,3.6861,3.7327,3.7711,3.8256,3.9175,3.99,4.0075,4.1221,4.1889,-1.4848,-1.4213,-1.3663,-1.2358,-1.0613,-1.0449,-0.9735,-0.8702,-0.8484,-0.8152,-0.7768,-0.7546,-0.7487,-0.7482,-0.7396,-0.7473,-0.7719,-0.7716,-0.7567,-0.7284,-0.6585,-0.5893,-0.5303,-0.4532,-0.3577,-0.2524,-0.1989,-0.1149,0.0,0.0,0.0,0.0,0.0,0.0,0.0,0.0,0.0371,0.1117,0.1594,0.2497,0.3775,0.4778,0.5373,0.5831,0.5769,0.5965,0.6484,0.6607,0.6759,0.6918,0.6986,0.7081,0.7081,0.7027,0.7158,0.7364,0.7339,0.7368,0.7577,0.7564,0.7562,0.757,0.7771,0.7868,0.7806,0.7927,0.8637,0.9904,1.0794,1.1285,1.2181,1.3414,1.4298,1.4298,1.4346,1.4902,1.6217,1.7055,1.7855,1.9309,2.0329,2.0907,2.132,2.1597,2.2167,2.3212,2.3681,2.4655,2.6257,2.7327,2.8362,2.9592,3.0314,3.0755,3.1153,3.1285,3.15,3.1597,3.1737,3.1757,3.222,3.3202,3.3924,3.4635,3.5723,3.6836,3.7303,3.7634,3.8028,3.8379,3.9305,3.9987,4.0089,4.1279,4.1874,-1.3795,-1.2733,-1.2195,-1.0882,-0.914,-0.8975,-0.8478,-0.7768,-0.7549,-0.7493,-0.7438,-0.7268,-0.721,-0.721,-0.721,-0.7334,-0.7583,-0.7577,-0.7476,-0.713,-0.5943,-0.5078,-0.4425,-0.3329,-0.2144,-0.1234,-0.1068,-0.0693,0.0,0.0,0.0,0.0,0.0,0.0,0.0,0.0,0.0431,0.1134,0.1568,0.2756,0.4484,0.5078,0.5865,0.685,0.7069,0.7025,0.6915,0.6997,0.7037,0.7106,0.7227,0.736,0.7375,0.7333,0.7425,0.7583,0.7507,0.7511,0.7716,0.7749,0.7734,0.7688,0.7942,0.804,0.7954,0.839,0.913,1.0031,1.1072,1.2096,1.3071,1.3902,1.4298,1.4298,1.4394,1.5188,1.7016,1.7522,1.8642,2.0266,2.1006,2.1365,2.1642,2.1687,2.2378,2.3627,2.4031,2.5196,2.7053,2.8282,2.91,3.0201,3.0837,3.1231,3.1456,3.1553,3.1597,3.1681,3.1705,3.1749,3.2176,3.3159,3.4066,3.4733,3.5762,3.695,3.7687,3.7976,3.8243,3.8492,3.9276,4.0118,4.0612,4.1337,4.1831,-1.2571,-1.1324,-0.9944,-0.8854,-0.7823,-0.7543,-0.7265,-0.7268,-0.7265,-0.7268,-0.7268,-0.721,-0.721,-0.721,-0.721,-0.7204,-0.7252,-0.7135,-0.7019,-0.6898,-0.5791,-0.4623,-0.3506,-0.2306,-0.1202,0.0,0.0,0.0,0.0,0.0,0.0,0.0,0.0,0.0,0.0,0.0,0.0055,0.0501,0.1448,0.2564,0.3634,0.4893,0.6051,0.7064,0.7381,0.743,0.7224,0.7182,0.7227,0.723,0.7462,0.7645,0.7681,0.7636,0.7613,0.7625,0.7601,0.7595,0.7648,0.7886,0.7907,0.7875,0.8108,0.8208,0.8342,0.8947,0.9969,1.1077,1.1999,1.3022,1.3956,1.4298,1.4346,1.4346,1.4538,1.5391,1.7016,1.8025,1.9231,2.1087,2.1597,2.1687,2.1687,2.1687,2.229,2.36,2.4602,2.586,2.7753,2.9094,3.0174,3.0814,3.1249,3.1548,3.1661,3.1705,3.1705,3.1705,3.1705,3.1793,3.2525,3.3416,3.4374,3.517,3.6478,3.7634,3.7863,3.8208,3.8513,3.8855,3.9639,4.0292,4.0902,4.1468,4.1845,-1.1705,-0.9739,-0.9244,-0.8367,-0.7379,-0.7268,-0.721,-0.721,-0.721,-0.721,-0.721,-0.721,-0.721,-0.721,-0.721,-0.721,-0.7154,-0.6429,-0.5984,-0.5761,-0.4698,-0.3525,-0.2348,-0.117,-0.0389,0.0,0.0,0.0,0.0,0.0,0.0,0.0,0.0,0.0,0.0,0.0,0.0335,0.1287,0.2406,0.3563,0.4678,0.5882,0.6725,0.7133,0.7285,0.7338,0.7451,0.7528,0.7585,0.7463,0.7559,0.7594,0.7656,0.7619,0.77,0.7846,0.7761,0.7869,0.8014,0.8037,0.7968,0.7969,0.8062,0.8435,0.8981,0.941,1.044,1.1901,1.2533,1.3216,1.425,1.4592,1.4586,1.4544,1.4688,1.5622,1.7755,1.9559,2.0808,2.1454,2.1687,2.1687,2.1687,2.1687,2.2388,2.4001,2.4923,2.6216,2.8428,2.9707,3.0545,3.1273,3.1589,3.1705,3.1705,3.1705,3.1705,3.1705,3.1705,3.1837,3.2612,3.3687,3.465,3.5869,3.713,3.7863,3.8089,3.8391,3.8696,3.9131,3.977,4.0379,4.0989,4.1482,4.1932,-1.0449,-0.892,-0.8426,-0.7873,-0.721,-0.721,-0.721,-0.721,-0.721,-0.721,-0.721,-0.721,-0.721,-0.721,-0.721,-0.721,-0.7041,-0.5929,-0.5148,-0.4587,-0.3467,-0.2518,-0.1679,-0.056,0.0,0.0,0.0,0.0,0.0,0.0,0.0,0.0,0.0,0.0,0.0,0.0111,0.0722,0.183,0.2698,0.3876,0.5248,0.6156,0.6824,0.7232,0.7431,0.7565,0.7691,0.7864,0.784,0.7641,0.7654,0.7731,0.7832,0.7788,0.7808,0.7943,0.7932,0.7975,0.8174,0.8056,0.7988,0.8038,0.8382,0.8825,0.9604,1.0092,1.1463,1.2387,1.3119,1.3655,1.449,1.4688,1.4783,1.4968,1.5022,1.6042,1.8265,2.0393,2.1553,2.1687,2.1687,2.1687,2.1687,2.1874,2.2685,2.4357,2.549,2.6769,2.9026,3.03,3.1057,3.1533,3.1625,3.1705,3.1705,3.1705,3.1705,3.1705,3.1705,3.1893,3.2363,3.3801,3.502,3.6464,3.7848,3.7976,3.8217,3.8565,3.8913,3.9421,4.0046,4.0757,4.1424,4.1729,4.2078,-0.8868,-0.8647,-0.7651,-0.7265,-0.721,-0.721,-0.721,-0.721,-0.721,-0.721,-0.721,-0.721,-0.721,-0.721,-0.721,-0.7099,-0.6874,-0.5704,-0.4475,-0.3357,-0.2239,-0.1512,-0.1344,-0.0448,0.0,0.0,0.0,0.0,0.0,0.0,0.0,0.0,0.0,0.0,0.0168,0.0332,0.0989,0.1974,0.2485,0.3805,0.5709,0.602,0.6542,0.7598,0.7833,0.7878,0.7895,0.808,0.802,0.7691,0.7743,0.7942,0.818,0.8116,0.7972,0.7979,0.7998,0.8002,0.7995,0.7998,0.8088,0.8283,0.897,0.9706,1.0145,1.1458,1.2484,1.3022,1.3757,1.4394,1.4688,1.4831,1.507,1.554,1.5866,1.6889,1.865,2.0583,2.1553,2.1687,2.1687,2.1687,2.1705,2.1956,2.3167,2.4903,2.632,2.79,2.9669,3.0858,3.1484,3.1705,3.1705,3.1705,3.1705,3.1705,3.1705,3.1705,3.1793,3.2025,3.2525,3.3998,3.5386,3.6883,3.8,3.8127,3.8405,3.8797,3.9378,4.0046,4.0684,4.1352,4.1729,4.1976,4.1903,-0.8426,-0.7651,-0.7321,-0.721,-0.721,-0.721,-0.721,-0.721,-0.721,-0.721,-0.721,-0.721,-0.721,-0.721,-0.7154,-0.6763,-0.5815,-0.4643,-0.3244,-0.1903,-0.0728,-0.0336,-0.0448,-0.0168,0.0,0.0,0.0224,0.028,0.0336,0.0504,0.0617,0.0673,0.0617,0.0617,0.0672,0.0725,0.1392,0.25,0.354,0.4591,0.595,0.6912,0.752,0.7852,0.7969,0.8011,0.8102,0.8106,0.8059,0.7948,0.7925,0.7999,0.8052,0.8012,0.7988,0.7988,0.7988,0.7988,0.7988,0.7988,0.8333,0.9114,0.946,1.0239,1.1804,1.2339,1.3167,1.3902,1.449,1.4777,1.5159,1.5255,1.573,1.6709,1.7311,1.8272,1.9658,2.0898,2.1687,2.1687,2.1687,2.1696,2.1868,2.2294,2.3355,2.5275,2.6809,2.821,3.0003,3.1169,3.1705,3.1705,3.1705,3.1705,3.1705,3.1705,3.1705,3.1749,3.1881,3.2157,3.3018,3.4387,3.5682,3.6975,3.7848,3.8202,3.8667,3.9117,3.9857,4.0539,4.1004,4.1482,4.1802,4.2034,4.1671,-0.7817,-0.721,-0.721,-0.721,-0.721,-0.721,-0.721,-0.721,-0.721,-0.721,-0.7154,-0.7043,-0.6988,-0.6988,-0.6879,-0.6151,-0.4977,-0.3747,-0.2461,-0.1175,0.0,0.0448,0.0392,0.0392,0.0392,0.0392,0.0504,0.0617,0.0617,0.0785,0.0897,0.0841,0.0897,0.0897,0.0953,0.1612,0.2382,0.3588,0.4833,0.6035,0.7116,0.7751,0.8096,0.8276,0.8183,0.8253,0.8347,0.8272,0.8177,0.8032,0.7992,0.7988,0.7988,0.7988,0.7988,0.7988,0.7988,0.7988,0.7988,0.7988,0.8283,0.897,0.9608,1.0828,1.2047,1.2926,1.4046,1.4688,1.4885,1.507,1.5397,1.5588,1.6386,1.7638,1.8473,1.9201,2.0212,2.1087,2.1597,2.1687,2.1696,2.1868,2.2086,2.2572,2.3871,2.5599,2.7085,2.8623,3.0169,3.1071,3.1705,3.1705,3.1705,3.1705,3.1705,3.1705,3.1749,3.1793,3.1937,3.2245,3.3318,3.4594,3.5682,3.6766,3.7606,3.8391,3.8942,3.9494,4.0089,4.0684,4.1149,4.1453,4.1729,4.1816,4.1453,-0.7243,-0.7176,-0.7173,-0.7165,-0.7102,-0.7099,-0.7046,-0.7099,-0.7046,-0.7046,-0.699,-0.6771,-0.6543,-0.6487,-0.6044,-0.5371,-0.3967,-0.2852,-0.1789,-0.056,0.0504,0.1009,0.1009,0.0841,0.0785,0.0785,0.0897,0.0953,0.0953,0.1009,0.1009,0.1065,0.1065,0.1177,0.1622,0.254,0.372,0.4978,0.603,0.7183,0.8078,0.8451,0.8501,0.8538,0.8477,0.8433,0.8472,0.8445,0.8357,0.8052,0.8035,0.8052,0.8039,0.8019,0.8002,0.7992,0.7988,0.7988,0.8088,0.8184,0.8432,0.9019,1.0534,1.1609,1.249,1.3757,1.4736,1.5124,1.5131,1.5267,1.5547,1.5778,1.685,1.8288,1.8834,1.9438,2.0346,2.1203,2.1705,2.1751,2.1805,2.2133,2.2618,2.3218,2.4088,2.6288,2.7621,2.897,3.0287,3.1243,3.1661,3.1705,3.1705,3.1705,3.1705,3.1705,3.1793,3.1837,3.2038,3.2419,3.3403,3.4553,3.5588,3.6596,3.7438,3.8366,3.9305,3.9857,4.0365,4.1004,4.1599,4.157,4.1497,4.1424,4.1178,-0.7385,-0.7239,-0.7074,-0.6909,-0.6776,-0.6604,-0.6497,-0.6555,-0.6497,-0.6548,-0.6495,-0.6439,-0.5819,-0.5031,-0.4808,-0.3745,-0.1957,-0.1343,-0.056,0.0785,0.129,0.157,0.1514,0.1177,0.0953,0.0953,0.1121,0.1234,0.1234,0.1458,0.1627,0.157,0.1682,0.2073,0.2907,0.3453,0.4559,0.622,0.6968,0.7661,0.859,0.8811,0.8815,0.8818,0.8733,0.8608,0.8506,0.8535,0.8448,0.8404,0.8387,0.8367,0.8265,0.8235,0.8191,0.8113,0.8072,0.8058,0.8194,0.9,0.9957,1.0721,1.1962,1.3414,1.4298,1.4629,1.515,1.5363,1.5397,1.5558,1.5803,1.6508,1.7525,1.8651,1.9558,2.0466,2.1508,2.1744,2.1861,2.2116,2.2399,2.2675,2.3168,2.3852,2.5102,2.6967,2.8222,2.9398,3.0383,3.1327,3.1617,3.1705,3.1705,3.1705,3.1705,3.1749,3.1837,3.1981,3.2169,3.2431,3.3416,3.4498,3.5548,3.6425,3.7232,3.8294,3.9528,4.0017,4.0495,4.1265,4.1932,4.1773,4.1584,4.1323,4.0902,-0.7013,-0.6899,-0.6787,-0.6697,-0.6583,-0.6424,-0.6341,-0.6331,-0.6291,-0.6272,-0.6105,-0.5599,-0.4869,-0.4195,-0.3523,-0.2182,-0.0672,0.0168,0.0728,0.1458,0.1739,0.1795,0.1739,0.1514,0.1346,0.1346,0.1458,0.1514,0.157,0.1683,0.1795,0.1906,0.2297,0.2911,0.3804,0.4641,0.5864,0.6924,0.7709,0.8325,0.8826,0.894,0.8988,0.9045,0.9022,0.8977,0.8927,0.8913,0.8869,0.8869,0.8838,0.8746,0.8516,0.8476,0.8428,0.8377,0.8508,0.8764,0.9188,0.9961,1.0924,1.1949,1.3209,1.4112,1.4961,1.536,1.5813,1.5996,1.6058,1.6155,1.6288,1.7209,1.8195,1.9178,2.0204,2.1386,2.2336,2.23,2.2208,2.2621,2.288,2.3336,2.39,2.4507,2.5498,2.704,2.8099,2.9236,3.0214,3.1092,3.1572,3.1705,3.1705,3.1705,3.1705,3.1793,3.1937,3.2113,3.2313,3.2605,3.3185,3.4304,3.5494,3.6294,3.7127,3.8658,3.9784,4.0205,4.0742,4.1526,4.199,4.1903,4.1671,4.1279,4.08,-0.6558,-0.6544,-0.6485,-0.6478,-0.6392,-0.6309,-0.6219,-0.626,-0.6245,-0.5935,-0.568,-0.4494,-0.3823,-0.3136,-0.2071,-0.0896,0.028,0.1121,0.1683,0.1739,0.1795,0.1795,0.1795,0.1739,0.1739,0.1795,0.1739,0.1739,0.1739,0.1851,0.1962,0.2185,0.3023,0.387,0.4599,0.5949,0.7211,0.7747,0.8432,0.8877,0.8986,0.9042,0.91,0.9181,0.9272,0.9252,0.9275,0.9265,0.9315,0.9243,0.9286,0.9217,0.9173,0.877,0.8897,0.8923,0.9334,0.9834,1.0664,1.1335,1.2157,1.2812,1.4027,1.4788,1.5331,1.5871,1.6271,1.654,1.6577,1.657,1.675,1.7894,1.8874,1.9813,2.0914,2.2176,2.2989,2.2889,2.2945,2.3299,2.3598,2.3956,2.4402,2.4977,2.5994,2.7028,2.8079,2.9096,3.0113,3.0913,3.1439,3.1717,3.1705,3.1946,3.1994,3.2176,3.2273,3.2592,3.2751,3.2903,3.3356,3.4703,3.5886,3.6234,3.72,3.8803,4.0017,4.0481,4.1091,4.1831,4.2049,4.1976,4.1642,4.1221,4.0815,-0.6735,-0.6653,-0.6414,-0.6248,-0.6122,-0.5862,-0.5737,-0.5737,-0.5654,-0.509,-0.4175,-0.3826,-0.2439,-0.1126,-0.0505,0.0393,0.1237,0.1685,0.1795,0.1795,0.1797,0.1799,0.18,0.1806,0.1802,0.1795,0.1799,0.1802,0.1798,0.1851,0.2424,0.3142,0.3703,0.4622,0.6141,0.7242,0.8025,0.8603,0.908,0.9259,0.9316,0.9377,0.9373,0.9411,0.9377,0.9349,0.9358,0.9374,0.9384,0.9362,0.958,1.0227,1.0414,0.9534,0.9433,1.0253,1.0546,1.1173,1.2237,1.3413,1.405,1.4648,1.5524,1.6187,1.6389,1.6496,1.672,1.6737,1.6774,1.674,1.6757,1.8414,1.9413,2.0232,2.1521,2.2944,2.3575,2.3746,2.3785,2.4145,2.4383,2.4526,2.4958,2.5421,2.6257,2.7175,2.8183,2.9383,3.0588,3.1205,3.1596,3.1729,3.1705,3.2042,3.2298,3.2596,3.2836,3.3281,3.3469,3.3456,3.4152,3.5429,3.6333,3.662,3.7672,3.9297,4.0205,4.0771,4.1323,4.1961,4.2034,4.2049,4.1802,4.1526,4.1294,-0.6318,-0.6276,-0.6153,-0.6068,-0.5964,-0.5794,-0.5297,-0.4695,-0.4603,-0.3864,-0.2795,-0.1974,-0.1158,0.0,0.0805,0.1319,0.1648,0.18,0.1795,0.1797,0.181,0.1819,0.1822,0.1832,0.184,0.1842,0.1842,0.1888,0.1878,0.258,0.3095,0.3848,0.4875,0.6331,0.7402,0.8111,0.8727,0.9378,0.9442,0.9497,0.9671,0.9783,0.9813,0.9735,0.9742,0.9788,0.977,0.9845,0.9807,0.9752,0.9839,1.0218,1.0323,1.0296,1.0167,1.1751,1.2224,1.2776,1.382,1.4844,1.5441,1.607,1.6781,1.711,1.7161,1.7181,1.7128,1.7141,1.7154,1.7161,1.7233,1.9091,2.0211,2.0916,2.2394,2.3775,2.4417,2.4571,2.4716,2.4842,2.4909,2.5054,2.5315,2.5858,2.6494,2.7342,2.8308,2.9567,3.0913,3.1478,3.1874,3.2151,3.2235,3.2548,3.2895,3.3138,3.35,3.3949,3.4152,3.4143,3.473,3.5967,3.6567,3.6905,3.8277,4.0101,4.0612,4.125,4.1671,4.2005,4.2034,4.2063,4.202,4.186,4.1628,-0.5919,-0.5919,-0.5919,-0.5919,-0.5843,-0.5534,-0.4838,-0.392,-0.3463,-0.2609,-0.1359,-0.0473,0.0118,0.0647,0.1351,0.1871,0.179,0.1823,0.1819,0.1823,0.1838,0.1849,0.1857,0.187,0.188,0.1934,0.2418,0.2113,0.2089,0.303,0.3812,0.4738,0.6618,0.7935,0.8294,0.9127,0.9542,0.96,0.9658,0.9768,0.9968,1.0181,1.0249,1.0065,1.0211,1.018,1.0158,1.0201,1.0134,1.0066,1.0144,1.0393,1.0606,1.0684,1.1836,1.3777,1.4082,1.4418,1.5386,1.5884,1.6529,1.7009,1.7397,1.7569,1.7555,1.7488,1.7535,1.7589,1.7555,1.7732,1.8154,1.9716,2.0939,2.1887,2.324,2.4667,2.4973,2.5168,2.5256,2.5373,2.543,2.5499,2.5664,2.5868,2.6428,2.7615,2.8588,2.9612,3.0859,3.1702,3.213,3.2587,3.2921,3.3186,3.353,3.3776,3.4203,3.474,3.4777,3.4744,3.5481,3.6429,3.69,3.757,3.9575,4.1207,4.1482,4.1584,4.1874,4.2049,4.2078,4.2078,4.2049,4.2049,4.1918,-0.5919,-0.5919,-0.5857,-0.5919,-0.5669,-0.4603,-0.4048,-0.3676,-0.2567,-0.1458,-0.018,0.0,0.0716,0.1421,0.1712,0.1885,0.1877,0.1866,0.1857,0.1853,0.1864,0.187,0.1935,0.1882,0.212,0.2359,0.3157,0.2856,0.2885,0.3644,0.4534,0.5712,0.7245,0.8549,0.9537,0.9987,1.0406,1.034,1.0329,1.0318,1.0258,1.0286,1.0321,1.0272,1.0205,1.0149,1.019,1.0279,1.0291,1.0323,1.0516,1.1636,1.3166,1.3599,1.4888,1.5672,1.5517,1.4756,1.667,1.7153,1.7206,1.7483,1.7589,1.7589,1.7589,1.7589,1.7589,1.7589,1.7589,1.8048,1.8819,2.0107,2.1387,2.2551,2.3759,2.4735,2.5186,2.544,2.5538,2.5664,2.5674,2.5664,2.5771,2.6005,2.6342,2.7626,2.883,2.984,3.0911,3.1877,3.2678,3.3172,3.3617,3.3953,3.4263,3.4511,3.4775,3.5377,3.5425,3.5349,3.5978,3.6707,3.7698,3.873,4.0645,4.1633,4.1599,4.17,4.199,4.2092,4.2092,4.2092,4.2092,4.2092,4.2092,-0.5235,-0.5855,-0.5112,-0.474,-0.4616,-0.3384,-0.24,-0.1662,-0.1108,-0.0123,0.0917,0.1161,0.1461,0.1869,0.1922,0.1901,0.1885,0.187,0.1849,0.1905,0.1913,0.1979,0.2096,0.2228,0.2414,0.3418,0.402,0.4547,0.454,0.5429,0.6561,0.7135,0.8402,0.9527,1.0284,1.0395,1.0416,1.0401,1.0507,1.0497,1.0498,1.0558,1.0633,1.0539,1.0408,1.0381,1.0409,1.0477,1.0527,1.0692,1.1177,1.1987,1.3063,1.376,1.4888,1.618,1.5642,1.5861,1.7259,1.7536,1.7589,1.7589,1.7589,1.7589,1.7589,1.7589,1.7589,1.7589,1.7589,1.8206,1.9332,2.0459,2.1828,2.3103,2.4301,2.4881,2.5391,2.545,2.5606,2.5742,2.5898,2.6035,2.6055,2.6055,2.6552,2.7704,2.8947,3.0003,3.1252,3.2475,3.3227,3.3891,3.4302,3.4689,3.5013,3.5311,3.5369,3.5792,3.5968,3.6015,3.6273,3.6987,3.7954,3.8894,4.0179,4.0928,4.1396,4.1787,4.2049,4.2092,4.2092,4.2092,4.2092,4.2092,4.2092,-0.4,-0.4803,-0.3816,-0.3446,-0.3322,-0.2031,-0.0985,-0.0062,0.037,0.1046,0.1718,0.1894,0.1951,0.1949,0.1925,0.1962,0.2002,0.192,0.2013,0.2004,0.2067,0.2259,0.2504,0.2698,0.3528,0.4698,0.552,0.5983,0.6845,0.7748,0.8316,0.8423,0.9416,1.0174,1.0446,1.0612,1.0597,1.059,1.0642,1.0613,1.0579,1.0783,1.0766,1.0745,1.0692,1.0692,1.0692,1.0692,1.0692,1.1337,1.1823,1.2635,1.3599,1.446,1.5316,1.6371,1.6361,1.6763,1.743,1.7662,1.7602,1.7589,1.7589,1.7589,1.7589,1.7589,1.7589,1.7589,1.7694,1.8513,1.9746,2.092,2.2291,2.3655,2.4947,2.5418,2.5839,2.5956,2.6083,2.6288,2.6455,2.6494,2.6455,2.625,2.6782,2.7886,2.8992,3.0239,3.1629,3.3138,3.3731,3.4328,3.4689,3.5064,3.5377,3.5702,3.5895,3.6098,3.6275,3.638,3.6492,3.7119,3.8047,3.9009,3.9885,4.0831,4.1654,4.1893,4.2092,4.2092,4.2092,4.2092,4.2092,4.2092,4.2092,-0.2155,-0.2216,-0.2154,-0.2093,-0.2031,-0.0677,-0.0062,0.0246,0.1355,0.1772,0.1932,0.1909,0.196,0.1955,0.2016,0.2126,0.2296,0.2236,0.2393,0.2566,0.2758,0.2741,0.3149,0.3793,0.4571,0.5331,0.6672,0.7724,0.8427,0.9347,0.9195,0.8681,0.9928,1.0497,1.0771,1.0854,1.0894,1.0807,1.0823,1.0747,1.075,1.0789,1.0765,1.0745,1.0712,1.0696,1.07,1.0906,1.1304,1.2124,1.2781,1.3707,1.4982,1.5618,1.6442,1.7068,1.7479,1.7726,1.7922,1.7836,1.7649,1.7609,1.7642,1.7716,1.7749,1.7642,1.7609,1.7742,1.7922,1.9112,2.0457,2.1658,2.2883,2.4559,2.5695,2.5941,2.6316,2.6571,2.6697,2.6885,2.6953,2.6973,2.7316,2.7209,2.7749,2.8864,3.0363,3.1577,3.2674,3.3959,3.427,3.4667,3.5005,3.5283,3.5584,3.586,3.6098,3.6228,3.637,3.6417,3.6439,3.7222,3.7808,3.8765,3.9593,4.0731,4.1731,4.1897,4.2036,4.2092,4.2092,4.2092,4.2092,4.2092,4.2092,-0.0308,0.0432,0.0432,0.0,-0.0677,0.0611,0.1156,0.1214,0.1687,0.2035,0.2142,0.2186,0.2298,0.2414,0.2471,0.2459,0.2558,0.2555,0.2659,0.2693,0.2744,0.3256,0.3946,0.4789,0.5781,0.7125,0.8554,0.9531,1.017,1.0586,1.0582,1.0444,1.0452,1.0619,1.0899,1.1041,1.1045,1.1029,1.1005,1.1017,1.1017,1.1017,1.1017,1.1017,1.1017,1.1017,1.1134,1.1863,1.2361,1.307,1.4224,1.5435,1.6363,1.6976,1.7533,1.8042,1.825,1.8303,1.8317,1.8196,1.815,1.8143,1.815,1.8116,1.8124,1.8171,1.813,1.8252,1.8469,1.9747,2.1647,2.2501,2.3548,2.5474,2.647,2.6627,2.6814,2.7009,2.7168,2.7236,2.7344,2.7422,2.7893,2.8293,2.9069,2.9937,3.1461,3.2848,3.3755,3.4426,3.4643,3.4884,3.5187,3.5512,3.58,3.6038,3.6288,3.6323,3.6417,3.6417,3.6417,3.6452,3.7129,3.8179,3.9197,4.0144,4.1001,4.1675,4.1995,4.2051,4.2092,4.2092,4.2092,4.2092,4.2092,0.1295,0.2099,0.2285,0.1666,0.0801,0.1647,0.2065,0.2122,0.2165,0.2323,0.2491,0.2482,0.2591,0.2767,0.2823,0.2872,0.2852,0.2901,0.2995,0.3041,0.3263,0.3697,0.4564,0.5625,0.6779,0.866,0.981,1.0466,1.0989,1.1162,1.1047,1.0954,1.0886,1.0907,1.1009,1.1045,1.1045,1.1082,1.1143,1.122,1.1208,1.1204,1.12,1.1306,1.1581,1.1862,1.2192,1.2923,1.3891,1.4636,1.567,1.677,1.7458,1.7978,1.838,1.8524,1.8577,1.8611,1.8611,1.8531,1.8497,1.8417,1.843,1.8499,1.8601,1.8657,1.8611,1.8858,1.9366,2.059,2.2782,2.3476,2.4548,2.6359,2.6987,2.7217,2.7295,2.7451,2.751,2.7568,2.7705,2.7894,2.8281,2.8842,3.0172,3.118,3.2667,3.3692,3.4197,3.4667,3.4776,3.5078,3.5356,3.5704,3.6038,3.6181,3.6323,3.637,3.6417,3.6417,3.6417,3.6417,3.6734,3.7841,3.8765,3.9549,4.0446,4.1437,4.1856,4.2092,4.2092,4.2092,4.2092,4.2092,4.2092,0.2405,0.2528,0.2837,0.2531,0.1975,0.2342,0.246,0.2514,0.2753,0.2853,0.2873,0.2843,0.2884,0.2943,0.3061,0.3114,0.3287,0.3286,0.3397,0.3565,0.3556,0.3807,0.4862,0.6206,0.7616,0.8139,0.971,1.1089,1.1277,1.1321,1.1297,1.1289,1.1235,1.117,1.122,1.1216,1.1216,1.1224,1.124,1.1281,1.1293,1.1305,1.1313,1.1487,1.2067,1.2427,1.3053,1.4021,1.5061,1.6148,1.6714,1.7628,1.8295,1.8456,1.8617,1.8611,1.8811,1.8905,1.8905,1.8657,1.866,1.8631,1.8698,1.8769,1.8884,1.8974,1.9098,1.9417,2.0479,2.1759,2.3204,2.4491,2.5776,2.6791,2.7435,2.7666,2.7734,2.7793,2.7851,2.7871,2.8076,2.8359,2.8711,2.9377,3.0987,3.2414,3.3909,3.4617,3.4726,3.492,3.4969,3.5271,3.5524,3.58,3.6086,3.6263,3.6358,3.6405,3.6417,3.6417,3.6417,3.6417,3.6909,3.7671,3.8554,3.9417,4.0403,4.1395,4.1717,4.2092,4.2092,4.2092,4.2092,4.2092,4.2092,0.2837,0.2837,0.296,0.2901,0.2649,0.2745,0.2795,0.2789,0.2885,0.3042,0.3146,0.3183,0.3297,0.3414,0.348,0.3541,0.3597,0.3651,0.3768,0.3831,0.4014,0.5053,0.6064,0.7177,0.8502,0.996,1.1319,1.1561,1.1606,1.1553,1.1573,1.1589,1.152,1.1443,1.1325,1.1313,1.1407,1.1435,1.1512,1.1598,1.1585,1.1637,1.1628,1.1684,1.2263,1.2958,1.3761,1.5025,1.6195,1.7301,1.7824,1.8599,1.9011,1.9068,1.9089,1.9102,1.9199,1.9212,1.9269,1.9226,1.9307,1.9159,1.9132,1.9232,1.9444,1.9508,1.9678,2.0252,2.1476,2.2679,2.3876,2.5262,2.6554,2.754,2.8076,2.8076,2.8115,2.8154,2.8193,2.8174,2.8291,2.8751,2.9154,2.967,3.1051,3.2224,3.3511,3.4421,3.4677,3.4969,3.5163,3.5476,3.5729,3.5955,3.6133,3.6323,3.6358,3.6417,3.6417,3.6417,3.6417,3.6417,3.6546,3.7049,3.8192,3.9387,4.0374,4.1269,4.1773,4.2092,4.2092,4.2092,4.2092,4.2092,4.2092,0.3146,0.3208,0.3269,0.3331,0.3265,0.3173,0.316,0.3214,0.3246,0.3352,0.3475,0.3535,0.3596,0.3775,0.3833,0.3833,0.3892,0.4369,0.4546,0.4604,0.5141,0.6222,0.7313,0.8224,0.9228,1.0842,1.1567,1.176,1.174,1.1824,1.1752,1.174,1.1833,1.1634,1.152,1.1549,1.1598,1.1622,1.1687,1.1736,1.192,1.2165,1.2526,1.2817,1.3412,1.4361,1.5144,1.6161,1.7226,1.8169,1.8823,1.9424,1.9424,1.9424,1.9424,1.9424,1.9424,1.9417,1.9455,1.9615,1.9567,1.9537,1.9655,1.9815,2.004,2.0085,2.0279,2.0966,2.2232,2.3327,2.448,2.5963,2.7241,2.8281,2.8271,2.8262,2.8271,2.8291,2.8301,2.8301,2.8344,2.8847,2.9355,3.0182,3.1051,3.2033,3.3001,3.3869,3.4677,3.5017,3.532,3.5572,3.5824,3.6003,3.6146,3.6323,3.637,3.6417,3.6417,3.6417,3.6417,3.6417,3.6417,3.664,3.8056,3.9343,4.0374,4.1198,4.1814,4.2092,4.2092,4.2092,4.2092,4.2092,4.2092,0.3517,0.3579,0.3765,0.3888,0.3826,0.3574,0.3637,0.3887,0.3884,0.3881,0.3881,0.3873,0.3867,0.3939,0.4003,0.4119,0.4416,0.5393,0.5815,0.6183,0.6764,0.763,0.83,0.9102,0.9885,1.0393,1.1095,1.1837,1.1837,1.1837,1.1837,1.1837,1.1837,1.1723,1.1711,1.1711,1.1732,1.18,1.1808,1.1953,1.2311,1.2955,1.3435,1.4028,1.5149,1.6155,1.7044,1.7877,1.8648,1.9185,1.9366,1.9424,1.9424,1.9424,1.9424,1.9424,1.9424,1.9482,1.9533,1.9758,1.9924,1.9989,2.0162,2.0443,2.0551,2.0608,2.0838,2.1737,2.3071,2.4005,2.5058,2.6563,2.8023,2.8291,2.8291,2.8291,2.8291,2.8301,2.8301,2.8301,2.8301,2.8548,2.8804,2.9576,3.1206,3.1931,3.2951,3.4164,3.4872,3.5114,3.5416,3.5572,3.5824,3.6015,3.6193,3.6323,3.637,3.6417,3.6417,3.6417,3.6417,3.6417,3.6417,3.6849,3.8179,3.9431,4.083,4.1549,4.1912,4.2092,4.2092,4.2092,4.2092,4.2092,4.2092,0.3765,0.3826,0.3888,0.3888,0.3888,0.3826,0.3826,0.3888,0.3888,0.3888,0.3888,0.3888,0.4073,0.395,0.4867,0.5235,0.5845,0.6517,0.7121,0.7612,0.798,0.8526,0.9134,0.9744,1.0358,1.1035,1.1591,1.1837,1.1837,1.1837,1.1837,1.1837,1.1837,1.1837,1.1837,1.1837,1.1837,1.1837,1.1837,1.2311,1.2844,1.355,1.4262,1.5268,1.5983,1.6985,1.7753,1.7994,1.8648,1.9307,1.9366,1.9424,1.9424,1.9424,1.9424,1.943,1.954,1.97,1.9758,2.0148,2.0436,2.0443,2.068,2.0737,2.0788,2.0895,2.1288,2.2467,2.3855,2.4837,2.5781,2.706,2.813,2.8301,2.8301,2.8301,2.8301,2.8301,2.8301,2.8301,2.8301,2.8344,2.8548,3.0037,3.1524,3.2083,3.2951,3.4213,3.5017,3.5271,3.556,3.5752,3.5955,3.6193,3.6241,3.637,3.6417,3.6417,3.6417,3.6417,3.6417,3.6417,3.6417,3.7129,3.836,3.997,4.1633,4.2051,4.2092,4.2092,4.2092,4.2092,4.2092,4.2092,4.2092,0.3888,0.3888,0.3888,0.3888,0.3888,0.3888,0.4133,0.4502,0.4133,0.4133,0.4684,0.4747,0.4991,0.5663,0.6396,0.67,0.682,0.7978,0.8647,0.8769,0.9079,0.9933,1.0422,1.0604,1.1039,1.1651,1.1837,1.1837,1.1837,1.1837,1.1837,1.1837,1.1837,1.1837,1.1837,1.1837,1.1837,1.1837,1.1953,1.2603,1.3375,1.4202,1.5213,1.6161,1.6638,1.7467,1.8052,1.8169,1.8706,1.9307,1.9424,1.9424,1.9424,1.9475,1.9707,1.9764,1.9873,1.9989,2.0046,2.0378,2.0608,2.078,2.1031,2.1031,2.1246,2.146,2.2085,2.2974,2.4467,2.5735,2.6617,2.7457,2.7906,2.8301,2.8301,2.8301,2.8301,2.8301,2.8301,2.8301,2.8301,2.8301,2.9122,3.066,3.1728,3.2134,3.3051,3.4458,3.5114,3.5368,3.574,3.6026,3.6181,3.637,3.6417,3.6417,3.6417,3.6417,3.6417,3.6417,3.6417,3.6546,3.6722,3.7474,3.8541,4.01,4.1591,4.1953,4.2092,4.2092,4.2092,4.2092,4.2092,4.2092,4.2092,0.3888,0.3888,0.3888,0.4011,0.4074,0.4203,0.4882,0.5859,0.5017,0.4942,0.5974,0.6027,0.6639,0.7248,0.7797,0.8039,0.8407,0.9319,0.999,0.9933,1.0728,1.1345,1.1405,1.1776,1.1591,1.1716,1.1837,1.1837,1.1837,1.1837,1.1837,1.1837,1.1837,1.1837,1.1837,1.2191,1.2307,1.2367,1.2668,1.326,1.4083,1.509,1.6338,1.7578,1.8467,1.9249,1.9307,1.9366,1.9424,1.9424,1.9424,1.9424,1.9533,1.9642,1.9931,2.0162,2.027,2.0328,2.0385,2.0666,2.073,2.0845,2.1031,2.1153,2.1368,2.1645,2.215,2.3416,2.4846,2.6063,2.7006,2.7682,2.813,2.8301,2.8301,2.8301,2.8301,2.8301,2.8301,2.8301,2.8301,2.8291,2.8601,3.0047,3.1216,3.188,3.3051,3.4458,3.5271,3.5512,3.58,3.6168,3.631,3.6417,3.6417,3.6417,3.6417,3.6417,3.6417,3.6417,3.6417,3.6675,3.707,3.7828,3.863,3.9927,4.1184,4.1633,4.1995,4.2092,4.2092,4.2092,4.2092,4.2092,4.2092,0.3888,0.3888,0.3888,0.4439,0.5367,0.5607,0.638,0.7573,0.7403,0.7339,0.7457,0.75,0.7686,0.8255,0.9111,0.9419,0.9714,1.049,1.1171,1.119,1.1756,1.1853,1.1801,1.1845,1.1813,1.1837,1.1837,1.1877,1.1833,1.1817,1.1788,1.1792,1.1797,1.1865,1.2099,1.2625,1.3075,1.3255,1.4147,1.4565,1.5213,1.6391,1.7636,1.8532,1.9424,1.9424,1.9424,1.9424,1.9424,1.9424,1.9424,1.9533,1.97,1.9758,1.9982,2.027,2.05,2.0615,2.0673,2.0845,2.0967,2.1031,2.1146,2.1211,2.1318,2.1539,2.2312,2.3735,2.5113,2.6345,2.7295,2.7853,2.8301,2.8301,2.8301,2.8301,2.8301,2.8301,2.8301,2.8301,2.8301,2.8398,2.8611,2.9375,3.0494,3.1666,3.2889,3.4152,3.5211,3.5716,3.586,3.6133,3.6323,3.637,3.6417,3.6417,3.6417,3.6417,3.6417,3.6417,3.6417,3.6593,3.6849,3.775,3.8689,3.9796,4.0731,4.1549,4.1856,4.1995,4.2092,4.2092,4.2092,4.2092,4.2092,0.4272,0.4981,0.5636,0.6275,0.6969,0.7144,0.7922,0.8947,0.92,0.9469,0.9712,0.932,0.9258,0.9695,1.0631,1.0798,1.0925,1.1638,1.1855,1.1966,1.1983,1.2028,1.2012,1.1987,1.204,1.2016,1.2012,1.2028,1.1983,1.202,1.2028,1.2045,1.2008,1.2247,1.2656,1.35,1.4162,1.456,1.5828,1.6425,1.6478,1.7291,1.8175,1.901,1.9424,1.9424,1.9424,1.9424,1.9424,1.9482,1.9533,1.9873,2.0097,2.027,2.0392,2.0622,2.0852,2.096,2.0974,2.1118,2.1254,2.1269,2.1283,2.129,2.215,2.2425,2.2918,2.4347,2.6291,2.7628,2.7789,2.8237,2.8301,2.8301,2.8301,2.8301,2.8301,2.8301,2.8301,2.8301,2.8301,2.8291,2.8654,2.926,3.0432,3.1768,3.2939,3.4201,3.5211,3.5908,3.6003,3.6146,3.6323,3.637,3.6417,3.6417,3.6417,3.6417,3.6417,3.6417,3.6417,3.6417,3.6722,3.7533,3.8328,3.921,4.0144,4.1142,4.1773,4.1995,4.2051,4.2092,4.2092,4.2092,4.2092,0.5308,0.6625,0.7782,0.8461,0.8661,0.8675,0.9385,1.0471,1.0622,1.122,1.1924,1.1015,1.1453,1.1988,1.2304,1.2304,1.228,1.2148,1.2255,1.2268,1.2264,1.2219,1.2227,1.2268,1.2243,1.2239,1.2243,1.2247,1.2239,1.2549,1.2783,1.257,1.2798,1.3163,1.3901,1.4474,1.5116,1.6166,1.7185,1.7848,1.791,1.7778,1.8538,1.9068,1.9424,1.943,1.9482,1.958,1.9587,1.9591,1.9764,2.0097,2.0378,2.0551,2.0788,2.0974,2.1198,2.1263,2.1277,2.1365,2.1415,2.1393,2.1443,2.1994,2.2955,2.3739,2.4292,2.5389,2.7283,2.7989,2.815,2.8301,2.8301,2.8301,2.8301,2.8301,2.8301,2.8301,2.8301,2.8301,2.8301,2.8301,2.8698,2.9313,3.0432,3.1717,3.3039,3.4348,3.5416,3.5847,3.6193,3.6228,3.637,3.6417,3.6417,3.6417,3.6417,3.6417,3.6417,3.6417,3.6417,3.6417,3.664,3.7222,3.8069,3.8944,3.9826,4.0816,4.1367,4.1953,4.2051,4.2092,4.2092,4.2092,4.2092,0.7714,0.7991,0.8267,0.8979,0.9888,1.0121,1.0952,1.2081,1.2202,1.2538,1.2506,1.2502,1.2471,1.2312,1.2304,1.2328,1.2389,1.2369,1.2324,1.23,1.2377,1.2345,1.2345,1.241,1.2328,1.2341,1.2365,1.2324,1.2469,1.3306,1.3936,1.3887,1.51,1.552,1.588,1.6464,1.7205,1.8046,1.8848,1.9701,1.9655,1.945,1.9101,1.9424,1.9591,1.9707,1.987,2.0237,2.0285,2.0238,2.0183,2.0428,2.0686,2.0881,2.109,2.1292,2.1511,2.1584,2.1635,2.1987,2.2082,2.2252,2.2574,2.3565,2.4655,2.5808,2.6293,2.6738,2.7973,2.7873,2.8003,2.8203,2.8301,2.8301,2.8301,2.8301,2.8301,2.8301,2.8301,2.8301,2.8301,2.8291,2.8398,2.9207,3.0235,3.1564,3.2867,3.419,3.5512,3.5943,3.6323,3.637,3.6417,3.6417,3.6417,3.6417,3.6417,3.6417,3.6417,3.6417,3.6417,3.6417,3.6687,3.7049,3.7887,3.8854,3.9782,4.0403,4.1353,4.1912,4.1995,4.2092,4.2092,4.2092,4.2092]},{"header":{"parameterUnit":"m.s-1","parameterCategory":1,"la1":31.0,"la2":29.5877,"lo1":-88.7671,"lo2":-86.6584,"dy":0.0162,"dx":0.0185,"nx":115,"ny":88,"refTime":"2023-09-19T06:00:00:Z","depth":0,"parameterNumber":3,"parameterNumberName":"V-component_of_WINDS"},"data":[0.0,0.0,0.0,0.0,0.0,0.0,0.0,0.0,0.0,0.0,0.0,0.0,0.0,0.0,0.0,0.0,0.0,0.0,0.0,0.0,0.0,0.0,0.0,0.0,0.0,0.0,0.0,0.0,0.0,0.0,0.0,0.0,0.0,0.0,0.0,0.0,0.0,0.0,0.0,0.0,0.0,0.0,0.0,0.0,0.0,0.0,0.0,0.0,0.0,0.0,0.0,0.0,0.0,0.0,0.0,0.0,0.0,0.0,0.0,0.0,0.0,0.0,0.0,0.0,0.0,0.0,0.0,0.0,0.0,0.0,0.0,0.0,0.0,0.0,0.0,0.0,0.0,0.0,0.0,0.0,0.0,0.0,0.0,0.0,0.0,0.0,0.0,0.0,0.0,0.0,0.0,0.0,0.0,0.0,0.0,0.0,0.0,0.0,0.0,0.0,0.0,0.0,0.0,0.0,0.0,0.0,0.0,0.0,0.0,0.0,0.0,0.0,0.0,0.0,0.0,0.0,0.0,0.0,0.0,0.0,0.0,0.0,0.0,0.0,0.0,0.0,0.0,0.0,0.0,0.0,0.0,0.0,0.0,0.0,0.0,0.0,0.0,0.0,0.0,0.0,0.0,0.0,0.0,0.0,0.0,0.0,0.0,0.0,0.0,0.0,0.0,0.0,0.0,0.0,0.0,0.0,0.0,0.0,0.0,0.0,0.0,0.0,0.0,0.0,0.0,0.0,0.0,0.0,0.0,0.0,0.0,0.0,0.0,0.0,0.0,0.0,0.0,0.0,0.0,0.0,0.0,0.0,0.0,0.0,0.0,0.0,0.0,0.0,0.0,0.0,0.0,0.0,0.0,0.0,0.0,0.0,0.0,0.0,0.0,0.0,0.0,0.0,0.0,0.0,0.0,0.0,0.0,0.0,0.0,0.0,0.0,0.0,0.0,0.0,0.0,0.0,0.0,0.0,0.0,0.0,0.0,0.0,0.0,0.0,0.0,0.0,0.0,0.0,0.0,0.0,0.0,0.0,0.0,0.0,0.0,0.0,0.0,0.0,0.0,0.0,0.0,0.0,0.0,0.0,0.0,0.0,0.0,0.0,0.0,0.0,0.0,0.0,0.0,0.0,0.0,0.0,0.0,0.0,0.0,0.0,0.0,0.0,0.0,0.0,0.0,0.0,0.0,0.0,0.0,0.0,0.0,0.0,0.0,0.0,0.0,0.0,0.0,0.0,0.0,0.0,0.0,0.0,0.0,0.0,0.0,0.0,0.0,0.0,0.0,0.0,0.0,0.0,0.0,0.0,0.0,0.0,0.0,0.0,0.0,0.0,0.0,0.0,0.0,0.0,0.0,0.0,0.0,0.0,0.0,0.0,0.0,0.0,0.0,0.0,0.0,0.0,0.0,0.0,0.0,0.0,0.0,0.0,0.0,0.0,0.0,0.0,0.0,0.0,0.0,0.0,0.0,0.0,0.0,0.0,0.0,0.0,0.0,0.0,0.0,0.0,0.0,0.0,0.0,0.0,0.0,0.0,0.0,0.0,0.0,0.0,0.0,0.0,0.0,0.0,0.0,0.0,0.0,0.0,0.0,0.0,0.0,0.0,0.0,0.0,0.0,0.0,0.0,0.0,0.0,0.0,0.0,0.0,0.0,0.0,0.0,0.0,0.0,0.0,0.0,0.0,0.0,0.0,0.0,0.0,0.0,0.0,0.0,0.0,0.0,0.0,0.0,0.0,0.0,0.0,0.0,0.0,0.0,0.0,0.0,0.0,0.0,0.0,0.0,0.0,0.0,0.0,0.0,0.0,0.0,0.0,0.0,0.0,0.0,0.0,0.0,0.0,0.0,0.0,0.0,0.0,0.0,0.0,0.0,0.0,0.0,0.0,0.0,0.0,0.0,0.0,0.0,0.0,0.0,0.0,0.0,0.0,0.0,0.0,0.0,0.0,0.0,0.0,0.0,0.0,0.0,0.0,0.0,0.0,0.0,0.0,0.0,0.0,0.0,0.0,0.0,0.0,0.0,0.0,0.0,0.0,0.0,0.0,0.0,0.0,0.0,0.0,0.0,0.0,0.0,0.0,0.0,0.0,0.0,0.0,0.0,0.0,0.0,0.0,0.0,0.0,0.0,0.0,0.0,0.0,0.0,0.0,0.0,0.0,0.0,0.0,0.0,0.0,0.0,0.0,0.0,0.0,0.0,0.0,0.0,0.0,0.0,0.0,0.0,0.0,0.0,0.0,0.0,0.0,0.0,0.0,0.0,0.0,0.0,0.0,0.0,0.0,0.0,0.0,0.0,0.0,0.0,0.0,0.0,0.0,0.0,0.0,0.0,0.0,0.0,0.0,0.0,0.0,0.0,0.0,0.0,0.0,0.0,0.0,0.0,0.0,0.0,0.0,0.0,0.0,0.0,0.0,0.0,0.0,0.0,0.0,0.0,0.0,0.0,0.0,0.0,0.0,0.0,0.0,0.0,0.0,0.0,0.0,0.0,0.0,0.0,0.0,0.0,0.0,0.0,0.0,0.0,0.0,0.0,0.0,0.0,0.0,0.0,0.0,0.0,0.0,0.0,0.0,0.0,0.0,0.0,0.0,0.0,0.0,0.0,0.0,0.0,0.0,0.0,0.0,0.0,0.0,0.0,0.0,0.0,0.0,0.0,0.0,0.0,0.0,0.0,0.0,0.0,0.0,0.0,0.0,0.0,0.0,0.0,0.0,0.0,0.0,0.0,0.0,0.0,0.0,0.0,0.0,0.0,0.0,0.0,0.0,0.0,0.0,0.0,0.0,0.0,0.0,0.0,0.0,0.0,0.0,0.0,0.0,0.0,0.0,0.0,0.0,0.0,0.0,0.0,0.0,0.0,0.0,0.0,0.0,0.0,0.0,0.0,0.0,0.0,0.0,0.0,0.0,0.0,0.0,0.0,0.0,0.0,0.0,0.0,0.0,0.0,0.0,0.0,0.0,0.0,0.0,0.0,0.0,0.0,0.0,0.0,0.0,0.0,0.0,0.0,0.0,0.0,0.0,0.0,0.0,0.0,0.0,0.0,0.0,0.0,0.0,0.0,0.0,0.0,0.0,0.0,0.0,0.0,0.0,0.0,0.0,0.0,0.0,0.0,0.0,0.0,0.0,0.0,0.0,0.0,0.0,0.0,0.0,0.0,0.0,0.0,0.0,0.0,0.0,0.0,0.0,0.0,0.0,0.0,0.0,0.0,0.0,0.0,0.0,0.0,0.0,0.0,0.0,0.0,0.0,0.0,0.0,0.0,0.0,0.0,0.0,0.0,0.0,0.0,0.0,0.0,0.0,0.0,0.0,0.0,0.0,0.0,0.0,0.0,0.0,0.0,0.0,0.0,0.0,0.0,0.0,0.0,0.0,0.0,0.0,0.0,0.0,0.0,0.0,0.0,0.0,0.0,0.0,0.0,0.0,0.0,0.0,0.0,0.0,0.0,0.0,0.0,0.0,0.0,0.0,0.0,0.0,0.0,0.0,0.0,0.0,0.0,0.0,0.0,0.0,0.0,0.0,0.0,0.0,0.0,0.0,0.0,0.0,0.0,0.0,0.0,0.0,0.0,0.0,0.0,0.0,0.0,0.0,0.0,0.0,0.0,0.0,0.0,0.0,0.0,0.0,0.0,0.0,0.0,0.0,0.0,0.0,0.0,0.0,0.0,0.0,0.0,0.0,0.0,0.0,0.0,0.0,0.0,0.0,0.0,0.0,0.0,0.0,0.0,0.0,0.0,0.0,0.0,0.0,0.0,0.0,0.0,0.0,0.0,0.0,0.0,0.0,0.0,0.0,0.0,0.0,0.0,0.0,0.0,0.0,0.0,0.0,0.0,0.0,0.0,0.0,0.0,0.0,0.0,0.0,0.0,0.0,0.0,0.0,0.0,0.0,0.0,0.0,0.0,0.0,0.0,0.0,0.0,0.0,0.0,0.0,0.0,0.0,0.0,0.0,0.0,0.0,0.0,0.0,0.0,0.0,0.0,0.0,0.0,0.0,0.0,0.0,0.0,0.0,0.0,0.0,0.0,0.0,0.0,0.0,0.0,0.0,0.0,0.0,0.0,0.0,0.0,0.0,0.0,0.0,0.0,0.0,0.0,0.0,0.0,0.0,0.0,0.0,0.0,0.0,0.0,0.0,0.0,0.0,0.0,0.0,0.0,0.0,0.0,0.0,0.0,0.0,0.0,0.0,0.0,0.0,0.0,0.0,0.0,0.0,0.0,0.0,0.0,0.0,0.0,0.0,0.0,0.0,0.0,0.0,3.1205,0.0,0.0,0.0,0.0,0.0,0.0,0.0,0.0,0.0,0.0,0.0,0.0,0.0,0.0,0.0,0.0,0.0,0.0,0.0,0.0,0.0,0.0,0.0,0.0,0.0,0.0,0.0,0.0,0.0,0.0,0.0,0.0,0.0,0.0,0.0,0.0,0.0,0.0,0.0,0.0,0.0,0.0,0.0,0.0,0.0,0.0,0.0,0.0,0.0,0.0,0.0,0.0,0.0,0.0,0.0,0.0,0.0,0.0,0.0,0.0,0.0,0.0,0.0,0.0,0.0,0.0,0.0,0.0,0.0,0.0,0.0,0.0,0.0,0.0,0.0,0.0,0.0,0.0,0.0,0.0,0.0,0.0,0.0,0.0,0.0,0.0,0.0,0.0,0.0,0.0,0.0,0.0,0.0,0.0,0.0,0.0,0.0,0.0,0.0,0.0,0.0,0.0,0.0,0.0,0.0,0.0,0.0,0.0,0.0,0.0,3.4066,3.2933,3.3229,3.2908,3.1853,0.0,0.0,0.0,0.0,0.0,0.0,0.0,0.0,0.0,0.0,0.0,0.0,0.0,0.0,0.0,0.0,0.0,0.0,0.0,0.0,0.0,0.0,0.0,0.0,0.0,0.0,0.0,0.0,0.0,0.0,0.0,0.0,0.0,0.0,0.0,0.0,0.0,0.0,0.0,0.0,0.0,0.0,0.0,0.0,0.0,0.0,0.0,0.0,0.0,0.0,0.0,0.0,0.0,0.0,0.0,0.0,0.0,0.0,0.0,0.0,0.0,0.0,0.0,0.0,0.0,0.0,0.0,0.0,0.0,0.0,0.0,0.0,0.0,0.0,0.0,0.0,0.0,0.0,0.0,0.0,0.0,0.0,0.0,0.0,0.0,0.0,0.0,0.0,0.0,0.0,0.0,0.0,0.0,0.0,0.0,0.0,0.0,0.0,0.0,0.0,0.0,0.0,0.0,0.0,0.0,0.0,0.0,0.0,0.0,0.0,0.0,0.0,3.4201,3.3816,3.2378,0.0,0.0,0.0,0.0,0.0,0.0,0.0,0.0,0.0,0.0,0.0,0.0,0.0,0.0,0.0,0.0,0.0,0.0,0.0,0.0,0.0,0.0,0.0,0.0,0.0,0.0,0.0,0.0,0.0,0.0,0.0,0.0,0.0,0.0,0.0,0.0,0.0,0.0,0.0,0.0,0.0,0.0,0.0,0.0,0.0,0.0,0.0,0.0,0.0,0.0,0.0,0.0,0.0,0.0,0.0,0.0,0.0,0.0,0.0,0.0,0.0,0.0,0.0,0.0,0.0,0.0,0.0,0.0,0.0,0.0,0.0,0.0,0.0,0.0,0.0,0.0,0.0,0.0,0.0,0.0,0.0,0.0,0.0,0.0,0.0,0.0,0.0,0.0,0.0,0.0,0.0,0.0,0.0,0.0,0.0,0.0,0.0,0.0,0.0,0.0,0.0,0.0,0.0,0.0,0.0,0.0,0.0,0.0,0.0,0.0,3.5651,3.4443,3.4477,0.0,3.2429,0.0,0.0,0.0,0.0,0.0,0.0,0.0,0.0,0.0,0.0,0.0,0.0,0.0,0.0,0.0,0.0,0.0,0.0,0.0,0.0,0.0,0.0,0.0,0.0,0.0,0.0,0.0,0.0,0.0,0.0,0.0,0.0,0.0,0.0,0.0,0.0,0.0,0.0,0.0,0.0,0.0,0.0,0.0,0.0,0.0,0.0,0.0,0.0,0.0,0.0,0.0,0.0,0.0,0.0,0.0,0.0,0.0,0.0,0.0,0.0,0.0,0.0,0.0,0.0,0.0,0.0,0.0,0.0,0.0,0.0,0.0,0.0,0.0,0.0,0.0,0.0,0.0,0.0,0.0,0.0,0.0,0.0,0.0,0.0,0.0,0.0,0.0,0.0,0.0,0.0,0.0,0.0,0.0,0.0,0.0,0.0,0.0,0.0,0.0,0.0,0.0,0.0,0.0,0.0,0.0,0.0,0.0,0.0,0.0,0.0,3.642,3.5928,3.5512,3.4733,0.0,0.0,0.0,0.0,0.0,0.0,0.0,0.0,0.0,0.0,0.0,0.0,0.0,0.0,0.0,0.0,0.0,0.0,0.0,0.0,0.0,0.0,0.0,0.0,0.0,0.0,0.0,0.0,0.0,0.0,0.0,0.0,0.0,0.0,0.0,0.0,0.0,0.0,0.0,0.0,0.0,0.0,0.0,0.0,0.0,0.0,0.0,0.0,0.0,0.0,0.0,0.0,0.0,0.0,0.0,0.0,0.0,0.0,0.0,0.0,0.0,0.0,0.0,0.0,0.0,0.0,0.0,0.0,0.0,0.0,0.0,0.0,0.0,0.0,0.0,0.0,0.0,0.0,0.0,0.0,0.0,0.0,0.0,0.0,0.0,0.0,0.0,0.0,0.0,0.0,0.0,0.0,0.0,0.0,0.0,0.0,0.0,0.0,0.0,0.0,0.0,0.0,0.0,0.0,0.0,0.0,0.0,0.0,0.0,0.0,3.686,3.7017,3.6865,3.6375,3.5734,3.486,0.0,0.0,0.0,0.0,0.0,0.0,0.0,0.0,0.0,0.0,0.0,0.0,0.0,0.0,0.0,0.0,0.0,0.0,0.0,0.0,0.0,0.0,0.0,0.0,0.0,0.0,0.0,0.0,0.0,0.0,0.0,0.0,0.0,0.0,0.0,0.0,0.0,0.0,0.0,0.0,0.0,0.0,0.0,0.0,0.0,0.0,0.0,0.0,0.0,0.0,0.0,0.0,0.0,0.0,0.0,0.0,0.0,0.0,0.0,0.0,0.0,0.0,0.0,0.0,0.0,0.0,0.0,0.0,0.0,0.0,0.0,0.0,0.0,0.0,0.0,0.0,0.0,0.0,0.0,0.0,0.0,0.0,0.0,0.0,0.0,0.0,0.0,0.0,0.0,0.0,0.0,0.0,0.0,0.0,0.0,0.0,0.0,0.0,0.0,0.0,0.0,0.0,0.0,0.0,0.0,0.0,0.0,0.0,3.69,3.7265,3.7284,3.6919,3.6865,3.6531,0.0,0.0,0.0,0.0,0.0,0.0,0.0,0.0,0.0,0.0,0.0,0.0,0.0,0.0,0.0,0.0,0.0,0.0,0.0,0.0,0.0,0.0,0.0,0.0,0.0,0.0,0.0,0.0,0.0,0.0,0.0,0.0,0.0,0.0,0.0,0.0,0.0,0.0,0.0,0.0,0.0,0.0,0.0,0.0,0.0,0.0,0.0,0.0,0.0,0.0,0.0,0.0,0.0,0.0,0.0,0.0,0.0,0.0,0.0,0.0,0.0,0.0,0.0,0.0,0.0,0.0,0.0,0.0,0.0,0.0,0.0,0.0,0.0,0.0,0.0,0.0,0.0,0.0,0.0,0.0,0.0,0.0,0.0,0.0,0.0,0.0,0.0,0.0,0.0,0.0,0.0,0.0,0.0,0.0,0.0,0.0,0.0,0.0,0.0,0.0,0.0,0.0,0.0,0.0,0.0,0.0,0.0,0.0,0.0,3.7321,3.7721,3.7757,3.7321,3.7577,3.7343,0.0,0.0,0.0,0.0,0.0,0.0,0.0,0.0,0.0,0.0,0.0,0.0,0.0,0.0,0.0,0.0,0.0,0.0,0.0,0.0,0.0,0.0,0.0,0.0,0.0,0.0,0.0,0.0,0.0,0.0,0.0,0.0,0.0,0.0,0.0,0.0,0.0,0.0,0.0,0.0,0.0,0.0,0.0,0.0,0.0,0.0,0.0,0.0,0.0,0.0,0.0,0.0,0.0,0.0,0.0,0.0,0.0,0.0,0.0,0.0,0.0,0.0,0.0,0.0,0.0,0.0,0.0,0.0,0.0,0.0,0.0,0.0,0.0,0.0,0.0,0.0,0.0,0.0,0.0,0.0,0.0,0.0,0.0,0.0,0.0,0.0,0.0,0.0,0.0,0.0,0.0,0.0,0.0,0.0,0.0,0.0,0.0,0.0,0.0,0.0,0.0,0.0,0.0,0.0,0.0,0.0,0.0,0.0,0.0,3.7739,0.0,3.8037,3.7685,3.8002,3.7898,0.0,0.0,0.0,0.0,0.0,0.0,0.0,0.0,0.0,0.0,0.0,0.0,0.0,0.0,0.0,0.0,0.0,0.0,0.0,0.0,0.0,0.0,0.0,0.0,0.0,0.0,0.0,0.0,0.0,0.0,0.0,0.0,0.0,0.0,0.0,0.0,0.0,0.0,0.0,0.0,0.0,0.0,0.0,0.0,0.0,0.0,0.0,0.0,0.0,0.0,0.0,0.0,0.0,0.0,0.0,0.0,0.0,0.0,0.0,0.0,0.0,0.0,0.0,0.0,0.0,0.0,0.0,0.0,0.0,0.0,0.0,0.0,0.0,0.0,0.0,0.0,0.0,0.0,0.0,0.0,0.0,0.0,0.0,0.0,0.0,0.0,0.0,0.0,0.0,0.0,0.0,0.0,0.0,0.0,0.0,0.0,0.0,0.0,0.0,0.0,0.0,0.0,0.0,0.0,0.0,0.0,0.0,0.0,3.8191,3.8192,3.8207,3.8172,3.8001,3.8139,3.8157,0.0,0.0,0.0,0.0,0.0,0.0,0.0,0.0,0.0,0.0,0.0,0.0,0.0,0.0,0.0,0.0,0.0,0.0,0.0,0.0,0.0,0.0,0.0,0.0,0.0,0.0,0.0,0.0,0.0,0.0,0.0,0.0,0.0,0.0,0.0,0.0,0.0,0.0,0.0,0.0,0.0,0.0,0.0,0.0,0.0,0.0,0.0,0.0,0.0,0.0,0.0,0.0,0.0,0.0,0.0,0.0,0.0,0.0,0.0,0.0,0.0,0.0,0.0,0.0,0.0,0.0,0.0,0.0,0.0,0.0,0.0,0.0,0.0,0.0,0.0,0.0,0.0,0.0,0.0,0.0,0.0,0.0,0.0,0.0,0.0,0.0,0.0,0.0,0.0,0.0,0.0,0.0,0.0,0.0,0.0,0.0,0.0,0.0,0.0,0.0,0.0,0.0,0.0,0.0,0.0,0.0,0.0,0.0,0.0,3.8225,3.8551,3.864,3.8428,3.8444,3.8462,0.0,0.0,0.0,0.0,0.0,0.0,0.0,0.0,0.0,0.0,0.0,0.0,0.0,0.0,0.0,0.0,0.0,0.0,0.0,0.0,0.0,0.0,0.0,0.0,0.0,0.0,0.0,0.0,0.0,0.0,0.0,0.0,0.0,0.0,0.0,0.0,0.0,0.0,0.0,0.0,0.0,0.0,0.0,0.0,0.0,0.0,0.0,0.0,0.0,0.0,0.0,0.0,0.0,0.0,0.0,0.0,0.0,0.0,0.0,0.0,0.0,0.0,0.0,0.0,0.0,0.0,0.0,0.0,0.0,0.0,0.0,0.0,0.0,0.0,0.0,0.0,0.0,0.0,0.0,0.0,0.0,0.0,0.0,0.0,0.0,0.0,0.0,0.0,0.0,0.0,0.0,0.0,0.0,0.0,0.0,0.0,0.0,0.0,0.0,0.0,0.0,0.0,0.0,0.0,0.0,0.0,0.0,0.0,0.0,3.8538,3.8847,3.8915,3.8733,3.8643,3.8585,3.8572,0.0,0.0,0.0,0.0,0.0,0.0,0.0,0.0,0.0,0.0,0.0,0.0,0.0,0.0,0.0,0.0,0.0,0.0,0.0,0.0,0.0,0.0,0.0,0.0,0.0,0.0,0.0,0.0,0.0,0.0,0.0,0.0,0.0,0.0,0.0,0.0,0.0,0.0,0.0,0.0,0.0,0.0,0.0,0.0,0.0,0.0,0.0,0.0,0.0,0.0,0.0,0.0,0.0,0.0,0.0,0.0,0.0,0.0,0.0,0.0,0.0,0.0,0.0,0.0,0.0,0.0,0.0,0.0,0.0,0.0,0.0,0.0,0.0,0.0,0.0,0.0,0.0,0.0,0.0,0.0,0.0,0.0,0.0,0.0,0.0,0.0,0.0,0.0,0.0,0.0,0.0,0.0,0.0,0.0,0.0,0.0,0.0,0.0,0.0,0.0,0.0,0.0,0.0,0.0,0.0,0.0,0.0,0.0,3.9082,3.9049,3.9022,3.8938,3.873,3.8585,0.0,0.0,0.0,0.0,0.0,0.0,0.0,0.0,0.0,0.0,0.0,0.0,0.0,0.0,0.0,0.0,0.0,0.0,0.0,0.0,0.0,0.0,0.0,0.0,0.0,0.0,0.0,0.0,0.0,0.0,0.0,0.0,0.0,0.0,0.0,0.0,0.0,0.0,0.0,0.0,0.0,0.0,0.0,0.0,0.0,0.0,0.0,0.0,0.0,0.0,0.0,0.0,0.0,0.0,0.0,0.0,0.0,0.0,0.0,0.0,0.0,0.0,0.0,0.0,0.0,0.0,0.0,0.0,0.0,0.0,0.0,0.0,0.0,0.0,0.0,0.0,0.0,0.0,0.0,0.0,0.0,0.0,0.0,0.0,0.0,0.0,0.0,0.0,0.0,0.0,0.0,0.0,0.0,0.0,0.0,0.0,0.0,0.0,0.0,0.0,0.0,0.0,0.0,0.0,0.0,0.0,0.0,0.0,0.0,3.9751,3.9705,3.9556,3.9351,3.9054,3.8886,0.0,0.0,0.0,0.0,0.0,0.0,0.0,0.0,0.0,0.0,0.0,0.0,0.0,0.0,0.0,0.0,0.0,0.0,0.0,0.0,0.0,0.0,0.0,0.0,0.0,0.0,0.0,0.0,0.0,0.0,0.0,0.0,0.0,0.0,0.0,0.0,0.0,0.0,0.0,0.0,0.0,0.0,0.0,0.0,0.0,0.0,0.0,0.0,0.0,0.0,0.0,0.0,0.0,0.0,0.0,0.0,0.0,0.0,0.0,0.0,0.0,0.0,0.0,0.0,0.0,0.0,0.0,0.0,0.0,0.0,0.0,0.0,0.0,0.0,0.0,0.0,0.0,0.0,0.0,0.0,0.0,0.0,0.0,0.0,0.0,0.0,0.0,0.0,0.0,0.0,0.0,0.0,0.0,0.0,0.0,0.0,0.0,0.0,0.0,0.0,0.0,0.0,0.0,0.0,0.0,0.0,0.0,0.0,4.0193,4.0212,4.0139,4.0012,3.9805,3.9433,3.9221,0.0,0.0,0.0,0.0,0.0,0.0,0.0,0.0,0.0,0.0,0.0,0.0,0.0,0.0,0.0,0.0,0.0,0.0,0.0,0.0,0.0,0.0,0.0,0.0,0.0,0.0,0.0,0.0,0.0,0.0,0.0,0.0,0.0,0.0,0.0,0.0,0.0,0.0,0.0,0.0,0.0,0.0,0.0,0.0,0.0,0.0,0.0,0.0,0.0,0.0,0.0,0.0,0.0,0.0,0.0,0.0,0.0,0.0,0.0,0.0,0.0,0.0,0.0,0.0,0.0,0.0,0.0,0.0,0.0,0.0,0.0,0.0,0.0,0.0,0.0,0.0,0.0,0.0,0.0,0.0,0.0,0.0,0.0,0.0,0.0,0.0,0.0,0.0,0.0,0.0,0.0,0.0,0.0,0.0,0.0,0.0,0.0,0.0,0.0,0.0,0.0,0.0,0.0,0.0,0.0,0.0,0.0,0.0,4.0498,4.0518,4.0446,4.0345,4.021,3.9772,3.9508,0.0,0.0,0.0,0.0,0.0,0.0,0.0,0.0,0.0,0.0,0.0,0.0,0.0,0.0,0.0,0.0,0.0,0.0,0.0,0.0,0.0,0.0,0.0,0.0,0.0,0.0,0.0,0.0,0.0,0.0,0.0,0.0,0.0,0.0,0.0,0.0,0.0,0.0,0.0,0.0,0.0,0.0,0.0,0.0,0.0,0.0,0.0,0.0,0.0,0.0,0.0,0.0,0.0,0.0,0.0,0.0,0.0,0.0,0.0,0.0,0.0,0.0,0.0,0.0,0.0,0.0,0.0,0.0,0.0,0.0,0.0,0.0,0.0,0.0,0.0,0.0,0.0,0.0,0.0,0.0,0.0,0.0,0.0,0.0,0.0,0.0,0.0,0.0,0.0,0.0,0.0,0.0,0.0,0.0,0.0,0.0,0.0,0.0,0.0,0.0,0.0,0.0,0.0,0.0,0.0,0.0,0.0,0.0,4.059,4.059,4.0511,4.0446,4.0372,3.9905,3.9602,0.0,0.0,0.0,0.0,0.0,0.0,0.0,0.0,0.0,0.0,0.0,0.0,0.0,0.0,0.0,0.0,0.0,0.0,0.0,0.0,0.0,0.0,0.0,0.0,0.0,0.0,0.0,0.0,0.0,0.0,0.0,0.0,0.0,0.0,0.0,0.0,0.0,0.0,0.0,0.0,0.0,0.0,0.0,0.0,0.0,0.0,0.0,0.0,3.3487,0.0,0.0,0.0,0.0,0.0,0.0,0.0,0.0,0.0,0.0,0.0,0.0,0.0,0.0,0.0,0.0,0.0,0.0,0.0,0.0,0.0,0.0,0.0,0.0,0.0,0.0,0.0,0.0,0.0,0.0,0.0,0.0,0.0,0.0,0.0,0.0,0.0,0.0,0.0,0.0,0.0,0.0,0.0,0.0,0.0,0.0,0.0,0.0,0.0,0.0,0.0,0.0,0.0,0.0,0.0,0.0,0.0,0.0,0.0,4.0835,4.0835,4.0779,4.0684,4.0585,4.0323,4.0043,0.0,0.0,0.0,0.0,0.0,0.0,0.0,0.0,0.0,0.0,0.0,0.0,0.0,0.0,0.0,0.0,0.0,0.0,0.0,0.0,0.0,0.0,0.0,0.0,0.0,0.0,0.0,0.0,0.0,0.0,0.0,0.0,0.0,0.0,0.0,0.0,0.0,0.0,0.0,0.0,0.0,0.0,0.0,0.0,0.0,0.0,0.0,0.0,0.0,0.0,0.0,0.0,0.0,0.0,0.0,0.0,0.0,0.0,0.0,0.0,0.0,0.0,0.0,0.0,0.0,0.0,0.0,0.0,0.0,0.0,0.0,0.0,0.0,0.0,0.0,0.0,0.0,0.0,0.0,0.0,0.0,0.0,0.0,0.0,0.0,0.0,0.0,0.0,0.0,0.0,0.0,0.0,0.0,0.0,0.0,0.0,0.0,0.0,0.0,0.0,0.0,0.0,0.0,0.0,0.0,0.0,0.0,4.1103,4.1103,4.1112,4.1046,4.0961,4.0834,4.0761,4.0565,4.0194,0.0,0.0,0.0,0.0,0.0,0.0,0.0,0.0,0.0,0.0,0.0,0.0,0.0,0.0,0.0,0.0,0.0,0.0,0.0,0.0,0.0,0.0,0.0,0.0,0.0,0.0,0.0,0.0,0.0,0.0,0.0,0.0,0.0,0.0,0.0,0.0,0.0,0.0,3.2481,3.2896,0.0,0.0,0.0,0.0,0.0,0.0,0.0,0.0,3.5358,0.0,0.0,0.0,0.0,0.0,0.0,0.0,0.0,0.0,0.0,0.0,0.0,0.0,0.0,0.0,0.0,0.0,0.0,0.0,0.0,0.0,0.0,0.0,0.0,0.0,0.0,0.0,0.0,0.0,0.0,0.0,0.0,0.0,0.0,0.0,0.0,0.0,0.0,0.0,0.0,0.0,0.0,0.0,0.0,0.0,0.0,0.0,0.0,0.0,0.0,0.0,0.0,0.0,0.0,0.0,0.0,4.1099,4.1109,4.1099,4.1099,4.1078,4.1058,4.0961,4.0951,4.0809,4.053,0.0,0.0,0.0,0.0,0.0,0.0,0.0,0.0,0.0,0.0,0.0,0.0,0.0,0.0,0.0,0.0,0.0,0.0,0.0,0.0,0.0,0.0,0.0,0.0,0.0,0.0,0.0,0.0,0.0,0.0,0.0,0.0,0.0,0.0,0.0,0.0,0.0,0.0,0.0,3.3612,3.3952,0.0,0.0,0.0,0.0,0.0,0.0,0.0,0.0,3.5721,0.0,0.0,0.0,0.0,0.0,0.0,0.0,0.0,0.0,0.0,0.0,0.0,0.0,0.0,0.0,0.0,0.0,0.0,0.0,0.0,0.0,0.0,0.0,0.0,0.0,0.0,0.0,0.0,0.0,0.0,0.0,0.0,0.0,0.0,0.0,0.0,0.0,0.0,0.0,0.0,0.0,0.0,0.0,0.0,0.0,0.0,0.0,0.0,0.0,0.0,0.0,0.0,0.0,0.0,0.0,4.1053,4.1052,4.1052,4.1053,4.1053,4.1048,4.1046,4.1048,4.098,0.0,0.0,0.0,0.0,0.0,0.0,0.0,0.0,0.0,0.0,0.0,0.0,0.0,0.0,0.0,0.0,0.0,0.0,0.0,0.0,0.0,0.0,0.0,0.0,0.0,0.0,0.0,0.0,0.0,0.0,0.0,0.0,0.0,0.0,0.0,0.0,0.0,0.0,0.0,0.0,3.3609,3.4301,3.4577,0.0,0.0,0.0,0.0,0.0,0.0,3.6022,3.5958,0.0,0.0,0.0,0.0,0.0,0.0,0.0,0.0,0.0,0.0,0.0,0.0,0.0,0.0,0.0,0.0,0.0,0.0,0.0,0.0,0.0,0.0,0.0,0.0,0.0,0.0,0.0,0.0,0.0,0.0,0.0,0.0,0.0,0.0,0.0,0.0,0.0,0.0,0.0,0.0,0.0,0.0,0.0,0.0,0.0,0.0,0.0,0.0,0.0,0.0,0.0,0.0,0.0,0.0,0.0,4.0984,4.0985,4.0988,4.0992,4.0992,4.1034,4.1092,4.1103,4.1081,0.0,0.0,0.0,0.0,0.0,0.0,0.0,0.0,0.0,0.0,0.0,0.0,0.0,0.0,0.0,0.0,0.0,0.0,0.0,0.0,0.0,0.0,0.0,0.0,0.0,0.0,0.0,0.0,0.0,0.0,0.0,0.0,0.0,0.0,0.0,0.0,0.0,0.0,0.0,0.0,0.0,3.4696,3.5385,3.5812,0.0,0.0,0.0,0.0,3.6196,3.6211,0.0,0.0,0.0,0.0,0.0,0.0,0.0,0.0,0.0,0.0,0.0,0.0,0.0,0.0,0.0,0.0,0.0,0.0,0.0,0.0,0.0,0.0,0.0,0.0,0.0,0.0,0.0,0.0,0.0,0.0,0.0,0.0,0.0,0.0,0.0,0.0,0.0,0.0,0.0,0.0,0.0,0.0,0.0,0.0,0.0,0.0,0.0,0.0,0.0,0.0,0.0,0.0,0.0,0.0,0.0,0.0,4.0986,4.0976,4.0988,4.0975,4.0995,4.1025,4.1102,4.1105,4.1073,0.0,0.0,0.0,0.0,0.0,0.0,0.0,0.0,0.0,0.0,0.0,0.0,0.0,0.0,0.0,0.0,0.0,0.0,0.0,0.0,0.0,0.0,0.0,0.0,0.0,0.0,0.0,0.0,0.0,0.0,0.0,0.0,0.0,0.0,0.0,0.0,0.0,0.0,0.0,0.0,0.0,3.5584,3.6245,3.6414,3.6383,0.0,0.0,0.0,3.6242,3.6211,0.0,0.0,0.0,0.0,0.0,0.0,0.0,0.0,0.0,0.0,0.0,0.0,0.0,0.0,0.0,0.0,0.0,0.0,0.0,0.0,0.0,0.0,0.0,0.0,0.0,0.0,0.0,0.0,0.0,0.0,0.0,0.0,0.0,0.0,0.0,0.0,0.0,0.0,0.0,0.0,0.0,0.0,0.0,0.0,0.0,0.0,0.0,0.0,0.0,0.0,0.0,0.0,0.0,0.0,0.0,4.0958,4.0937,4.0944,4.0967,4.0979,4.0979,4.101,4.104,4.1039,4.103,0.0,0.0,0.0,0.0,0.0,0.0,0.0,0.0,0.0,0.0,0.0,0.0,0.0,0.0,0.0,0.0,0.0,0.0,0.0,0.0,0.0,0.0,0.0,0.0,0.0,0.0,0.0,0.0,0.0,0.0,0.0,0.0,0.0,0.0,0.0,0.0,0.0,0.0,0.0,0.0,0.0,0.0,3.5891,3.6551,0.0,0.0,0.0,3.6353,3.5876,0.0,0.0,0.0,0.0,0.0,0.0,0.0,0.0,0.0,0.0,0.0,0.0,0.0,0.0,0.0,0.0,0.0,0.0,0.0,0.0,0.0,0.0,0.0,0.0,0.0,0.0,0.0,0.0,0.0,0.0,0.0,0.0,0.0,0.0,0.0,0.0,0.0,0.0,0.0,0.0,0.0,0.0,0.0,0.0,0.0,0.0,0.0,0.0,0.0,0.0,0.0,0.0,0.0,0.0,0.0,0.0,0.0,4.1199,4.1194,4.133,4.16,4.16,4.1509,4.1302,4.1281,0.0,0.0,0.0,0.0,0.0,0.0,0.0,0.0,0.0,0.0,0.0,0.0,0.0,0.0,0.0,0.0,0.0,0.0,0.0,0.0,0.0,0.0,0.0,0.0,0.0,0.0,0.0,3.5502,0.0,0.0,0.0,0.0,0.0,0.0,0.0,0.0,0.0,0.0,0.0,0.0,0.0,0.0,3.5371,3.5449,3.6399,3.6739,0.0,0.0,3.6307,3.5814,3.6168,3.6414,0.0,0.0,0.0,0.0,0.0,0.0,0.0,0.0,0.0,0.0,0.0,0.0,0.0,0.0,0.0,0.0,0.0,0.0,0.0,0.0,0.0,0.0,0.0,0.0,0.0,0.0,0.0,0.0,0.0,0.0,0.0,0.0,0.0,0.0,0.0,0.0,0.0,0.0,0.0,0.0,0.0,0.0,0.0,0.0,0.0,0.0,0.0,0.0,0.0,0.0,0.0,0.0,0.0,0.0,0.0,4.1995,4.2034,4.2402,4.3197,4.3255,4.2867,4.2149,4.2119,4.1799,0.0,0.0,0.0,0.0,0.0,0.0,0.0,0.0,0.0,0.0,0.0,0.0,0.0,0.0,0.0,0.0,0.0,0.0,0.0,0.0,0.0,0.0,0.0,0.0,0.0,0.0,0.0,0.0,0.0,0.0,0.0,0.0,0.0,0.0,0.0,0.0,0.0,0.0,0.0,0.0,0.0,3.5239,3.5284,3.5922,3.616,0.0,0.0,3.6476,3.643,3.6461,3.6429,3.6242,0.0,0.0,0.0,0.0,0.0,0.0,0.0,0.0,0.0,0.0,0.0,0.0,0.0,0.0,0.0,0.0,0.0,0.0,0.0,0.0,0.0,0.0,0.0,0.0,0.0,0.0,0.0,0.0,0.0,0.0,0.0,0.0,0.0,0.0,0.0,0.0,0.0,0.0,0.0,0.0,0.0,0.0,0.0,0.0,0.0,0.0,0.0,0.0,0.0,0.0,0.0,0.0,0.0,4.2047,4.2895,4.2914,4.3069,4.3373,4.3393,4.3261,4.2945,4.2925,4.257,0.0,0.0,0.0,0.0,0.0,0.0,0.0,0.0,0.0,0.0,0.0,0.0,0.0,0.0,0.0,0.0,0.0,0.0,0.0,0.0,0.0,0.0,0.0,0.0,0.0,0.0,0.0,0.0,3.3505,3.2969,3.3181,0.0,0.0,0.0,0.0,0.0,0.0,0.0,0.0,0.0,0.0,3.5289,3.534,3.5928,0.0,0.0,3.6091,3.6338,3.5938,3.623,3.646,3.6383,3.6383,0.0,0.0,0.0,0.0,0.0,0.0,0.0,0.0,0.0,0.0,0.0,0.0,0.0,0.0,0.0,0.0,0.0,0.0,0.0,0.0,0.0,0.0,0.0,0.0,0.0,0.0,0.0,0.0,0.0,0.0,0.0,0.0,0.0,0.0,0.0,0.0,0.0,0.0,0.0,0.0,0.0,0.0,0.0,0.0,0.0,0.0,0.0,0.0,0.0,0.0,0.0,0.0,4.2884,4.3756,4.3756,4.3872,4.4105,4.4105,4.3995,4.3768,4.3768,4.3382,0.0,0.0,0.0,0.0,0.0,0.0,0.0,0.0,0.0,0.0,0.0,0.0,0.0,0.0,0.0,0.0,0.0,0.0,0.0,0.0,0.0,0.0,0.0,0.0,0.0,0.0,0.0,0.0,3.3535,3.3266,3.3266,0.0,0.0,0.0,0.0,0.0,0.0,0.0,0.0,0.0,0.0,3.5794,3.5524,3.6261,3.6515,3.5731,3.6198,3.6446,3.5891,3.6184,3.6492,3.6492,0.0,0.0,0.0,0.0,0.0,0.0,0.0,0.0,0.0,0.0,0.0,0.0,0.0,0.0,0.0,0.0,0.0,0.0,0.0,0.0,0.0,0.0,0.0,0.0,0.0,0.0,0.0,0.0,0.0,0.0,4.1357,0.0,0.0,0.0,0.0,0.0,0.0,0.0,0.0,0.0,0.0,0.0,0.0,0.0,0.0,0.0,0.0,0.0,0.0,0.0,0.0,0.0,0.0,0.0,4.4555,4.4581,4.4949,4.5671,4.5749,4.5337,4.4608,4.4596,4.4203,4.3419,0.0,0.0,0.0,0.0,0.0,0.0,0.0,0.0,0.0,0.0,0.0,0.0,0.0,0.0,0.0,0.0,0.0,0.0,0.0,0.0,0.0,0.0,0.0,0.0,0.0,0.0,3.3618,3.3864,3.4079,0.0,0.0,0.0,0.0,0.0,0.0,0.0,0.0,0.0,0.0,3.6558,3.6882,3.5894,3.687,3.728,3.6099,3.6517,3.6877,3.6507,3.6507,3.6492,0.0,0.0,0.0,0.0,0.0,0.0,0.0,0.0,0.0,0.0,0.0,0.0,0.0,0.0,0.0,0.0,0.0,0.0,0.0,0.0,0.0,0.0,0.0,0.0,0.0,0.0,0.0,4.2504,4.282,0.0,0.0,0.0,0.0,0.0,0.0,0.0,0.0,0.0,0.0,0.0,4.2098,4.2213,0.0,0.0,0.0,0.0,0.0,0.0,0.0,0.0,0.0,0.0,0.0,0.0,4.4464,4.5283,4.5341,4.5457,4.5708,4.5746,4.5607,4.5392,4.5399,4.5058,4.435,0.0,0.0,0.0,0.0,0.0,0.0,0.0,0.0,0.0,0.0,0.0,0.0,0.0,0.0,0.0,0.0,0.0,0.0,0.0,0.0,0.0,0.0,0.0,0.0,0.0,3.494,0.0,0.0,0.0,0.0,0.0,0.0,0.0,0.0,0.0,0.0,0.0,3.6448,3.6813,3.6808,3.6962,3.756,3.7403,3.7277,0.0,0.0,0.0,0.0,0.0,0.0,0.0,0.0,0.0,0.0,0.0,0.0,0.0,0.0,3.5432,3.4662,3.3581,3.2684,3.2196,0.0,0.0,0.0,0.0,0.0,0.0,0.0,0.0,0.0,0.0,0.0,0.0,0.0,0.0,0.0,0.0,4.3814,0.0,0.0,0.0,0.0,0.0,0.0,0.0,0.0,4.2648,4.2823,4.3013,4.3138,4.3223,0.0,4.3223,4.2613,0.0,0.0,0.0,0.0,0.0,0.0,0.0,0.0,4.5232,4.5802,4.58,4.5771,4.5791,4.5712,4.5746,4.5845,4.5874,4.5583,4.4874,4.3829,4.3,0.0,0.0,0.0,0.0,0.0,0.0,0.0,0.0,0.0,0.0,0.0,0.0,0.0,0.0,0.0,0.0,0.0,0.0,0.0,0.0,0.0,0.0,0.0,3.5764,0.0,0.0,0.0,0.0,0.0,0.0,0.0,0.0,0.0,3.6606,3.671,3.6994,3.7534,3.7603,3.7841,3.8471,0.0,0.0,0.0,0.0,0.0,0.0,0.0,3.6908,3.6724,3.6585,3.6492,3.6492,3.6492,3.646,3.632,0.0,0.0,3.5204,3.4312,3.3443,3.272,3.2654,3.2354,3.1239,3.1287,3.1496,0.0,0.0,0.0,0.0,0.0,0.0,0.0,0.0,4.323,4.3176,0.0,4.3677,0.0,0.0,0.0,0.0,0.0,4.2733,0.0,0.0,4.3162,4.3273,4.3293,4.3312,4.3293,4.3273,4.3312,4.3277,4.3188,4.3239,0.0,0.0,0.0,0.0,0.0,0.0,4.5969,4.6065,4.595,4.5892,4.5905,4.5759,4.5752,4.5892,4.6027,4.5745,4.4991,4.4902,4.4126,4.2575,4.248,0.0,0.0,0.0,0.0,0.0,0.0,0.0,0.0,0.0,0.0,0.0,0.0,0.0,0.0,0.0,0.0,0.0,0.0,0.0,0.0,3.6299,0.0,0.0,0.0,0.0,0.0,0.0,0.0,0.0,0.0,0.0,3.722,3.7542,3.7868,3.7881,0.0,0.0,0.0,0.0,3.9172,3.8084,3.7943,3.7799,3.7476,3.721,3.703,3.7015,0.0,0.0,3.6492,3.6492,3.6492,3.6492,3.6352,3.6179,3.6022,3.5252,3.4394,3.3561,3.2747,3.1932,3.1224,3.1104,3.1248,4.1467,0.0,0.0,0.0,0.0,4.2183,4.2697,4.323,4.3354,4.351,4.366,4.3892,0.0,0.0,0.0,0.0,0.0,0.0,4.4232,4.4525,4.4595,4.4718,4.4897,4.4917,4.4917,4.4917,4.4917,4.4889,4.488,4.4908,4.46,4.4012,0.0,0.0,0.0,0.0,4.5914,4.5959,4.5933,4.5897,4.5897,4.5863,4.5875,4.5968,4.6096,4.6053,4.5835,4.5281,4.4753,4.4271,4.3648,0.0,0.0,0.0,0.0,0.0,0.0,0.0,0.0,0.0,0.0,0.0,0.0,0.0,0.0,0.0,0.0,0.0,0.0,0.0,3.8331,3.8147,3.8138,0.0,0.0,0.0,0.0,0.0,0.0,0.0,0.0,0.0,3.9027,3.8956,3.9,0.0,0.0,3.963,3.9739,3.9449,3.9044,3.8733,0.0,0.0,0.0,3.7682,3.7508,3.706,3.6708,3.6492,3.6492,3.6492,3.6492,3.6492,3.646,3.6383,3.632,3.5958,3.4975,3.3402,3.2981,3.2742,3.1825,3.1562,3.1757,4.2936,4.209,4.2351,4.267,4.3024,4.3133,4.3524,4.4038,4.3741,4.3744,4.4005,4.4005,4.4005,4.402,4.4294,0.0,0.0,0.0,4.5096,4.5352,4.5371,4.5438,4.5586,4.5594,4.5594,4.5594,4.5594,4.5594,4.5594,4.5594,4.5379,4.4924,0.0,0.0,4.5835,4.5954,4.6,4.6053,4.602,4.5983,4.5983,4.5983,4.6011,4.6044,4.617,4.6243,4.6243,4.5797,4.5358,4.5009,4.4501,4.3808,0.0,0.0,0.0,0.0,0.0,0.0,0.0,0.0,0.0,0.0,0.0,3.8708,0.0,0.0,0.0,0.0,3.8566,3.9129,3.9165,3.9017,0.0,0.0,0.0,0.0,0.0,0.0,0.0,3.9166,3.9636,4.0031,4.0324,4.0443,4.0464,4.0407,4.0344,4.0302,4.0203,0.0,3.9232,3.8821,3.856,3.8335,3.8132,3.7972,3.7682,3.709,3.6724,3.6523,3.6492,3.6492,3.6492,3.6492,3.6492,3.6352,3.5958,3.5847,3.535,3.3506,3.3494,3.3348,3.2102,3.1967,3.2346,4.4044,4.4091,4.4138,4.4378,4.4722,4.4479,4.4674,4.5121,4.4416,4.4149,4.4191,4.4135,4.4092,4.4079,4.4318,0.0,4.4872,4.5137,4.5371,4.5594,4.5594,4.5594,4.5594,4.5594,4.5594,4.5594,4.5594,4.5594,4.5594,4.5594,4.5687,4.58,4.5801,4.5854,4.5915,4.6049,4.6178,4.63,4.6178,4.6109,4.6105,4.6105,4.6121,4.6098,4.6236,4.6296,4.6296,4.6298,4.5911,4.5137,4.5099,4.4686,4.3744,0.0,0.0,0.0,0.0,0.0,0.0,0.0,0.0,0.0,0.0,0.0,0.0,0.0,0.0,0.0,3.9219,0.0,3.9324,3.9205,0.0,0.0,0.0,3.9027,3.9316,3.956,3.9782,4.001,0.0,0.0,4.1239,0.0,4.1958,4.1041,4.13,4.1209,4.0128,3.9935,3.9584,3.8572,3.8391,3.8391,3.8363,3.8103,3.7711,3.7151,3.6739,3.6554,3.6523,3.6492,3.6492,3.6492,3.6492,3.6163,3.5139,3.5442,3.5279,3.3957,3.3988,3.3787,3.2392,3.2437,3.2947,4.5271,4.5673,4.6035,4.5817,4.526,4.5516,4.5786,4.599,4.5823,4.5799,4.5862,4.5268,4.4842,4.463,4.4676,4.4954,4.541,4.5485,4.555,4.5594,4.5594,4.5594,4.5594,4.5594,4.5594,4.5594,4.5594,4.5594,4.5594,4.5594,4.5668,4.5807,4.5834,4.5939,4.6053,4.6181,4.6271,4.63,4.6271,4.6238,4.6178,4.6178,4.6167,4.618,4.6213,4.6222,4.6222,4.6226,4.6121,4.5928,4.5945,4.5593,4.4707,4.4409,0.0,0.0,0.0,0.0,0.0,0.0,0.0,0.0,0.0,4.0864,4.0062,0.0,4.112,0.0,3.959,3.9559,3.9595,3.9389,0.0,0.0,3.9889,3.9994,4.0639,4.0597,4.0704,4.1139,4.1429,4.1695,4.1971,4.2183,4.2216,4.1976,4.1603,4.1024,4.0153,3.9723,3.9269,3.8572,3.8391,3.8391,3.8363,3.8132,3.777,3.7373,3.7059,3.6785,3.6554,3.6492,3.6492,3.646,3.6163,3.5831,3.5542,3.5672,3.5249,3.4115,3.3848,3.3776,3.3265,3.3287,3.3535,4.6352,4.6868,4.7335,4.7245,4.6779,4.6673,4.6741,4.6842,4.6453,4.6374,4.6473,4.5743,4.5344,4.5153,4.5031,4.5129,4.5419,4.5531,4.5594,4.5594,4.5594,4.5594,4.5594,4.5594,4.5594,4.5594,4.5594,4.5594,4.5594,4.5651,4.5757,4.5841,4.5939,4.6053,4.6181,4.6271,4.6302,4.6302,4.6302,4.6275,4.6245,4.6245,4.6231,4.6203,4.6234,4.6237,4.6203,4.6231,4.6243,4.6245,4.6275,4.608,4.5566,4.5115,4.4688,0.0,0.0,0.0,0.0,0.0,0.0,0.0,0.0,0.0,0.0,0.0,4.1103,0.0,4.0192,4.0299,4.0363,4.0453,4.0667,4.1086,4.0942,4.1051,4.1678,4.1603,4.1662,4.2046,4.208,4.2127,4.2295,4.2308,4.2308,4.2287,4.1713,4.1013,4.0317,3.9944,3.9473,3.8572,3.8391,3.8391,3.8391,3.8119,3.7783,3.746,3.718,3.6877,3.6554,3.6492,3.6429,3.6179,3.5879,3.5632,3.5459,3.5399,3.5136,3.4548,3.4238,3.4093,3.3673,3.3783,3.4071,4.716,4.7632,4.8035,4.8325,4.8476,4.7758,4.759,4.7711,4.6953,4.6633,4.6603,4.602,4.5712,4.5632,4.5346,4.5222,4.5282,4.5475,4.5594,4.5594,4.5594,4.5594,4.5594,4.5594,4.5594,4.5594,4.5594,4.5594,4.5594,4.5746,4.5835,4.5905,4.6021,4.6173,4.63,4.6302,4.6302,4.6302,4.6302,4.63,4.6278,4.6296,4.6267,4.6203,4.6262,4.6264,4.6203,4.6267,4.6296,4.6277,4.6298,4.6261,4.6208,4.5483,4.5075,0.0,4.4188,0.0,0.0,0.0,0.0,0.0,0.0,0.0,0.0,4.0788,4.0781,4.0831,4.1064,4.1279,4.1374,4.1774,4.201,4.1982,4.1959,4.212,4.2551,4.2597,4.2655,4.2773,4.2751,4.2653,4.2348,4.2308,4.2308,4.2187,4.1692,4.1036,4.0404,4.016,3.9689,3.8572,3.8391,3.8391,3.8363,3.8177,3.7841,3.7476,3.7224,3.6938,3.6569,3.6492,3.632,3.5863,3.5746,3.5547,3.5094,3.5101,3.5079,3.4815,3.4801,3.4632,3.3989,3.4058,3.4384,4.716,4.7611,4.7695,4.8075,4.8569,4.8421,4.8438,4.8546,4.8415,4.8005,4.7439,4.6899,4.6393,4.5899,4.5433,4.5322,4.5522,4.5577,4.5594,4.5594,4.5594,4.5594,4.5594,4.5594,4.5594,4.5594,4.5594,4.5594,4.5594,4.5746,4.5841,4.5905,4.6041,4.6173,4.6298,0.0,0.0,0.0,4.6302,4.6273,4.6216,4.6214,4.6201,4.6209,4.6213,0.0,4.6209,4.6201,4.6214,4.6216,4.6273,0.0,0.0,0.0,0.0,0.0,0.0,0.0,0.0,0.0,0.0,0.0,4.3039,4.2776,4.2641,4.2591,4.2603,4.2614,4.257,4.2479,4.2358,4.2226,4.236,4.2854,4.2838,4.2999,4.3605,4.3685,4.3548,4.3142,4.3105,4.2882,4.2371,4.2308,4.2225,4.2002,4.1583,4.0984,4.0169,3.9808,3.9279,3.8544,3.8391,3.8391,3.8391,3.8335,3.8046,3.7581,3.7403,3.7104,3.6631,3.6492,3.632,3.5799,3.575,3.5604,3.5125,3.5481,3.5639,3.4958,3.5168,3.5265,3.4447,3.4319,3.4397,4.7548,0.0,4.8035,4.8307,0.0,4.8697,4.875,4.8857,4.8857,4.8634,4.8237,4.7462,4.6941,4.6607,4.5774,4.5457,4.5594,4.5594,4.5594,4.5594,4.5594,4.5594,4.5594,4.5594,4.5594,4.5594,4.5594,4.5618,4.5688,4.5802,4.5911,4.5996,4.6138,4.624,4.63,4.6302,4.6302,4.6302,4.6302,4.6296,4.6267,4.6245,4.6233,4.6206,0.0,0.0,0.0,0.0,0.0,0.0,0.0,0.0,0.0,0.0,0.0,4.6091,4.5623,4.5326,4.5279,4.4896,4.4627,4.4596,4.4596,4.4195,4.3294,4.319,4.3161,4.3123,4.3325,4.3436,4.3266,4.3426,4.3611,4.3828,4.3769,4.3829,4.3962,4.3876,4.3647,4.3268,4.3068,4.2768,4.2369,4.2308,4.2187,4.1895,4.1253,4.0638,4.0086,3.9655,3.9162,3.8516,3.8391,3.8391,3.8391,3.8391,3.8177,3.7565,3.7401,3.7148,3.6616,3.6289,3.6022,3.5733,3.554,3.5357,3.5531,3.5841,3.5934,3.5446,3.5466,3.5426,3.4605,3.4397,3.4397,4.8073,4.8513,4.8531,4.8643,4.8804,4.8804,4.8821,4.889,0.0,0.0,0.0,4.7843,4.7365,4.729,4.6137,4.5594,4.5594,4.5594,4.5594,4.5594,4.5594,4.5594,4.5594,4.5594,4.5594,4.5594,4.5594,4.5668,4.5807,4.5863,4.5973,4.6102,4.624,4.6302,4.6302,4.6302,4.6302,4.6302,4.6302,4.6302,4.6302,4.6302,4.6273,4.6216,4.6273,4.6273,4.6236,4.6273,4.6303,4.6288,4.6302,4.6269,4.6178,4.6138,4.6079,4.6056,4.595,4.5905,4.5873,4.5841,4.5807,4.5807,4.5807,4.5226,4.3827,4.375,4.3682,4.3554,4.4016,4.4259,4.4154,4.4566,4.4783,4.4524,4.4482,4.4368,4.4033,4.3812,4.358,4.325,4.2976,4.2653,4.2369,4.2246,4.2124,4.1788,4.1007,4.0177,3.9859,3.9454,3.899,3.8504,3.8391,3.8391,3.8335,3.8307,3.8062,3.7433,3.7298,3.7134,3.66,3.6053,3.5733,3.5737,3.5414,3.548,3.5913,3.6164,3.6105,3.5789,3.571,3.5426,3.4647,3.4502,3.4593,4.8439,4.8569,4.8587,4.8678,4.8804,4.8804,4.8821,4.8907,4.919,4.9337,4.9252,4.815,4.7636,4.7571,4.6215,4.5594,4.5594,4.5594,4.5594,0.0,4.5594,4.5594,4.5594,4.5594,4.5594,4.5594,4.5594,4.5668,4.5787,4.5863,4.5973,4.6121,4.624,4.6302,4.6302,4.6302,4.6302,4.6302,4.6302,4.6302,4.6302,4.6302,4.63,4.6296,4.63,4.63,4.6296,4.63,4.6291,4.6305,4.6306,4.6247,4.6131,4.6111,4.6053,4.5939,4.5898,4.5867,4.5808,4.5814,4.5807,4.5807,4.5807,4.5691,4.5478,4.5452,4.539,4.5266,4.5186,4.5169,4.5031,4.4946,4.4783,4.4537,4.4482,4.4368,4.4036,4.3939,4.373,4.3269,4.316,4.29,4.2351,4.2103,4.1892,4.1609,4.0926,4.0211,3.9322,3.8777,3.8544,3.842,3.8391,3.8278,3.8075,3.7972,3.7727,3.7151,3.7106,3.7031,3.6569,3.6158,3.5859,3.5796,3.5831,3.5949,3.6122,3.6545,3.6431,3.5871,3.5683,3.5386,3.4577,3.4789,3.5142,4.8624,4.8715,4.8696,4.8768,4.8857,4.8857,4.8978,4.919,4.948,4.9529,4.9288,4.8213,4.7693,4.7581,4.6225,4.5594,4.5594,4.5594,4.5594,4.5594,4.5594,4.5594,4.5594,4.5594,4.5594,4.5594,4.5594,4.5696,4.5847,4.5878,4.6,4.6187,4.6273,4.6302,4.6302,4.6302,4.6302,4.6302,4.6302,4.6302,4.6302,4.6302,4.6302,4.6302,4.6293,4.6299,4.6299,4.6267,4.623,4.6187,4.6198,4.6132,4.6043,4.6005,4.5973,4.5917,4.5874,4.5822,4.5807,4.5807,4.5807,4.5807,4.5807,4.5807,4.5807,4.5807,4.5737,4.5613,4.5475,4.5341,4.5194,4.4943,4.4725,4.451,4.4444,4.4281,4.4036,4.386,4.3631,4.3269,4.3032,4.2729,4.2145,4.1977,4.1744,4.1408,4.0642,3.9723,3.8849,3.8516,3.8408,3.8391,3.8391,3.8234,3.7972,3.7915,3.7623,3.709,3.7311,3.7235,3.6792,3.6539,3.6633,3.6355,3.6416,3.6539,3.6541,3.6571,3.636,3.5924,3.5521,3.51,3.4656,3.509,3.5796,4.8715,4.8822,4.8822,4.8857,4.889,4.889,4.9113,4.9411,4.9698,4.9707,4.9429,4.8322,4.7693,4.7388,4.6157,4.5594,4.5594,4.5594,4.5594,4.5594,4.5594,4.5594,4.5594,4.5594,4.5594,4.5603,4.5627,4.572,4.5875,4.592,4.6072,4.628,4.6306,4.6306,4.6306,4.6306,4.6306,4.6306,4.6306,4.6305,4.6302,4.6302,4.6303,4.629,4.6302,4.6288,4.625,4.6206,4.6153,4.6089,4.6075,4.6056,4.5996,4.5917,4.5983,4.6138,4.6125,4.6174,4.6361,4.6387,4.6387,4.638,4.638,4.6399,4.6387,4.6399,4.6158,4.5742,4.5475,4.5311,4.5184,4.487,4.4605,4.4473,4.4358,4.4222,4.402,4.3763,4.3495,4.3232,4.292,4.2516,4.2065,4.187,4.1653,4.114,4.0228,3.9348,3.8805,3.856,3.8424,3.8484,3.8391,3.8216,3.8017,3.7937,3.778,3.7374,3.7763,3.7742,3.7299,3.7412,3.7385,3.6963,3.6765,3.6705,3.6755,3.6603,3.6177,3.5683,3.5318,3.5083,3.5008,3.5639,3.6384,4.8821,4.8891,4.8891,4.8891,4.8907,4.8909,4.911,4.9442,4.9679,4.9917,4.9918,4.868,4.7684,4.6924,4.6067,4.5671,4.5652,4.5614,4.5614,4.5594,4.5594,4.5594,4.5594,4.5594,4.5594,4.561,4.573,4.5828,4.591,4.602,4.6145,4.6278,4.63,4.63,4.63,4.6301,4.6301,4.6301,4.6301,4.6295,4.6302,4.6302,4.6291,4.6306,4.6307,4.623,4.6132,4.6108,4.6084,4.6017,4.6061,4.6007,4.5953,4.5937,4.6248,4.6943,4.6987,4.7308,4.8043,4.8179,4.8082,4.8159,4.8063,4.8043,4.8024,4.8063,4.7444,4.614,4.5446,4.5279,4.5169,4.477,4.4468,4.4358,4.43,4.4226,4.3986,4.3763,4.3495,4.3232,4.2845,4.2478,4.198,4.1719,4.1408,4.0877,4.0145,3.9506,3.9249,3.8848,3.8569,3.8659,3.8408,3.8182,3.8282,3.8151,3.8122,3.8254,3.8404,3.8335,3.8101,3.7556,3.7019,3.7468,3.6907,3.6457,3.6465,3.6391,3.6058,3.5467,3.522,3.5281,3.5795,3.6397,3.6867,4.8447,4.889,4.889,4.901,4.9174,4.919,4.9469,4.9884,5.0031,4.9973,4.9729,4.9162,4.8718,4.8317,4.7471,4.6836,4.6374,4.6374,4.6103,4.5706,4.5657,4.5665,4.5671,4.5671,4.568,4.572,4.5757,4.5875,4.6017,4.6167,4.6234,4.6301,4.6301,4.6301,4.6301,4.6301,4.6301,4.6301,4.6301,4.6285,4.6249,4.623,4.625,4.6248,4.6171,4.6101,4.6108,4.6523,4.6783,4.6745,4.7201,4.7447,4.7384,4.7377,4.7538,4.7838,4.7869,4.8005,4.8372,4.8411,4.8411,4.8411,4.835,4.816,4.7685,4.7596,4.704,4.6013,4.5841,4.5663,4.5022,4.4576,4.434,4.4285,4.4192,4.4036,4.3795,4.3511,4.325,4.2939,4.2496,4.2127,4.1762,4.1408,4.0907,4.0311,3.9749,3.948,3.9007,3.8958,3.9034,3.8907,3.884,3.8806,3.8764,3.867,3.8586,3.8591,3.8862,3.9011,3.8603,3.8726,3.8478,3.7974,3.7162,3.6575,3.6452,3.5952,3.5467,3.5084,3.518,3.5407,3.6009,3.658,3.7037,4.8184,4.8852,4.8991,4.9236,4.9529,4.9539,4.9811,5.023,5.0309,5.0151,4.9872,4.9858,4.984,4.9643,4.8652,4.7815,4.7334,4.7276,4.6975,4.645,4.6392,4.6422,4.6433,4.6182,4.6125,4.6147,4.5988,4.599,4.6156,4.6239,4.6305,4.6305,4.6305,4.6422,4.6637,4.6656,4.6774,4.7028,4.6991,4.6932,4.6921,4.6864,4.672,4.6528,4.6411,4.6446,4.6702,4.7303,4.761,4.7546,4.814,4.8468,4.8399,4.8411,4.8508,4.8759,4.8991,4.9088,4.9088,4.9073,4.8976,4.8756,4.8667,4.8295,4.7619,4.7375,4.6896,4.5993,4.6144,4.5875,4.4946,4.4444,4.4222,4.4226,4.4085,4.3892,4.3629,4.3321,4.2976,4.2616,4.2172,4.174,4.1498,4.1134,4.0662,4.0028,3.9714,3.9322,3.8693,3.893,3.9184,3.9003,3.9329,3.9502,3.9309,3.9163,3.9063,3.9208,3.9521,3.9566,3.8998,3.9339,3.9169,3.7984,3.742,3.6819,3.623,3.5562,3.5044,3.5012,3.5213,3.5561,3.6031,3.6698,3.7325,4.8166,4.8903,4.924,4.957,4.9884,4.9886,5.0078,5.0415,5.0415,5.0519,5.0668,5.0686,5.0724,5.058,4.9114,4.8304,4.8246,4.8238,4.8169,4.8042,4.807,4.8195,4.8218,4.7456,4.7076,4.7118,4.6606,4.6318,4.6386,4.6387,4.6289,4.6367,4.6445,4.6777,4.7441,4.7539,4.793,4.8496,4.8466,4.8505,4.8491,4.8381,4.7942,4.7388,4.7252,4.7558,4.8205,4.8412,4.8431,4.836,4.8457,4.8496,4.8469,4.8469,4.8856,4.9583,5.0279,5.0705,5.0639,5.0499,5.0204,4.9625,4.9264,4.9026,4.81,4.7976,4.7395,4.626,4.6073,4.5744,4.4952,4.4351,4.407,4.4036,4.402,4.3876,4.3595,4.3123,4.2715,4.2398,4.1938,4.152,4.1255,4.1035,4.0704,4.0246,3.9876,3.9339,3.8786,3.8805,3.9033,3.922,3.956,3.9978,3.9913,3.9763,3.9822,3.9985,4.0025,4.0213,3.9713,3.922,3.8634,3.7924,3.7042,3.635,3.5831,3.5345,3.4936,3.4978,3.5506,3.5926,3.6083,3.7116,3.7717,4.8378,4.9362,4.9476,4.9798,5.0199,5.0233,5.0376,5.0644,5.0701,5.0756,5.0836,5.0869,5.0858,5.0819,5.024,4.9636,4.9084,4.9065,4.8811,4.838,4.8382,4.8432,4.8421,4.8166,4.8129,4.8156,4.7966,4.7877,4.7949,4.7949,4.7969,4.7969,4.7969,4.8144,4.8398,4.8418,4.8573,4.8737,4.8704,4.8666,4.8643,4.8515,4.8571,4.8813,4.8289,4.8147,4.8435,4.895,4.9265,4.9223,4.9707,4.9989,4.9989,4.9997,5.0136,5.0402,5.0228,5.0046,4.9956,4.9503,4.9128,4.8831,4.872,4.8309,4.7606,4.7369,4.6887,4.5857,4.5394,4.5053,4.4678,4.4221,4.4005,4.4005,4.3989,4.3742,4.323,4.2885,4.258,4.2005,4.1565,4.1255,4.1065,4.0942,4.0614,4.0003,3.9705,3.9361,3.9019,3.9209,3.9579,3.9719,4.0228,4.0629,4.0325,4.0223,4.0228,4.0351,4.0439,4.0374,4.0056,3.922,3.8598,3.7881,3.6911,3.5884,3.5399,3.5018,3.4618,3.4785,3.5391,3.6005,3.6096,3.7168,3.7704,4.8912,4.9683,4.9838,5.0121,5.0547,5.0577,5.0663,5.0836,5.0888,5.0897,5.0905,5.0909,5.0898,5.0898,5.0898,5.0584,4.9994,4.9956,4.9655,4.9173,4.9291,4.9349,4.9333,4.9145,4.9113,4.9184,4.8953,4.8862,4.8887,4.8887,4.8887,4.8867,4.8887,4.9062,4.9258,4.9316,4.9373,4.9499,4.9565,4.9494,4.9387,4.9349,4.9556,4.9923,4.9517,4.9208,4.9204,4.9784,5.0074,5.0163,5.0619,5.0758,5.048,5.019,5.0058,4.9994,4.9492,4.9156,4.9065,4.8585,4.8152,4.7863,4.7782,4.7409,4.6592,4.6396,4.5898,4.5249,4.4825,4.4559,4.4303,4.4091,4.4005,4.4005,4.3974,4.3644,4.2922,4.2697,4.2241,4.1552,4.1226,4.1041,4.0918,4.0894,4.0476,3.9714,3.9699,3.955,3.8996,3.9467,3.9961,3.9897,4.037,4.061,4.0535,4.0385,4.0351,4.0459,4.0489,4.0455,4.0091,3.9256,3.842,3.7738,3.6791,3.5683,3.499,3.4647,3.4585,3.4659,3.5365,3.6123,3.6567,3.722,3.7665,4.9725,5.0043,5.0276,5.0539,5.0827,5.085,5.089,5.0909,5.089,5.0909,5.0909,5.0898,5.0898,5.0898,5.0898,5.0859,5.0793,5.077,5.0747,5.0685,5.0823,5.0923,5.0934,5.0299,5.0064,5.0156,4.9394,4.9023,4.9141,4.918,4.916,4.9023,4.916,4.9551,5.0195,5.0215,5.0566,5.0994,5.1034,5.1049,5.116,5.082,5.0655,5.0662,5.0518,5.0471,5.06,5.0705,5.0619,5.0639,5.0684,5.04,4.9545,4.89,4.8409,4.8486,4.8332,4.8293,4.8285,4.8088,4.757,4.706,4.6882,4.6547,4.5849,4.5496,4.5203,4.4843,4.4585,4.4318,4.4094,4.4005,4.3989,4.3989,4.3926,4.3614,4.2922,4.2465,4.1955,4.1163,4.0942,4.0894,4.0894,4.0894,4.0524,3.9866,3.9854,3.9727,3.8909,3.9408,3.9771,3.9797,4.0177,4.0562,4.0524,4.0489,4.0489,4.0489,4.0489,4.042,3.9809,3.9038,3.8092,3.7305,3.6082,3.5018,3.4771,3.4478,3.4753,3.4986,3.5691,3.6279,3.6828,3.7338,3.7678,4.9955,5.0396,5.0489,5.0681,5.0893,5.0909,5.0898,5.0898,5.0898,5.0898,5.0898,5.0898,5.0898,5.0898,5.0898,5.0898,5.0906,5.0983,5.1037,5.1063,5.1132,5.1207,5.1216,5.1061,5.0994,5.0996,5.0762,5.0605,5.0566,5.0586,5.0625,5.0625,5.0586,5.0762,5.0957,5.1035,5.1171,5.1273,5.1252,5.095,5.031,5.0164,4.9821,4.9193,4.9111,4.9103,4.9125,4.9628,4.9639,4.9203,4.9109,4.8985,4.8679,4.8447,4.8276,4.8174,4.7653,4.7339,4.7255,4.6775,4.6371,4.6074,4.6018,4.5792,4.5409,4.5243,4.4996,4.4612,4.4438,4.426,4.402,4.3929,4.391,4.3945,4.3897,4.3511,4.26,4.1825,4.1283,4.0995,4.0894,4.0894,4.0894,4.0894,4.0493,3.9649,3.9885,3.9797,3.9218,3.9512,4.0078,4.0208,4.0432,4.0489,4.0489,4.0489,4.0489,4.0489,4.0489,4.0385,3.9737,3.8752,3.7814,3.666,3.5467,3.4771,3.4522,3.4567,3.4842,3.5234,3.5809,3.6358,3.6907,3.7351,3.7756,5.0233,5.0587,5.0691,5.078,5.0898,5.0898,5.0898,5.0898,5.0898,5.0898,5.0898,5.0898,5.0898,5.0898,5.0898,5.0898,5.0902,5.1043,5.1128,5.1142,5.1191,5.1247,5.1301,5.1364,5.1387,5.1387,5.1387,5.1387,5.1387,5.1387,5.1387,5.1387,5.1387,5.1367,5.1348,5.1094,5.0913,5.0807,5.0436,4.9947,4.9409,4.9246,4.8941,4.8388,4.8279,4.81,4.7882,4.8289,4.8472,4.8246,4.7987,4.7797,4.776,4.7491,4.7289,4.7148,4.6773,4.641,4.6355,4.5979,4.5594,4.5586,4.5504,4.54,4.5182,4.5055,4.4726,4.4479,4.4289,4.4147,4.3942,4.3897,4.3865,4.3781,4.3783,4.3337,4.2384,4.1468,4.0965,4.0894,4.0894,4.0894,4.0894,4.0817,4.0506,3.9844,4.0012,4.0157,3.9677,3.9847,4.0201,4.0451,4.0478,4.0489,4.0489,4.0489,4.0489,4.0489,4.0489,4.0366,3.9965,3.8627,3.7472,3.6068,3.4758,3.4647,3.441,3.4724,3.5038,3.5495,3.6057,3.6698,3.7299,3.7573,3.7887,5.0616,5.0654,5.0814,5.089,5.0898,5.0898,5.0898,5.0898,5.0898,5.0898,5.0898,5.0898,5.0898,5.0898,5.0898,5.0914,5.0925,5.1049,5.1152,5.1218,5.1279,5.1325,5.133,5.1365,5.1387,5.1387,5.1387,5.1387,5.1387,5.1387,5.1387,5.1387,5.1387,5.1387,5.1289,5.0663,5.0381,5.0254,4.9488,4.9032,4.869,4.8593,4.8467,4.8312,4.8097,4.7713,4.7176,4.7026,4.7293,4.7882,4.7221,4.6831,4.6691,4.6028,4.5796,4.5834,4.5652,4.5671,4.5633,4.5652,4.5577,4.5522,4.5352,4.518,4.5063,4.4707,4.4452,4.4318,4.4136,4.3974,4.3897,4.3849,4.3767,4.3582,4.3443,4.3014,4.2259,4.1396,4.0965,4.0894,4.0894,4.0894,4.0929,4.0862,4.0637,4.0242,4.0336,4.0405,4.0003,4.0034,4.0389,4.0489,4.0489,4.0489,4.0489,4.0489,4.0489,4.0489,4.042,4.0261,3.9809,3.8428,3.7127,3.5696,3.4592,3.4481,3.458,3.4933,3.5456,3.6057,3.6632,3.7233,3.7573,3.7795,3.773,5.0691,5.0814,5.0882,5.0898,5.0898,5.0898,5.0898,5.0898,5.0898,5.0898,5.0898,5.0898,5.0898,5.0898,5.0906,5.094,5.1037,5.1137,5.1206,5.1293,5.1342,5.1386,5.1365,5.1386,5.1387,5.1387,5.1386,5.1386,5.1386,5.1384,5.1402,5.1402,5.1402,5.1402,5.1324,5.1128,5.1016,5.0896,5.0618,4.9965,4.935,4.9184,4.8858,4.8212,4.7619,4.7236,4.6843,4.6268,4.5998,4.6256,4.6121,4.595,4.596,4.5729,4.5594,4.5594,4.5594,4.5594,4.5594,4.5594,4.5513,4.5303,4.5232,4.5022,4.4637,4.4493,4.4275,4.4091,4.3942,4.3846,4.3716,4.3682,4.3513,4.3105,4.2846,4.2402,4.1799,4.1237,4.0894,4.0894,4.0894,4.0912,4.1019,4.1167,4.107,4.0448,4.06,4.095,4.0363,4.0164,4.0489,4.0489,4.0489,4.0489,4.0489,4.0489,4.0489,4.0455,4.0351,4.0156,3.9349,3.8107,3.6869,3.5629,3.4758,3.4397,3.4816,3.5221,3.5887,3.6502,3.692,3.7351,3.7639,3.7848,3.7521,5.0789,5.0898,5.0898,5.0898,5.0898,5.0898,5.0898,5.0898,5.0898,5.0898,5.0906,5.0921,5.0929,5.0929,5.0963,5.1017,5.1106,5.1172,5.123,5.1295,5.1367,5.1385,5.1385,5.1385,5.1385,5.1385,5.1384,5.1402,5.1402,5.14,5.1398,5.1399,5.1398,5.1398,5.1358,5.0931,5.0745,5.0517,5.0197,4.9595,4.9077,4.8941,4.8707,4.8161,4.7622,4.7412,4.7336,4.6913,4.6374,4.5845,4.5614,4.5594,4.5594,4.5594,4.5594,4.5594,4.5594,4.5594,4.5594,4.5594,4.5522,4.5352,4.5201,4.4884,4.4572,4.4346,4.4045,4.3897,4.3851,4.3767,4.3632,4.3565,4.325,4.2713,4.2358,4.2011,4.1556,4.1163,4.0942,4.0894,4.0912,4.1019,4.1213,4.1572,4.145,4.1166,4.1213,4.1068,4.0678,4.0585,4.0489,4.0489,4.0489,4.0489,4.0489,4.0489,4.0455,4.042,4.0331,4.0086,3.9096,3.7919,3.6869,3.5816,3.4991,3.4567,3.5064,3.5561,3.6096,3.6632,3.705,3.7325,3.7573,3.7652,3.7325,5.113,5.1061,5.1041,5.0983,5.0933,5.0914,5.0941,5.0914,5.0941,5.0941,5.0948,5.0998,5.0988,5.0995,5.1069,5.1105,5.1116,5.121,5.1238,5.1305,5.1384,5.1396,5.1396,5.1399,5.14,5.14,5.1398,5.1397,5.1397,5.1396,5.1396,5.1395,5.1395,5.1373,5.1244,5.0581,5.0057,4.9987,4.9556,4.9165,4.8927,4.8864,4.8836,4.873,4.8384,4.8134,4.8048,4.7894,4.7394,4.596,4.5864,4.596,4.5883,4.5768,4.5671,4.5614,4.5594,4.5594,4.5577,4.554,4.5495,4.5342,4.4954,4.4688,4.4471,4.4136,4.3881,4.3769,4.3788,4.3719,4.36,4.3496,4.305,4.2438,4.2177,4.1924,4.16,4.1169,4.0929,4.1015,4.1009,4.1299,4.1658,4.1886,4.1933,4.1564,4.1632,4.1373,4.0931,4.0625,4.0524,4.0489,4.0489,4.0489,4.0489,4.0489,4.042,4.0385,4.0277,3.9945,3.9023,3.7956,3.6933,3.5963,3.5142,3.5002,3.5391,3.5887,3.6345,3.692,3.7456,3.7429,3.7364,3.7299,3.7077,5.255,5.192,5.1982,5.161,5.1036,5.102,5.1073,5.1085,5.1073,5.1027,5.1053,5.106,5.1076,5.1081,5.1102,5.1152,5.1232,5.1271,5.1325,5.1381,5.139,5.1402,5.1384,5.1393,5.1397,5.1397,5.1394,5.1391,5.1391,5.1385,5.14,5.1402,5.1379,5.1345,5.1187,5.0977,5.0831,5.0655,5.038,5.0141,4.999,4.9971,4.999,5.001,4.9529,4.8817,4.824,4.8096,4.7913,4.7663,4.7567,4.7451,4.6874,4.6701,4.6451,4.6009,4.5778,4.5701,4.5598,4.5505,4.5145,4.509,4.4838,4.4221,4.4005,4.404,4.3843,4.3686,4.3632,4.3783,4.3716,4.3287,4.297,4.2514,4.2062,4.1845,4.1759,4.1328,4.1222,4.1595,4.1687,4.1871,4.256,4.2919,4.2722,4.2127,4.184,4.1693,4.1248,4.0734,4.0558,4.0489,4.0489,4.0489,4.0489,4.0455,4.0385,4.0296,4.0172,3.996,3.9038,3.7979,3.6972,3.6108,3.5332,3.5398,3.5669,3.6031,3.6462,3.7155,3.7756,3.7612,3.7442,3.7207,3.6828,5.3271,5.2852,5.2887,5.2642,5.2204,5.185,5.1643,5.1566,5.1236,5.1081,5.1101,5.112,5.1155,5.1156,5.1187,5.1262,5.1324,5.1347,5.1362,5.1385,5.1396,5.1394,5.1396,5.1384,5.1389,5.1389,5.1385,5.1384,5.1402,5.1398,5.1394,5.1371,5.1335,5.1265,5.1187,5.1118,5.0972,5.0879,5.0825,5.0767,5.0702,5.0702,5.0971,5.1298,5.1164,5.0914,5.0625,5.0548,5.0298,4.9981,4.9808,4.9288,4.8298,4.8067,4.7798,4.7509,4.7347,4.7002,4.6722,4.6364,4.6166,4.5791,4.5504,4.5273,4.5041,4.4927,4.4811,4.4705,4.4724,4.4689,4.4599,4.4252,4.3792,4.3328,4.2838,4.2544,4.2341,4.1829,4.1657,4.2211,4.236,4.2646,4.3116,4.3537,4.3395,4.2752,4.2252,4.2045,4.1396,4.0888,4.0593,4.0489,4.0489,4.0489,4.0489,4.042,4.0331,4.0191,4.0081,3.9818,3.9286,3.8182,3.6996,3.6294,3.5697,3.5579,3.5822,3.6201,3.6684,3.739,3.7808,3.773,3.7521,3.7168,3.6737,5.3899,5.3783,5.379,5.3732,5.3506,5.2808,5.2543,5.2401,5.1793,5.1593,5.1347,5.1366,5.144,5.1271,5.1286,5.134,5.1386,5.1394,5.1398,5.1396,5.1394,5.1394,5.1394,5.1396,5.1396,5.1394,5.1396,5.1396,5.1396,5.1392,5.1369,5.134,5.1258,5.1319,5.1278,5.1218,5.1312,5.1451,5.1422,5.1328,5.1289,5.1279,5.1606,5.2068,5.225,5.2472,5.2269,5.2212,5.2163,5.1759,5.1672,5.097,5.0105,4.9423,4.9202,4.9038,4.8584,4.8067,4.7369,4.7213,4.7008,4.6996,4.6607,4.6371,4.6153,4.5929,4.5789,4.5754,4.57,4.5681,4.5865,4.5137,4.4736,4.4371,4.3971,4.3523,4.3122,4.2599,4.2702,4.2911,4.3014,4.3218,4.3574,4.3922,4.3692,4.3359,4.2827,4.2237,4.1542,4.1024,4.0696,4.0505,4.0489,4.0797,4.0858,4.0815,4.0664,4.0609,4.0355,4.0004,3.9576,3.8373,3.7324,3.6712,3.6239,3.6027,3.6031,3.6449,3.6998,3.7665,3.7861,3.7795,3.7495,3.7116,3.675,5.5353,5.4675,5.4703,5.431,5.3734,5.3527,5.3462,5.3462,5.3236,5.2861,5.2314,5.2262,5.1954,5.1589,5.1404,5.1424,5.1548,5.1457,5.1394,5.1414,5.1453,5.1511,5.155,5.1707,5.159,5.1394,5.1511,5.1609,5.1492,5.1392,5.1642,5.1369,5.1351,5.1531,5.1884,5.1939,5.214,5.2463,5.2502,5.251,5.25,5.2509,5.249,5.2701,5.2509,5.2355,5.2076,5.1517,5.094,5.0824,5.0764,5.0837,5.0619,4.9918,4.9102,4.8498,4.8316,4.8154,4.7532,4.697,4.6681,4.6456,4.6397,4.6191,4.612,4.6102,4.625,4.614,4.6085,4.5993,4.5883,4.5434,4.4782,4.4396,4.4003,4.361,4.3761,4.3735,4.358,4.3672,4.3651,4.3683,4.4,4.4141,4.3808,4.3383,4.2782,4.2062,4.1243,4.0851,4.0624,4.052,4.0489,4.092,4.134,4.1255,4.1189,4.1283,4.1055,4.0586,3.9899,3.8664,3.7707,3.7264,3.6538,3.6009,3.6201,3.6711,3.7207,3.7782,3.7848,3.7861,3.7639,3.739,3.7181,5.5992,5.5623,5.5618,5.5411,5.501,5.4556,5.4391,5.4348,5.3964,5.3572,5.3325,5.3205,5.3054,5.2754,5.2728,5.2542,5.2083,5.1531,5.1414,5.1453,5.1824,5.2078,5.2175,5.2468,5.2702,5.2761,5.2741,5.2427,5.2154,5.2515,5.2487,5.2555,5.243,5.251,5.2666,5.27,5.2859,5.3183,5.3212,5.3182,5.3151,5.311,5.2946,5.2523,5.2562,5.2494,5.2398,5.2165,5.1655,5.1367,5.1212,5.1078,5.0738,5.0325,4.9693,4.9182,4.9026,4.8744,4.8194,4.7807,4.77,4.7512,4.7224,4.7168,4.715,4.7205,4.7058,4.7095,4.7131,4.715,4.7186,4.6233,4.5797,4.5501,4.4792,4.4363,4.4392,4.4441,4.436,4.4245,4.4252,4.4283,4.4404,4.4339,4.3985,4.3439,4.2769,4.1933,4.1024,4.0839,4.0705,4.1058,4.1166,4.1566,4.1914,4.1847,4.1833,4.1923,4.1707,4.1235,4.0484,3.9337,3.8618,3.8132,3.7288,3.6345,3.6567,3.7142,3.7521,3.7821,3.7848,3.7874,3.7835,3.7691,3.7482,5.6311,5.6311,5.6311,5.6311,5.6181,5.5565,5.5296,5.5193,5.4656,5.4312,5.4163,5.4158,5.4062,5.3941,5.385,5.358,5.2899,5.2214,5.2097,5.2195,5.2644,5.2956,5.3171,5.3541,5.3834,5.3696,5.4028,5.3767,5.3162,5.3351,5.3673,5.3482,5.342,5.3497,5.3501,5.3465,5.3432,5.3421,5.3411,5.3351,5.3135,5.2996,5.2724,5.2083,5.2532,5.2678,5.2563,5.2176,5.1831,5.1486,5.1291,5.1082,5.044,5.0264,5.0266,5.0316,5.0353,4.9872,4.9172,4.8706,4.8346,4.82,4.829,4.8269,4.8233,4.8049,4.8177,4.8324,4.8233,4.8064,4.776,4.7306,4.6756,4.6276,4.5612,4.5079,4.4821,4.4712,4.464,4.4618,4.472,4.4726,4.4677,4.4468,4.4093,4.3243,4.2583,4.1901,4.1138,4.1036,4.1124,4.1709,4.2043,4.2381,4.2533,4.2463,4.2521,4.2614,4.2281,4.1776,4.0997,4.0105,3.9484,3.882,3.7885,3.7103,3.7351,3.7442,3.7704,3.7861,3.7887,3.7887,3.7861,3.7861,3.7743,5.6311,5.6311,5.6317,5.6311,5.6297,5.614,5.6124,5.609,5.5996,5.5664,5.5058,5.5019,5.4702,5.4278,5.4094,5.3971,5.3737,5.3444,5.3171,5.3053,5.3385,5.3541,5.3735,5.3893,5.3962,5.403,5.4538,5.4495,5.3927,5.3802,5.3852,5.3779,5.3673,5.36,5.4087,5.3887,5.4166,5.4139,5.4081,5.3705,5.308,5.2916,5.2789,5.254,5.2195,5.1908,5.182,5.1384,5.0864,5.0738,5.0558,5.0152,4.957,4.9453,4.908,4.8959,4.9029,4.9222,4.8587,4.8439,4.842,4.8363,4.8324,4.8324,4.8324,4.8324,4.8324,4.8324,4.8324,4.8113,4.7775,4.7226,4.666,4.6109,4.552,4.5086,4.4858,4.4737,4.4682,4.4789,4.4806,4.4789,4.475,4.4479,4.4167,4.3259,4.2443,4.1835,4.1489,4.1542,4.1638,4.2268,4.2738,4.307,4.3074,4.3,4.3039,4.3203,4.2784,4.2314,4.1755,4.1037,4.0075,3.9326,3.8403,3.7651,3.7456,3.7547,3.7808,3.79,3.79,3.79,3.79,3.79,3.79,5.63,5.6298,5.6311,5.6305,5.6295,5.6344,5.6375,5.6421,5.6434,5.6289,5.6047,5.6003,5.5782,5.5261,5.5025,5.4439,5.399,5.3541,5.2956,5.2895,5.311,5.3323,5.3357,5.3723,5.395,5.3954,5.4089,5.4008,5.393,5.4515,5.4922,5.4653,5.4196,5.403,5.4169,5.379,5.3587,5.351,5.343,5.3073,5.2476,5.2185,5.197,5.1511,5.1159,5.1025,5.088,5.0646,5.0337,5.0302,5.0156,4.9929,4.9618,4.9409,4.908,4.8711,4.8866,4.8816,4.8402,4.8343,4.8324,4.8324,4.8324,4.8324,4.8324,4.8324,4.8324,4.8324,4.8324,4.8053,4.7548,4.7053,4.6412,4.5835,4.5344,4.5118,4.4878,4.4754,4.4688,4.4812,4.497,4.5094,4.5128,4.4902,4.4519,4.3696,4.3118,4.2749,4.2525,4.261,4.2721,4.2895,4.3317,4.3708,4.3625,4.3509,4.3386,4.3419,4.3247,4.2826,4.2659,4.199,4.0879,4.0013,3.9226,3.8501,3.7766,3.7625,3.7861,3.79,3.79,3.79,3.79,3.79,3.79,5.6323,5.6319,5.6336,5.634,5.6328,5.6389,5.6456,5.6504,5.6522,5.6416,5.6224,5.5983,5.5864,5.5825,5.5123,5.4476,5.3967,5.3305,5.2696,5.2462,5.2616,5.3057,5.334,5.3721,5.383,5.3701,5.3642,5.3553,5.3805,5.4274,5.4822,5.5122,5.4089,5.3911,5.374,5.3349,5.2974,5.2637,5.2307,5.1875,5.1423,5.1281,5.0925,5.055,5.0302,5.0302,5.0302,5.0302,5.0302,5.01,4.9968,4.9749,4.9453,4.9209,4.8949,4.875,4.8898,4.903,4.8714,4.8526,4.8361,4.8324,4.8324,4.8324,4.8324,4.8324,4.8324,4.8324,4.8286,4.7915,4.7378,4.685,4.6213,4.5684,4.5237,4.5041,4.4981,4.5185,4.5405,4.5647,4.5821,4.5889,4.5821,4.5466,4.4905,4.4089,4.3698,4.3489,4.3434,4.3381,4.3467,4.3545,4.3708,4.3983,4.3883,4.3795,4.3738,4.3596,4.3423,4.326,4.3011,4.242,4.143,4.0661,3.9885,3.8917,3.7919,3.7887,3.79,3.79,3.79,3.79,3.79,3.79,3.79,5.6404,5.6402,5.6385,5.6406,5.6389,5.6441,5.6465,5.6386,5.6468,5.6007,5.5318,5.4674,5.4418,5.4281,5.4337,5.4118,5.3935,5.3918,5.3462,5.3415,5.3738,5.3426,5.3403,5.3401,5.3594,5.3524,5.3374,5.3271,5.3204,5.3347,5.3512,5.3302,5.3242,5.3073,5.2939,5.2762,5.2375,5.1954,5.1472,5.1109,5.0849,5.076,5.0646,5.055,5.0397,5.0321,5.034,5.0496,5.0468,5.0257,5.0094,4.9849,4.9583,4.9345,4.9139,4.9048,4.936,4.9541,4.9408,4.9003,4.8489,4.8379,4.8471,4.8673,4.8765,4.8471,4.8379,4.858,4.8743,4.8058,4.7331,4.6578,4.6403,4.5826,4.5648,4.5733,4.5811,4.6138,4.6358,4.6566,4.6684,4.6718,4.6722,4.6422,4.5393,4.4553,4.3973,4.3762,4.3756,4.376,4.3963,4.4074,4.4106,4.4159,4.3942,4.3793,4.3596,4.3463,4.3344,4.3305,4.3235,4.2537,4.199,4.1029,4.0202,3.9162,3.8239,3.8057,3.7933,3.79,3.79,3.79,3.79,3.79,3.79,5.6483,5.6522,5.6522,5.6504,5.6441,5.5973,5.5769,5.5651,5.5228,5.4845,5.4528,5.4135,5.3974,5.395,5.3889,5.3635,5.3259,5.32,5.2941,5.2489,5.235,5.2301,5.2332,5.2752,5.279,5.2783,5.2887,5.3037,5.2938,5.2916,5.2897,5.2805,5.2545,5.2192,5.2115,5.2224,5.1964,5.1888,5.1773,5.183,5.183,5.183,5.183,5.183,5.183,5.183,5.1825,5.1643,5.1486,5.123,5.0861,5.0486,5.0173,5.001,4.9858,4.9739,5.0141,5.0288,5.0325,4.9994,4.9866,4.9848,4.9866,4.9774,4.9626,4.9754,4.9811,4.9808,4.9561,4.8876,4.8194,4.7844,4.749,4.6552,4.6196,4.6353,4.6561,4.69,4.7056,4.7175,4.7361,4.7496,4.747,4.7438,4.6183,4.5017,4.4516,4.4089,4.409,4.4064,4.4242,4.4251,4.4236,4.405,4.3817,4.3621,4.3438,4.3384,4.3305,4.3305,4.3305,4.325,4.2618,4.1574,4.0589,3.9708,3.8908,3.8272,3.7979,3.7946,3.79,3.79,3.79,3.79,3.79,5.6528,5.6582,5.6575,5.6557,5.6459,5.5894,5.5645,5.5565,5.5114,5.456,5.4337,5.4142,5.3942,5.3913,5.3871,5.3673,5.3303,5.3143,5.2747,5.2549,5.2418,5.2056,5.2164,5.2414,5.2828,5.2454,5.2609,5.292,5.2834,5.2798,5.2822,5.2662,5.2337,5.2153,5.2072,5.1964,5.1964,5.2136,5.2422,5.2785,5.2728,5.2709,5.269,5.2627,5.2508,5.2425,5.2289,5.2073,5.1843,5.1678,5.1456,5.1231,5.1063,5.0944,5.0842,5.0894,5.1041,5.1132,5.1132,5.0912,5.082,5.06,5.0637,5.0653,5.0762,5.0741,5.0446,5.0437,5.0286,4.9861,4.8856,4.8265,4.7663,4.6708,4.698,4.7141,4.7276,4.7547,4.7648,4.775,4.7986,4.8193,4.8012,4.7883,4.6684,4.5474,4.4756,4.4408,4.4366,4.4372,4.4411,4.4297,4.4151,4.3895,4.3621,4.3503,4.3384,4.3344,4.3305,4.3305,4.3305,4.3305,4.301,4.1935,4.1029,4.0246,3.9401,3.8472,3.8103,3.79,3.79,3.79,3.79,3.79,3.79,5.6492,5.6486,5.6491,5.6545,5.6567,5.6475,5.6352,5.6174,5.6046,5.5591,5.4827,5.4242,5.3907,5.3904,5.3897,5.3797,5.3747,5.3728,5.3623,5.3495,5.3358,5.3595,5.3549,5.343,5.3346,5.3268,5.3362,5.3312,5.3053,5.3263,5.3148,5.311,5.3142,5.2836,5.2785,5.2766,5.2766,5.2805,5.2881,5.3072,5.3129,5.3187,5.3225,5.3188,5.3059,5.3036,5.2845,5.2556,5.2308,5.2004,5.1824,5.1562,5.1308,5.123,5.1151,5.1132,5.1683,5.194,5.194,5.1261,5.1094,5.1187,5.1371,5.122,5.0845,5.0748,5.0911,5.1082,5.0371,4.9597,4.8786,4.8197,4.7722,4.7474,4.7759,4.7919,4.8037,4.8139,4.824,4.8274,4.8629,4.8872,4.862,4.8175,4.7039,4.5971,4.5101,4.4708,4.4648,4.4496,4.4458,4.4243,4.4065,4.3817,4.3581,4.3409,4.3329,4.329,4.3305,4.3305,4.3305,4.3305,4.2835,4.2114,4.1254,4.0375,3.9445,3.8517,3.8226,3.79,3.79,3.79,3.79,3.79,3.79,5.6491,5.6491,5.6485,5.6527,5.6442,5.587,5.5652,5.5535,5.5042,5.4622,5.4362,5.3969,5.3903,5.3896,5.3989,5.4025,5.3982,5.39,5.3892,5.3946,5.4011,5.3708,5.3741,5.4057,5.4062,5.4071,5.4122,5.439,5.46,5.4352,5.4448,5.4524,5.4199,5.3836,5.3282,5.3225,5.3664,5.3798,5.4161,5.4562,5.4505,5.4454,5.4416,5.4384,5.4196,5.3974,5.3694,5.3273,5.297,5.266,5.2506,5.234,5.2234,5.2213,5.2268,5.2305,5.2747,5.2784,5.2763,5.2467,5.2333,5.2284,5.221,5.2132,5.2178,5.2175,5.2111,5.1744,5.1058,5.0492,5.0197,4.958,4.9033,4.8553,4.8629,4.8629,4.8697,4.8765,4.8832,4.8798,4.9001,4.8688,4.8401,4.8064,4.7137,4.6343,4.5494,4.4858,4.4685,4.4458,4.4305,4.4104,4.3925,4.3714,4.3542,4.3384,4.3329,4.3305,4.3305,4.3305,4.3305,4.3305,4.317,4.2714,4.1589,4.0432,3.9502,3.8652,3.8194,3.79,3.79,3.79,3.79,3.79,3.79,5.6494,5.6491,5.6487,5.6484,5.6409,5.5886,5.5652,5.5532,5.5041,5.48,5.4851,5.4847,5.4863,5.4851,5.4807,5.4807,5.4803,5.4748,5.4714,5.4689,5.4641,5.4608,5.463,5.4619,5.4775,5.4817,5.5008,5.5326,5.5231,5.5333,5.5288,5.5231,5.5371,5.4734,5.4199,5.4333,5.4562,5.4677,5.4982,5.5212,5.5192,5.5159,5.5078,5.4971,5.4809,5.4547,5.4376,5.4123,5.3814,5.3524,5.3339,5.3185,5.3185,5.3185,5.3185,5.3185,5.3185,5.3167,5.3091,5.299,5.2862,5.2956,5.31,5.2999,5.2893,5.2667,5.2656,5.2386,5.1904,5.1335,5.0752,5.0142,4.9526,4.8984,4.8968,4.8951,4.8968,4.9001,4.9018,4.9018,4.897,4.8608,4.8257,4.7721,4.7137,4.6499,4.5841,4.5253,4.4685,4.4419,4.4205,4.4026,4.3847,4.3675,4.3557,4.3384,4.3344,4.3305,4.3305,4.3305,4.3305,4.3305,4.3305,4.309,4.1713,4.0475,3.9502,3.8756,3.8148,3.79,3.79,3.79,3.79,3.79,3.79,5.6492,5.6488,5.6496,5.6487,5.6492,5.641,5.6426,5.6468,5.6429,5.639,5.639,5.6273,5.6176,5.6327,5.6362,5.6256,5.6115,5.601,5.5909,5.5889,5.5586,5.5612,5.5535,5.5509,5.5355,5.5401,5.5463,5.539,5.539,5.539,5.539,5.539,5.539,5.5154,5.5097,5.5097,5.5193,5.5218,5.5256,5.5345,5.5246,5.5019,5.4903,5.4735,5.4395,5.4104,5.3851,5.3622,5.34,5.3251,5.3206,5.3185,5.3185,5.3185,5.3185,5.3185,5.3185,5.3164,5.3124,5.302,5.2937,5.2934,5.2868,5.2739,5.2676,5.2654,5.2563,5.2155,5.1515,5.1043,5.0535,4.9826,4.9155,4.9001,4.9001,4.9001,4.9001,4.9018,4.9018,4.9018,4.9018,4.8829,4.8656,4.8145,4.7035,4.6569,4.5877,4.503,4.4534,4.4343,4.4127,4.4026,4.3847,4.369,4.3518,4.3384,4.3344,4.3305,4.3305,4.3305,4.3305,4.3305,4.3305,4.286,4.1574,4.0389,3.9087,3.8408,3.807,3.79,3.79,3.79,3.79,3.79,3.79,5.6496,5.6492,5.6487,5.6487,5.6487,5.6492,5.6492,5.6487,5.6487,5.6487,5.6487,5.6487,5.6474,5.6483,5.6333,5.63,5.6201,5.6107,5.5975,5.593,5.5898,5.5798,5.5701,5.5618,5.5546,5.5476,5.5422,5.539,5.539,5.539,5.539,5.539,5.539,5.539,5.539,5.539,5.539,5.539,5.539,5.5246,5.5085,5.4855,5.4654,5.4361,5.4176,5.387,5.3642,5.3583,5.34,5.3227,5.3206,5.3185,5.3185,5.3185,5.3185,5.3203,5.3143,5.3042,5.302,5.2831,5.2721,5.2739,5.2667,5.2645,5.2604,5.254,5.2361,5.1824,5.1157,5.0643,5.0192,4.958,4.9094,4.9018,4.9018,4.9018,4.9018,4.9018,4.9018,4.9018,4.9018,4.897,4.8829,4.7836,4.6846,4.6464,4.5877,4.4993,4.4419,4.4243,4.4011,4.3856,4.3714,4.3518,4.3478,4.3344,4.3305,4.3305,4.3305,4.3305,4.3305,4.3305,4.3305,4.2618,4.1407,3.9883,3.8317,3.7946,3.79,3.79,3.79,3.79,3.79,3.79,3.79,5.6487,5.6487,5.6487,5.6487,5.6487,5.6487,5.645,5.6422,5.645,5.645,5.6368,5.6382,5.6342,5.6239,5.6141,5.6085,5.6051,5.5879,5.5779,5.576,5.575,5.5624,5.5554,5.552,5.5495,5.5409,5.539,5.539,5.539,5.539,5.539,5.539,5.539,5.539,5.539,5.539,5.539,5.539,5.5345,5.514,5.4918,5.467,5.4397,5.4123,5.3999,5.3757,5.3563,5.3524,5.338,5.3227,5.3185,5.3185,5.3185,5.3146,5.306,5.3039,5.2977,5.2934,5.2912,5.2743,5.2654,5.2586,5.2549,5.2549,5.2421,5.2291,5.203,5.1601,5.0867,5.0237,4.9797,4.9406,4.9199,4.9018,4.9018,4.9018,4.9018,4.9018,4.9018,4.9018,4.9018,4.9018,4.8467,4.7439,4.6708,4.6429,4.5805,4.4805,4.4343,4.4166,4.384,4.3606,4.3503,4.3344,4.3305,4.3305,4.3305,4.3305,4.3305,4.3305,4.3305,4.317,4.2996,4.2263,4.1239,3.9752,3.8362,3.8024,3.79,3.79,3.79,3.79,3.79,3.79,3.79,5.6487,5.6487,5.6487,5.6479,5.6494,5.6563,5.6508,5.6337,5.6634,5.6483,5.6246,5.6162,5.6093,5.5998,5.5924,5.587,5.5835,5.569,5.5594,5.5624,5.5516,5.5453,5.544,5.5403,5.5422,5.5416,5.539,5.539,5.539,5.539,5.539,5.539,5.539,5.539,5.539,5.5273,5.5227,5.5214,5.5146,5.4966,5.47,5.4411,5.407,5.37,5.3442,5.3248,5.3227,5.3206,5.3185,5.3185,5.3185,5.3185,5.3124,5.3063,5.2955,5.2868,5.2806,5.2783,5.2761,5.2631,5.2627,5.2581,5.2549,5.2521,5.2392,5.2257,5.2024,5.1381,5.0661,5.0067,4.961,4.9303,4.9094,4.9018,4.9018,4.9018,4.9018,4.9018,4.9018,4.9018,4.9018,4.9001,4.8798,4.7852,4.7051,4.6604,4.5805,4.4805,4.4243,4.405,4.3817,4.3488,4.3369,4.3305,4.3305,4.3305,4.3305,4.3305,4.3305,4.3305,4.3305,4.3036,4.2644,4.192,4.1155,3.9927,3.8742,3.8317,3.7979,3.79,3.79,3.79,3.79,3.79,3.79,5.6487,5.6487,5.6487,5.6407,5.6386,5.6931,5.7105,5.7038,5.7691,5.7187,5.6167,5.6024,5.6018,5.6075,5.5943,5.5911,5.5801,5.5919,5.5528,5.5624,5.5607,5.5766,5.5517,5.5728,5.5575,5.539,5.539,5.5581,5.567,5.5594,5.546,5.5479,5.5498,5.5524,5.5433,5.5236,5.499,5.4947,5.4704,5.4594,5.4397,5.4033,5.3681,5.344,5.3185,5.3185,5.3185,5.3185,5.3185,5.3185,5.3185,5.3124,5.3042,5.302,5.2915,5.2806,5.2717,5.2672,5.2649,5.2581,5.2554,5.2549,5.2503,5.2498,5.2434,5.2322,5.1933,5.1191,5.0507,4.9942,4.9496,4.9229,4.9018,4.9018,4.9018,4.9018,4.9018,4.9018,4.9018,4.9018,4.9018,4.894,4.8815,4.829,4.7522,4.6726,4.5897,4.5014,4.4266,4.391,4.3793,4.3542,4.3384,4.3344,4.3305,4.3305,4.3305,4.3305,4.3305,4.3305,4.3305,4.313,4.286,4.2017,4.1127,4.0057,3.9162,3.8408,3.8103,3.7979,3.79,3.79,3.79,3.79,3.79,5.6655,5.6931,5.7223,5.7294,5.7273,5.7664,5.774,5.7709,5.8084,5.7744,5.6892,5.6838,5.6849,5.6795,5.6668,5.6537,5.6532,5.6569,5.6684,5.66,5.6377,5.6587,5.6511,5.6396,5.6645,5.653,5.6511,5.6587,5.6377,5.6549,5.6587,5.6364,5.6192,5.5821,5.5649,5.5169,5.4761,5.4576,5.4303,5.4146,5.4109,5.3814,5.3542,5.3314,5.3185,5.3185,5.3185,5.3185,5.3185,5.3164,5.3124,5.2977,5.2872,5.2806,5.2779,5.269,5.2599,5.2536,5.2572,5.2599,5.2607,5.2643,5.2511,5.2529,5.2024,5.1884,5.1626,5.0902,4.9971,4.9333,4.9243,4.9032,4.9018,4.9018,4.9018,4.9018,4.9018,4.9018,4.9018,4.9018,4.9018,4.9001,4.8767,4.8338,4.7539,4.6657,4.5861,4.4977,4.4266,4.3754,4.3675,4.3557,4.3384,4.3344,4.3305,4.3305,4.3305,4.3305,4.3305,4.3305,4.3305,4.3305,4.2996,4.2237,4.1463,4.0603,3.9708,3.8787,3.8194,3.7979,3.7946,3.79,3.79,3.79,3.79,5.7078,5.7589,5.8134,5.8355,5.8384,5.8481,5.8431,5.8266,5.8377,5.8404,5.8285,5.8364,5.824,5.7953,5.7886,5.7886,5.7772,5.746,5.7657,5.7714,5.7695,5.7485,5.7523,5.7714,5.76,5.7581,5.76,5.7619,5.7581,5.7494,5.7362,5.7589,5.7139,5.6454,5.6016,5.5467,5.4971,5.4794,5.4503,5.4125,5.3919,5.3716,5.3459,5.3293,5.3185,5.3203,5.3164,5.3253,5.3271,5.3103,5.3039,5.2872,5.2743,5.2676,5.2604,5.2572,5.2798,5.2793,5.2829,5.3047,5.3005,5.2951,5.2741,5.245,5.2015,5.1641,5.1361,5.0784,4.9859,4.9219,4.9128,4.9018,4.9018,4.9018,4.9018,4.9018,4.9018,4.9018,4.9018,4.9018,4.9018,4.9018,4.8719,4.8306,4.7539,4.6692,4.5789,4.4865,4.4127,4.3778,4.3518,4.3463,4.3344,4.3305,4.3305,4.3305,4.3305,4.3305,4.3305,4.3305,4.3305,4.3305,4.309,4.2537,4.1728,4.0859,4.0,3.9073,3.8575,3.8024,3.7946,3.79,3.79,3.79,3.79,5.8103,5.8243,5.8363,5.8336,5.8308,5.8902,5.9091,5.905,5.9643,5.9953,5.98,5.9781,5.9308,5.7925,5.7886,5.8001,5.8288,5.8192,5.7982,5.7867,5.823,5.8077,5.8077,5.8383,5.8001,5.8058,5.8173,5.7982,5.835,5.7925,5.7495,5.7567,5.71,5.6683,5.6543,5.6029,5.5622,5.5335,5.5129,5.4871,5.4556,5.4173,5.3385,5.3185,5.3103,5.306,5.3145,5.3591,5.3365,5.3069,5.2923,5.287,5.2854,5.284,5.2862,5.3034,5.3241,5.3422,5.3548,5.3743,5.3809,5.3887,5.3668,5.324,5.2723,5.219,5.1882,5.15,5.0594,4.9644,4.9369,4.9097,4.9018,4.9018,4.9018,4.9018,4.9018,4.9018,4.9018,4.9018,4.9018,4.9001,4.894,4.837,4.7688,4.6795,4.5865,4.4962,4.405,4.3699,4.3384,4.3344,4.3305,4.3305,4.3305,4.3305,4.3305,4.3305,4.3305,4.3305,4.3305,4.3305,4.305,4.2714,4.1893,4.0944,4.0043,3.9445,3.8562,3.807,3.7979,3.79,3.79,3.79,3.79]}]]